[[{"header":{"parameterUnit":"m.s-1","parameterCategory":1,"la1":30.6,"la2":28.766,"lo1":-90.7593,"lo2":-88.6598,"dy":0.0162,"dx":0.0183,"nx":116,"ny":114,"refTime":"2024-02-23T06:00:00:Z","depth":0,"parameterNumber":2,"parameterNumberName":"U-component_of_WINDS"},"data":[0.0,0.0,0.0,0.0,0.0,0.0,0.0,0.0,0.0,0.0,0.0,0.0,0.0,0.0,0.0,0.0,0.0,0.0,0.0,0.0,0.0,0.0,0.0,0.0,0.0,0.0,0.0,0.0,0.0,0.0,0.0,0.0,0.0,0.0,0.0,0.0,0.0,0.0,0.0,0.0,0.0,0.0,0.0,0.0,0.0,0.0,0.0,0.0,0.0,0.0,0.0,0.0,0.0,0.0,0.0,0.0,0.0,0.0,0.0,0.0,0.0,0.0,0.0,0.0,0.0,0.0,0.0,0.0,0.0,0.0,0.0,0.0,0.0,0.0,0.0,0.0,0.0,0.0,0.0,0.0,0.0,0.0,0.0,0.0,0.0,0.0,0.0,0.0,0.0,0.0,0.0,0.0,0.0,0.0,0.0,0.0,0.0,0.0,0.0,0.0,0.0,0.0,0.0,0.0,0.0,0.0,0.0,0.0,0.0,0.0,0.0,0.0,0.0,0.0,0.0,0.0,0.0,0.0,0.0,0.0,0.0,0.0,0.0,0.0,0.0,0.0,0.0,0.0,0.0,0.0,0.0,0.0,0.0,0.0,0.0,0.0,0.0,0.0,0.0,0.0,0.0,0.0,0.0,0.0,0.0,0.0,0.0,0.0,0.0,0.0,0.0,0.0,0.0,0.0,0.0,0.0,0.0,0.0,0.0,0.0,0.0,0.0,0.0,0.0,0.0,0.0,0.0,0.0,0.0,0.0,0.0,0.0,0.0,0.0,0.0,0.0,0.0,0.0,0.0,0.0,0.0,0.0,0.0,0.0,0.0,0.0,0.0,0.0,0.0,0.0,0.0,0.0,0.0,0.0,0.0,0.0,0.0,0.0,0.0,0.0,0.0,0.0,0.0,0.0,0.0,0.0,0.0,0.0,0.0,0.0,0.0,0.0,0.0,0.0,0.0,0.0,0.0,0.0,0.0,0.0,0.0,0.0,0.0,0.0,0.0,0.0,0.0,0.0,0.0,0.0,0.0,0.0,0.0,0.0,0.0,0.0,0.0,0.0,0.0,0.0,0.0,0.0,0.0,0.0,0.0,0.0,0.0,0.0,0.0,0.0,0.0,0.0,0.0,0.0,0.0,0.0,0.0,0.0,0.0,0.0,0.0,0.0,0.0,0.0,0.0,0.0,0.0,0.0,0.0,0.0,0.0,0.0,0.0,0.0,0.0,0.0,0.0,0.0,0.0,0.0,0.0,0.0,0.0,0.0,0.0,0.0,0.0,0.0,0.0,0.0,0.0,0.0,0.0,0.0,0.0,0.0,0.0,0.0,0.0,0.0,0.0,0.0,0.0,0.0,0.0,0.0,0.0,0.0,0.0,0.0,0.0,0.0,0.0,0.0,0.0,0.0,0.0,0.0,0.0,0.0,0.0,0.0,0.0,0.0,0.0,0.0,0.0,0.0,0.0,0.0,0.0,0.0,0.0,0.0,0.0,0.0,0.0,0.0,0.0,0.0,0.0,0.0,0.0,0.0,0.0,0.0,0.0,0.0,0.0,0.0,0.0,0.0,0.0,0.0,0.0,0.0,0.0,0.0,0.0,0.0,0.0,0.0,0.0,0.0,0.0,0.0,0.0,0.0,0.0,0.0,0.0,0.0,0.0,0.0,0.0,0.0,0.0,0.0,0.0,0.0,0.0,0.0,0.0,0.0,0.0,0.0,0.0,0.0,0.0,0.0,0.0,0.0,0.0,0.0,0.0,0.0,0.0,0.0,0.0,0.0,0.0,0.0,0.0,0.0,0.0,0.0,0.0,0.0,0.0,0.0,0.0,0.0,0.0,0.0,0.0,0.0,0.0,0.0,0.0,0.0,0.0,0.0,0.0,0.0,0.0,0.0,0.0,0.0,0.0,0.0,0.0,0.0,0.0,0.0,0.0,0.0,0.0,0.0,0.0,0.0,0.0,0.0,0.0,0.0,0.0,0.0,0.0,0.0,0.0,0.0,0.0,0.0,0.0,0.0,0.0,0.0,0.0,0.0,0.0,0.0,0.0,0.0,0.0,0.0,0.0,0.0,0.0,0.0,0.0,0.0,0.0,0.0,0.0,0.0,0.0,0.0,0.0,0.0,0.0,0.0,0.0,0.0,0.0,0.0,0.0,0.0,0.0,0.0,0.0,0.0,0.0,0.0,0.0,0.0,0.0,0.0,0.0,0.0,0.0,0.0,0.0,0.0,0.0,0.0,0.0,0.0,0.0,0.0,0.0,0.0,0.0,0.0,0.0,0.0,0.0,0.0,0.0,0.0,0.0,0.0,0.0,0.0,0.0,0.0,0.0,0.0,0.0,0.0,0.0,0.0,0.0,0.0,0.0,0.0,0.0,0.0,0.0,0.0,0.0,0.0,0.0,0.0,0.0,0.0,0.0,0.0,0.0,0.0,0.0,0.0,0.0,0.0,0.0,0.0,0.0,0.0,0.0,0.0,0.0,0.0,0.0,0.0,0.0,0.0,0.0,0.0,0.0,0.0,0.0,0.0,0.0,0.0,0.0,0.0,0.0,0.0,0.0,0.0,0.0,0.0,0.0,0.0,0.0,0.0,0.0,0.0,0.0,0.0,0.0,0.0,0.0,0.0,0.0,0.0,0.0,0.0,0.0,0.0,0.0,0.0,0.0,0.0,0.0,0.0,0.0,0.0,0.0,0.0,0.0,0.0,0.0,0.0,0.0,0.0,0.0,0.0,0.0,0.0,0.0,0.0,0.0,0.0,0.0,0.0,0.0,0.0,0.0,0.0,0.0,0.0,0.0,0.0,0.0,0.0,0.0,0.0,0.0,0.0,0.0,0.0,0.0,0.0,0.0,0.0,0.0,0.0,0.0,0.0,0.0,0.0,0.0,0.0,0.0,0.0,0.0,0.0,0.0,0.0,0.0,0.0,0.0,0.0,0.0,0.0,0.0,0.0,0.0,0.0,0.0,0.0,0.0,0.0,0.0,0.0,0.0,0.0,0.0,0.0,0.0,0.0,0.0,0.0,0.0,0.0,0.0,0.0,0.0,0.0,0.0,0.0,0.0,0.0,0.0,0.0,0.0,0.0,0.0,0.0,0.0,0.0,0.0,0.0,0.0,0.0,0.0,0.0,0.0,0.0,0.0,0.0,0.0,0.0,0.0,0.0,0.0,0.0,0.0,0.0,0.0,0.0,0.0,0.0,0.0,0.0,0.0,0.0,0.0,0.0,0.0,0.0,0.0,0.0,0.0,0.0,0.0,0.0,0.0,0.0,0.0,0.0,0.0,0.0,0.0,0.0,0.0,0.0,0.0,0.0,0.0,0.0,0.0,0.0,0.0,0.0,0.0,0.0,0.0,0.0,0.0,0.0,0.0,0.0,0.0,0.0,0.0,0.0,0.0,0.0,0.0,0.0,0.0,0.0,0.0,0.0,0.0,0.0,0.0,0.0,0.0,0.0,0.0,0.0,0.0,0.0,0.0,0.0,0.0,0.0,0.0,0.0,0.0,0.0,0.0,0.0,0.0,0.0,0.0,0.0,0.0,0.0,0.0,0.0,0.0,0.0,0.0,0.0,0.0,0.0,0.0,0.0,0.0,0.0,0.0,0.0,0.0,0.0,0.0,0.0,0.0,0.0,0.0,0.0,0.0,0.0,0.0,0.0,0.0,0.0,0.0,0.0,0.0,0.0,0.0,0.0,0.0,0.0,0.0,0.0,0.0,0.0,0.0,0.0,0.0,0.0,0.0,0.0,0.0,0.0,0.0,0.0,0.0,0.0,0.0,0.0,0.0,0.0,0.0,0.0,0.0,0.0,0.0,0.0,0.0,0.0,0.0,0.0,0.0,0.0,0.0,0.0,0.0,0.0,0.0,0.0,0.0,0.0,0.0,0.0,0.0,0.0,0.0,0.0,0.0,0.0,0.0,0.0,0.0,0.0,0.0,0.0,0.0,0.0,0.0,0.0,0.0,0.0,0.0,0.0,0.0,0.0,0.0,0.0,0.0,0.0,0.0,0.0,0.0,0.0,0.0,0.0,0.0,0.0,0.0,0.0,0.0,0.0,0.0,0.0,0.0,0.0,0.0,0.0,0.0,0.0,0.0,0.0,0.0,0.0,0.0,0.0,0.0,0.0,0.0,0.0,0.0,0.0,0.0,0.0,0.0,0.0,0.0,0.0,0.0,0.0,0.0,0.0,0.0,0.0,0.0,0.0,0.0,0.0,0.0,0.0,0.0,0.0,0.0,0.0,0.0,0.0,0.0,0.0,0.0,0.0,0.0,0.0,0.0,0.0,0.0,0.0,0.0,0.0,0.0,0.0,0.0,0.0,0.0,0.0,0.0,0.0,0.0,0.0,0.0,0.0,0.0,0.0,0.0,0.0,0.0,0.0,0.0,0.0,0.0,0.0,0.0,0.0,0.0,0.0,0.0,0.0,0.0,0.0,0.0,0.0,0.0,0.0,0.0,0.0,0.0,0.0,0.0,0.0,0.0,0.0,0.0,0.0,0.0,0.0,0.0,0.0,0.0,0.0,0.0,0.0,0.0,0.0,0.0,0.0,0.0,0.0,0.0,0.0,0.0,0.0,0.0,0.0,0.0,0.0,0.0,0.0,0.0,0.0,0.0,0.0,0.0,0.0,0.0,0.0,0.0,0.0,0.0,0.0,0.0,0.0,0.0,0.0,0.0,0.0,0.0,0.0,0.0,0.0,0.0,0.0,0.0,0.0,0.0,0.0,0.0,0.0,0.0,0.0,0.0,0.0,0.0,0.0,0.0,0.0,0.0,0.0,0.0,0.0,0.0,0.0,0.0,0.0,0.0,0.0,0.0,0.0,0.0,0.0,0.0,0.0,0.0,0.0,0.0,0.0,0.0,0.0,0.0,0.0,0.0,0.0,0.0,0.0,0.0,0.0,0.0,0.0,0.0,0.0,0.0,0.0,0.0,0.0,0.0,0.0,0.0,0.0,0.0,0.0,0.0,0.0,0.0,0.0,0.0,0.0,0.0,0.0,0.0,0.0,0.0,0.0,0.0,0.0,0.0,0.0,0.0,0.0,0.0,0.0,0.0,0.0,0.0,0.0,0.0,0.0,0.0,0.0,0.0,0.0,0.0,0.0,0.0,0.0,0.0,0.0,0.0,0.0,0.0,0.0,0.0,0.0,0.0,0.0,0.0,0.0,0.0,0.0,0.0,0.0,0.0,0.0,0.0,0.0,0.0,0.0,0.0,0.0,0.0,0.0,0.0,0.0,0.0,0.0,0.0,0.0,0.0,0.0,0.0,0.0,0.0,0.0,0.0,0.0,0.0,0.0,0.0,0.0,0.0,0.0,0.0,0.0,0.0,0.0,0.0,0.0,0.0,0.0,0.0,0.0,0.0,0.0,0.0,0.0,0.0,0.0,0.0,0.0,0.0,0.0,0.0,0.0,0.0,0.0,0.0,0.0,0.0,0.0,0.0,0.0,0.0,0.0,0.0,0.0,0.0,0.0,0.0,0.0,0.0,0.0,0.0,0.0,0.0,0.0,0.0,0.0,0.0,0.0,0.0,0.0,0.0,0.0,0.0,0.0,0.0,0.0,0.0,0.0,0.0,0.0,0.0,0.0,0.0,0.0,0.0,0.0,0.0,0.0,0.0,0.0,0.0,0.0,0.0,0.0,0.0,0.0,0.0,0.0,0.0,0.0,0.0,0.0,0.0,0.0,0.0,0.0,0.0,0.0,0.0,0.0,0.0,0.0,0.0,0.0,0.0,0.0,0.0,0.0,0.0,0.0,0.0,0.0,0.0,0.0,0.0,0.0,0.0,0.0,0.0,0.0,0.0,0.0,0.0,0.0,0.0,0.0,0.0,0.0,0.0,0.0,0.0,0.0,0.0,0.0,0.0,0.0,0.0,0.0,0.0,0.0,0.0,0.0,0.0,0.0,0.0,0.0,0.0,0.0,0.0,0.0,0.0,0.0,0.0,0.0,0.0,0.0,0.0,0.0,0.0,0.0,0.0,0.0,0.0,0.0,0.0,0.0,0.0,0.0,0.0,0.0,0.0,0.0,0.0,0.0,0.0,0.0,0.0,0.0,0.0,0.0,0.0,0.0,0.0,0.0,0.0,0.0,0.0,0.0,-3.7663,-3.8291,0.0,0.0,0.0,0.0,0.0,0.0,0.0,0.0,0.0,0.0,0.0,0.0,0.0,0.0,0.0,0.0,0.0,0.0,0.0,0.0,0.0,0.0,0.0,0.0,0.0,0.0,-3.5819,-3.7287,-3.7563,-3.7588,-3.7713,-3.799,-3.799,-3.799,-3.8015,-3.7713,-3.7713,-3.8015,-3.6935,-3.5956,-3.5132,-3.6006,-3.6684,-3.7236,0.0,0.0,0.0,0.0,0.0,0.0,0.0,0.0,0.0,0.0,0.0,0.0,0.0,0.0,0.0,0.0,0.0,0.0,0.0,0.0,0.0,0.0,0.0,0.0,0.0,0.0,0.0,0.0,0.0,0.0,0.0,0.0,0.0,0.0,0.0,0.0,0.0,0.0,0.0,0.0,0.0,0.0,0.0,0.0,0.0,0.0,0.0,0.0,0.0,0.0,0.0,0.0,0.0,0.0,0.0,0.0,0.0,0.0,0.0,0.0,0.0,0.0,0.0,0.0,0.0,0.0,0.0,0.0,0.0,0.0,-3.9421,-3.912,0.0,0.0,0.0,0.0,0.0,0.0,0.0,0.0,0.0,0.0,0.0,0.0,0.0,0.0,0.0,0.0,0.0,0.0,0.0,0.0,0.0,0.0,0.0,-3.2811,-3.3823,-3.5191,-3.6948,-3.804,-3.814,-3.8165,-3.8191,-3.8291,-3.8441,-3.8466,-3.8316,-3.8366,-3.8216,-3.7864,-3.606,-3.5082,-3.4831,-3.5382,-3.5981,-3.6581,0.0,0.0,0.0,0.0,0.0,0.0,0.0,0.0,0.0,0.0,0.0,0.0,0.0,0.0,0.0,0.0,0.0,0.0,0.0,0.0,0.0,0.0,0.0,0.0,0.0,0.0,0.0,0.0,0.0,0.0,0.0,0.0,0.0,0.0,0.0,0.0,0.0,0.0,0.0,0.0,0.0,0.0,0.0,0.0,0.0,0.0,0.0,0.0,0.0,0.0,0.0,0.0,0.0,0.0,0.0,0.0,0.0,0.0,0.0,0.0,0.0,0.0,0.0,0.0,-4.1204,-4.1957,-4.2363,-4.3062,-4.2911,-4.2028,-4.2304,-4.1003,-3.8718,-4.0423,0.0,0.0,0.0,0.0,0.0,0.0,0.0,0.0,0.0,0.0,0.0,0.0,0.0,0.0,0.0,0.0,0.0,0.0,0.0,0.0,0.0,-3.2748,-3.4295,-3.5788,-3.717,-3.8216,-3.8718,-3.8768,-3.8969,-3.9446,-3.7868,-3.7792,-3.9446,-3.7302,-3.6547,-3.7287,-3.5152,-3.4575,-3.5408,-3.6031,-3.6584,-3.7061,-3.6782,0.0,0.0,0.0,0.0,0.0,0.0,0.0,0.0,0.0,0.0,0.0,0.0,0.0,0.0,0.0,0.0,0.0,0.0,0.0,0.0,0.0,0.0,0.0,0.0,0.0,0.0,0.0,0.0,0.0,0.0,0.0,0.0,0.0,0.0,0.0,0.0,0.0,0.0,0.0,0.0,0.0,0.0,0.0,-3.5508,-3.5002,0.0,0.0,0.0,0.0,0.0,0.0,0.0,0.0,0.0,0.0,0.0,0.0,0.0,-4.0275,-4.0623,-4.1781,-4.1932,-4.11,-4.2735,-4.3263,-4.2911,-4.4468,-4.507,-4.502,-4.6426,0.0,-4.0824,-4.0701,0.0,0.0,0.0,0.0,0.0,0.0,0.0,0.0,0.0,0.0,0.0,0.0,0.0,0.0,0.0,0.0,0.0,0.0,0.0,0.0,0.0,-3.3935,-3.532,-3.5935,-3.8674,-3.9923,-3.8944,-4.0075,-4.0478,-3.9722,-3.8557,-3.8457,-3.9672,-3.7962,-3.6628,-3.5805,-3.5152,-3.4881,-3.5056,-3.5608,-3.6207,-3.6757,-3.6505,-3.7236,-3.8693,-3.7965,0.0,0.0,0.0,0.0,0.0,0.0,0.0,0.0,0.0,0.0,0.0,0.0,0.0,0.0,0.0,0.0,0.0,0.0,0.0,0.0,0.0,0.0,0.0,0.0,0.0,0.0,0.0,0.0,0.0,0.0,0.0,0.0,0.0,0.0,0.0,0.0,0.0,0.0,0.0,-3.686,-3.6461,-3.5282,-3.6157,-3.6609,0.0,0.0,0.0,0.0,0.0,0.0,0.0,0.0,0.0,-3.9772,-4.1455,-4.2183,-4.1806,-4.3514,-4.4317,-4.4141,-4.5472,-4.615,-4.6276,-4.7305,-4.7958,-4.8347,-5.0036,-4.9706,-4.7652,-4.4896,-4.3489,-4.3037,0.0,0.0,0.0,0.0,-4.7403,-4.951,0.0,0.0,0.0,0.0,0.0,0.0,0.0,0.0,0.0,0.0,0.0,0.0,-3.3925,-3.5348,-3.6422,-3.7121,-3.9972,-4.1106,-3.9396,-4.0478,-4.0626,-3.9521,-3.8614,-3.8539,-3.9471,-3.8241,-3.6784,-3.5152,-3.5357,-3.5508,-3.5579,-3.6132,-3.6684,-3.726,-3.726,-3.7663,-3.8391,-3.7839,-3.7914,0.0,0.0,0.0,0.0,0.0,0.0,0.0,0.0,0.0,0.0,0.0,0.0,0.0,0.0,0.0,0.0,0.0,0.0,0.0,0.0,0.0,0.0,0.0,0.0,0.0,0.0,0.0,0.0,0.0,0.0,0.0,0.0,0.0,0.0,0.0,0.0,0.0,0.0,-3.7086,-3.7036,-3.5483,-3.6684,-3.7335,0.0,0.0,0.0,0.0,0.0,0.0,-3.9823,-4.0978,-4.1706,-4.1982,-4.3865,-4.4518,-4.3897,-4.5648,-4.6828,-4.738,-4.8309,-4.9063,-4.964,-5.0193,-5.067,-5.1113,-5.2841,-5.3504,-5.316,-4.9473,-4.736,-4.6332,-4.5892,-4.6964,-4.8744,-4.9392,-5.0817,-5.2529,0.0,0.0,0.0,0.0,0.0,0.0,0.0,0.0,0.0,0.0,0.0,-3.2678,-3.6228,-3.6621,-3.765,-4.0065,-4.0473,-4.0551,-4.045,-3.9044,-3.8417,-3.8944,-3.7032,-3.6906,-3.8894,-3.7335,-3.643,-3.6329,-3.578,-3.6285,-3.7864,-3.8442,-3.8994,-3.9521,-3.9521,-3.9546,-3.9471,-3.7387,-3.7688,-3.9521,0.0,0.0,0.0,0.0,0.0,0.0,0.0,0.0,0.0,0.0,0.0,0.0,0.0,0.0,0.0,0.0,0.0,0.0,0.0,0.0,0.0,0.0,0.0,0.0,0.0,0.0,0.0,0.0,0.0,0.0,0.0,0.0,0.0,0.0,0.0,0.0,0.0,0.0,0.0,-3.4901,-3.7136,0.0,0.0,0.0,0.0,-3.9496,-4.0475,-4.1555,-4.271,-4.3815,-4.492,-4.5974,-4.7104,-4.7933,-4.8435,-4.9063,-4.9665,-5.0218,-5.082,-5.1398,-5.195,-5.2503,-5.2779,-5.2872,-5.4545,-5.4971,-5.4425,-5.3166,-5.2901,-5.3178,-5.1627,-5.2017,-5.3319,-5.2407,-5.2093,-5.205,0.0,0.0,0.0,0.0,0.0,0.0,0.0,0.0,-3.2813,-3.4299,-3.4373,-3.5565,-3.8841,-3.9143,-3.9798,-4.148,-4.2233,-4.2333,-4.163,-4.0676,-4.0099,-3.9948,-3.7891,-3.6899,-3.7262,-3.6332,-3.6006,-3.6383,-3.6885,-3.7613,-3.8567,-3.9145,-3.9496,-3.9697,-3.9697,-3.9697,-3.9597,-3.809,-3.7688,-3.8015,-3.7262,-3.7588,0.0,0.0,0.0,0.0,0.0,0.0,0.0,0.0,0.0,0.0,0.0,0.0,0.0,0.0,0.0,0.0,0.0,0.0,0.0,0.0,0.0,0.0,0.0,0.0,0.0,0.0,0.0,0.0,0.0,0.0,0.0,0.0,0.0,0.0,0.0,0.0,0.0,-3.9396,-4.1003,0.0,-4.0727,-4.0526,-4.0827,-4.1731,-4.2183,-4.3338,-4.5547,-4.6351,-4.7405,-4.8912,-4.969,-5.0343,-5.0921,-5.1473,-5.1825,-5.2026,-5.2251,-5.2452,-5.2628,-5.3952,-5.4474,-5.4675,-5.7442,-5.8591,-5.8435,-5.9188,-5.7656,-5.4793,-5.3882,-5.4457,-5.5795,-5.5851,-5.5988,-5.6089,0.0,0.0,0.0,0.0,0.0,0.0,0.0,0.0,-3.4042,-3.5187,-3.5599,-3.6896,-3.9644,-4.03,-4.1028,-4.2363,-4.2936,-4.2861,-4.1932,-4.0651,-3.9848,-3.9672,-3.8065,-3.6759,-3.583,-3.6182,-3.6511,-3.696,-3.7864,-3.8592,-3.917,-3.9521,-3.9798,-3.9973,-3.9973,-4.0074,-4.0199,-3.9446,-3.8492,-3.7412,-3.6908,-3.7764,-3.922,0.0,0.0,0.0,0.0,0.0,0.0,0.0,0.0,0.0,0.0,0.0,0.0,0.0,0.0,0.0,0.0,0.0,0.0,0.0,0.0,0.0,0.0,0.0,0.0,0.0,0.0,0.0,0.0,0.0,0.0,0.0,0.0,0.0,0.0,-3.9295,-4.0877,-4.2564,-4.4016,-4.4644,-4.389,-4.3514,-4.3664,-4.4568,-4.4995,-4.6175,-4.841,-4.9038,-4.9916,-5.1222,-5.2174,-5.2555,-5.2377,-5.3292,-5.3742,-5.3742,-5.3742,-5.4055,-5.4634,-5.5748,-5.6271,-5.644,-5.929,-6.048,-6.06,-6.235,-6.1086,-5.8049,-5.768,-5.8119,-5.9039,-5.9506,-5.9452,-5.9002,0.0,0.0,0.0,0.0,0.0,0.0,0.0,-3.4534,-3.6085,-3.5558,-3.5533,-3.6436,-3.8718,-3.9948,-4.1279,-4.2886,-4.2539,-4.1907,-4.1351,-3.8718,-3.7387,-3.7939,-3.7387,-3.6358,-3.4826,-3.6885,-3.799,-3.804,-3.8617,-3.917,-3.9697,-3.9722,-3.9998,-4.0526,-4.0526,-4.0774,-4.1275,-4.1275,-4.0047,-3.8065,-3.7462,-3.8542,-4.0375,0.0,0.0,0.0,0.0,0.0,0.0,0.0,0.0,0.0,0.0,0.0,0.0,0.0,0.0,0.0,0.0,0.0,0.0,0.0,0.0,0.0,0.0,0.0,0.0,0.0,0.0,0.0,0.0,0.0,0.0,0.0,0.0,0.0,-3.7889,-4.0953,-4.3263,-4.389,-4.5899,-4.6853,-4.5773,-4.6627,-4.7481,-4.7983,-4.9038,-5.0167,-5.1272,-5.185,-5.2377,-5.2973,-5.4474,-5.4608,-5.3042,-5.4608,-5.5419,-5.5485,-5.5485,-5.6402,-5.8005,-5.8068,-5.8068,-5.8194,-5.9872,-6.06,-6.075,-6.2409,-6.3079,-6.3079,-6.3079,-6.3079,-6.3079,-6.3021,-6.191,-6.0176,0.0,0.0,0.0,0.0,0.0,0.0,0.0,-3.2746,-3.4232,-3.5365,-3.6536,-3.8191,-4.0425,-4.2007,-4.3237,-4.4091,-4.2585,-4.1656,-4.1907,-3.8617,-3.6707,-3.6857,-3.5529,-3.5328,-3.6483,-3.7111,-3.7814,-3.8642,-3.9195,-3.9546,-3.9697,-4.0099,-4.0375,-4.0526,-4.0874,-4.115,-4.1275,-4.1275,-4.0924,-4.0247,-3.8944,-3.9019,-3.9798,0.0,0.0,0.0,0.0,0.0,0.0,0.0,0.0,0.0,0.0,0.0,0.0,0.0,0.0,0.0,0.0,0.0,0.0,0.0,0.0,0.0,0.0,0.0,0.0,0.0,0.0,0.0,0.0,0.0,0.0,0.0,-3.8291,-3.9446,-4.0247,-4.2585,-4.497,-4.7154,-4.9038,-5.0017,-4.9715,-4.9967,-5.0193,-5.0343,-5.1021,-5.1724,-5.2427,-5.2628,-5.3318,-5.4675,-5.3987,-5.4567,-5.6596,-5.5814,-5.601,-5.7305,-5.7305,-5.756,-5.8068,-5.9228,-5.9782,-5.9933,-6.1644,-6.235,-6.2409,-6.2875,-6.3079,-6.3079,-6.3079,-6.3079,-6.2933,-6.1703,-6.0116,-5.8418,0.0,0.0,0.0,0.0,0.0,0.0,0.0,-3.171,-3.3094,-3.3616,-3.6001,-3.8241,-3.9772,-4.163,-4.2886,-4.3156,-4.1802,-4.0827,-4.045,-3.809,0.0,0.0,0.0,-3.5881,-3.7161,-3.7638,-3.8442,-3.9572,-3.9873,-4.0149,-4.04,-4.0701,-4.1103,-4.1555,-4.1882,-4.2283,-4.2655,-4.2655,-4.2655,-4.2554,-4.143,-4.1254,-4.1605,-4.0249,-4.0727,-4.1982,-4.0953,-4.1329,-4.2057,-4.0551,0.0,0.0,0.0,0.0,0.0,0.0,0.0,0.0,0.0,0.0,0.0,0.0,0.0,0.0,0.0,0.0,0.0,0.0,0.0,0.0,0.0,0.0,0.0,0.0,-4.0199,-4.1882,-4.3815,-4.5397,-4.723,-4.954,-5.1096,-5.1975,-5.1975,-5.1975,-5.1975,-5.1975,-5.2277,-5.2578,-5.2904,-5.2929,-5.3674,-5.5353,-5.5141,-5.5972,-5.8005,-5.7724,-5.8013,-5.9042,-5.9042,-5.9442,-6.0144,-6.1139,-6.1585,-6.1644,-6.2672,-6.3079,-6.3079,-6.3079,-6.3079,-6.3079,0.0,0.0,0.0,0.0,-5.9872,-5.8918,0.0,0.0,0.0,0.0,0.0,0.0,0.0,-3.0813,-3.2063,-3.1297,-3.4568,-3.7191,-3.7764,-3.9873,-4.1175,-4.11,-4.0526,-3.9471,-3.7914,0.0,0.0,-3.4525,-3.6207,-3.7287,-3.7462,-3.8517,-3.9546,-4.0526,-4.0576,-4.0799,-4.1275,-4.1401,-4.2057,-4.2986,-4.3112,-4.3714,-4.4618,-4.4618,-4.4618,-4.4593,-4.4166,-4.4217,-4.4367,-4.2911,-4.3539,-4.502,-4.3514,-4.2509,-4.1727,-4.0978,0.0,0.0,0.0,0.0,0.0,0.0,0.0,0.0,0.0,0.0,0.0,0.0,0.0,0.0,0.0,0.0,0.0,0.0,0.0,0.0,0.0,0.0,0.0,0.0,-4.2233,-4.3991,-4.7682,-4.8736,-4.969,-5.1197,-5.2302,-5.2929,-5.2929,-5.2929,-5.2929,-5.2929,-5.2929,-5.2929,-5.2929,-5.2929,0.0,0.0,0.0,-5.8005,-5.8571,-5.9872,-6.06,-6.081,-6.081,-6.1585,-6.3079,-6.3079,-6.3079,-6.3079,-6.3079,-6.3079,-6.3079,-6.3079,-6.3079,-6.3079,-6.3079,-6.3021,-6.2613,-6.105,-6.048,-6.048,0.0,0.0,0.0,0.0,0.0,0.0,0.0,-2.8327,-2.9272,-3.0979,-3.3838,-3.599,-3.6661,-3.9069,-4.0501,-4.0049,-3.8668,-3.7513,0.0,0.0,-3.6006,-3.7839,-3.7437,-3.7814,-3.917,-3.9848,-4.03,-4.0526,-4.0899,-4.1175,-4.13,-4.2233,-4.276,-4.3011,-4.3915,-4.4418,-4.4618,-4.4618,-4.4618,-4.4644,-4.502,-4.4669,-4.3915,-4.3614,-4.3463,-4.3413,-4.3087,-4.3991,-4.4995,-4.2635,-4.2886,-4.3765,-4.1304,-3.9446,0.0,0.0,0.0,0.0,0.0,0.0,0.0,0.0,0.0,0.0,0.0,0.0,0.0,0.0,0.0,0.0,0.0,0.0,0.0,-4.2861,-4.492,-4.7054,-4.959,-5.082,-5.1574,-5.19,-5.2528,-5.2929,-5.2929,-5.2929,-5.2929,-5.2929,-5.2929,-5.2929,-5.2929,-5.2929,-5.4325,-5.7432,-5.644,-5.7914,-6.2057,-6.1079,-6.1198,-6.2613,-6.2613,0.0,-6.3079,-6.3079,-6.3079,-6.3079,-6.3079,-6.3079,-6.3079,-6.3079,-6.3079,-6.3079,-6.3079,-6.2233,-6.093,-6.06,-6.048,-6.048,0.0,0.0,0.0,0.0,0.0,0.0,0.0,-2.7173,-2.8049,-2.9235,-3.244,-3.4655,-3.5011,-3.7319,-3.8617,-3.8065,-3.701,-3.6257,0.0,-3.6207,-3.6985,-3.8391,-3.8693,-3.9371,-4.0501,-4.0724,-4.1204,-4.1756,-4.2032,-4.2434,-4.293,-4.3539,-4.3966,-4.4267,-4.4819,-4.5221,-4.5472,-4.5472,-4.5472,-4.5497,-4.5773,-4.5723,-4.5472,-4.5472,-4.5296,-4.5045,-4.5045,-4.5045,-4.4794,-4.3137,-4.276,-4.266,-4.0727,-3.9346,-3.8442,0.0,0.0,0.0,0.0,0.0,0.0,0.0,0.0,0.0,0.0,0.0,0.0,0.0,0.0,-3.9195,-4.03,0.0,-4.3313,-4.5497,-4.728,-4.9038,-5.0996,-5.1749,-5.2201,-5.2477,-5.2754,-5.2929,-5.2929,-5.2929,-5.2929,-5.2929,-5.2929,-5.2929,-5.2929,-5.2929,-5.4459,-5.7878,-5.6337,-5.7914,-6.3079,-6.1377,-6.1377,-6.3079,-6.3079,-6.3079,-6.3079,-6.3079,-6.3079,-6.3079,-6.3079,-6.3079,-6.3021,-6.2175,-6.1762,-6.1733,-6.141,-6.1498,-6.1703,-6.081,-6.105,-6.1615,0.0,0.0,0.0,0.0,0.0,0.0,0.0,-2.6572,-2.7315,-2.76,-3.0866,-3.3197,-3.3219,-3.5299,-3.6533,-3.6128,-3.573,0.0,0.0,-3.7262,-3.8241,-3.8793,-4.0099,-4.1153,-4.1752,-4.1752,-4.2258,-4.3137,-4.3363,-4.3915,-4.4794,-4.4895,-4.5271,-4.5799,-4.5799,-4.61,-4.6627,-4.6627,-4.6627,-4.6627,-4.6627,-4.6954,-4.7431,-4.733,-4.723,-4.7068,-4.7068,-4.5547,-4.3438,-4.3087,-4.1882,-4.0375,-3.9597,-3.912,-3.8793,-3.8442,-3.8517,0.0,0.0,0.0,0.0,0.0,0.0,0.0,0.0,-3.6235,-3.696,-3.9069,-4.0375,-4.163,-4.3187,-4.4819,-4.6451,-4.7983,-4.9264,-5.0569,-5.1925,-5.2201,-5.2427,-5.2879,-5.2929,-5.2929,-5.2929,-5.2929,-5.2929,-5.2929,-5.2929,-5.2929,-5.2929,-5.2929,-5.4325,-5.7432,-5.6141,-5.7724,-6.2555,-6.1198,-6.1377,-6.3079,-6.2759,-6.2759,-6.3079,-6.2759,-6.2759,-6.3079,-6.273,-6.2613,-6.2497,-6.105,-6.069,-6.0932,-6.0293,-6.1263,-6.2903,-6.1233,-6.1616,-6.2607,0.0,0.0,0.0,0.0,0.0,0.0,0.0,0.0,-2.6352,-2.7458,-2.9745,-3.134,-3.149,-3.3555,-3.4977,-3.4901,0.0,0.0,-3.7638,-3.7914,-3.912,-4.1634,-4.1936,-4.2459,-4.3514,-4.3539,-4.3589,-4.3714,-4.4719,-4.5271,-4.5397,-4.5899,-4.6426,-4.6892,-4.6892,-4.723,-4.7732,-4.7732,-4.7732,-4.7732,-4.7732,-4.8083,-4.8535,-4.8008,-4.7531,-4.7068,-4.7068,-4.507,-4.2464,-4.2891,-4.1882,-4.0576,-4.0953,-4.0049,-3.8994,-3.9371,-3.7487,-3.5579,-3.691,-3.6207,-3.5107,-3.5332,-3.5082,-3.5454,0.0,-3.8868,-3.9722,-4.1483,-4.266,-4.379,-4.4995,-4.6527,-4.8033,-4.9213,-5.077,-5.19,-5.2076,-5.2528,-5.2854,-5.2929,-5.2929,-5.2929,-5.2929,-5.2929,-5.2929,-5.2929,-5.2929,-5.2929,-5.2929,-5.2929,-5.3742,-5.5617,-5.5485,-5.7122,-6.075,-6.06,-6.1377,-6.3079,-6.1525,-6.1585,-6.3079,-6.1525,-6.1644,-6.2991,-6.1437,-6.081,-6.081,-6.06,-6.1377,-6.2758,-6.2102,-6.2366,-6.2929,-6.1506,-6.1503,-6.2181,0.0,0.0,0.0,0.0,0.0,0.0,0.0,0.0,0.0,-2.6428,-2.8242,-2.9771,-3.0514,-3.3074,-3.468,0.0,0.0,0.0,-3.8391,-3.912,-4.0425,-4.259,-4.3237,-4.3966,-4.4769,-4.4443,-4.4769,-4.5748,-4.5899,-4.6276,-4.6903,-4.7129,-4.7355,-4.7581,-4.7581,-4.7707,-4.7908,-4.7908,-4.7908,-4.7908,-4.7908,-4.8058,-4.8184,-4.7305,-4.6225,-4.5246,-4.5547,-4.394,0.0,0.0,-4.0601,-4.0023,-3.9923,-3.9195,-3.8417,-3.8642,-3.7739,-3.6584,-3.6307,-3.6182,-3.5981,-3.5207,-3.6107,-3.7513,-3.9019,-4.0275,-4.1605,-4.3263,-4.497,-4.6527,-4.7657,-4.9238,-5.0494,-5.0971,-5.1925,-5.2578,-5.2578,-5.2503,-5.2201,-5.1548,-5.1473,-5.185,-5.2829,-5.2929,-5.2929,-5.2929,-5.2929,-5.2929,-5.2929,-5.2929,-5.3674,-5.5353,-5.4407,-5.6076,-6.048,-5.8516,-5.8918,-6.1585,-6.087,-6.087,-6.1585,-6.081,-6.0387,-6.0083,-5.938,-5.9042,-5.9042,-5.9042,-6.0055,-6.1526,-6.0882,-6.1613,-6.2959,-6.2032,-6.1852,-6.2091,0.0,0.0,0.0,0.0,0.0,0.0,0.0,0.0,0.0,0.0,-2.7648,-2.954,-3.1275,-3.3384,-3.4776,0.0,0.0,0.0,0.0,-3.9446,-4.0877,-4.2715,-4.3966,0.0,-4.5924,-4.5673,-4.6125,-4.7355,-4.7104,-4.738,-4.8159,-4.8159,-4.8234,-4.836,-4.8209,-4.8309,-4.8586,-4.8435,-4.846,-4.8586,-4.8259,-4.7958,-4.7531,-4.615,-4.4593,-4.3187,-4.374,-4.2233,0.0,0.0,-3.917,-3.8768,-3.8668,-3.8341,-3.7965,-3.7814,-3.7563,-3.701,-3.5458,-3.5906,-3.6508,-3.5629,-3.7262,-3.9371,-4.0375,-4.2007,-4.3714,-4.5221,-4.7054,-4.8636,-4.9439,-5.072,-5.1649,-5.1649,-5.2226,-5.2653,-5.2503,-5.2,-5.1222,-5.0092,-4.969,-5.0042,-5.1423,-5.2101,-5.2528,-5.2678,-5.2854,-5.2929,-5.2929,-5.2929,-5.3674,-5.5353,-5.4231,-5.5578,-5.981,-5.7823,-5.8076,-6.048,-6.048,-6.048,-6.048,-6.048,-5.9626,-5.8005,-5.8509,-5.8669,-5.8669,-5.8669,-5.9688,-6.114,-6.05,-6.1409,-6.2989,-6.2331,-6.2091,-6.2091,0.0,0.0,0.0,0.0,0.0,0.0,0.0,0.0,0.0,0.0,0.0,0.0,0.0,0.0,0.0,0.0,0.0,0.0,0.0,-3.8291,-3.995,-4.2137,-4.374,-4.5397,-4.6993,-4.7556,-4.7832,-4.7883,-4.8435,-4.8711,-4.8736,-4.8736,-4.9038,-4.9515,-4.8987,-4.9339,-5.0318,-4.9766,-4.9841,-5.0243,-4.9163,-4.8109,-4.6928,-4.4719,-4.2861,-4.1426,-4.2032,0.0,0.0,0.0,-3.7863,-3.6681,-3.7688,-3.8015,-3.7889,-3.7362,-3.6458,-3.5332,-3.4248,-3.4705,-3.5784,-3.686,-3.8391,-4.0224,-4.2384,-4.4593,-4.6502,-4.7581,-4.8736,-4.9565,-4.959,-5.0067,-5.0469,-5.0469,-5.1398,-5.195,-5.1398,-5.082,-5.0067,-4.8962,-4.7883,-4.7456,-4.8008,-5.0042,-5.1548,-5.2101,-5.2628,-5.2929,-5.2929,-5.2929,-5.3674,-5.5353,-5.5353,-5.6206,-5.8068,-5.9598,-6.0419,-6.048,-6.048,-6.048,-6.048,-6.048,-5.9626,-5.8068,-5.9749,-6.0419,-6.0419,-6.0419,-6.1466,-6.2931,-6.2274,-6.2423,-6.2989,-6.2331,-6.2091,-6.2091,0.0,0.0,0.0,0.0,0.0,0.0,0.0,0.0,0.0,0.0,0.0,0.0,0.0,0.0,0.0,0.0,0.0,0.0,0.0,-3.8793,-4.0074,-4.1555,-4.3187,-4.4694,-4.6024,-4.6225,-4.6828,-4.7908,-4.8109,-4.8209,-4.8209,-4.8962,-4.9213,-4.9063,-4.9615,-5.0067,-5.0419,-5.0218,-4.9816,-4.9238,-4.8134,-4.6803,-4.5296,-4.3815,-4.1781,-3.9722,0.0,0.0,0.0,0.0,-3.5981,-3.5755,-3.5403,-3.5529,-3.5805,-3.5604,-3.5805,-3.5931,-3.5203,-3.6609,-3.8467,-3.922,-4.1204,-4.3363,-4.4844,-4.6627,-4.7933,-4.7908,-4.8209,-4.836,-4.8033,-4.8109,-4.8485,-4.9213,-5.0268,-5.1046,-5.1247,-5.1423,-5.0569,-4.7983,-4.7657,-4.728,-4.6376,-4.8309,-5.0167,-5.1448,-5.2076,-5.2528,-5.2904,-5.2929,-5.3179,-5.3742,-5.3742,-5.5141,-5.8005,-5.7405,-5.8265,-6.048,-6.048,-6.048,-6.048,-6.048,-5.9626,-5.8005,-5.8634,-5.9475,-6.048,-6.048,-6.1525,-6.3049,-6.2839,-6.2869,-6.3049,-6.2839,-6.275,-6.275,0.0,0.0,0.0,0.0,0.0,0.0,0.0,0.0,0.0,0.0,0.0,0.0,0.0,0.0,0.0,0.0,0.0,0.0,0.0,0.0,-3.9295,-4.04,-4.1856,-4.3137,-4.4267,-4.4493,-4.5196,-4.6426,-4.6426,-4.6527,-4.6753,-4.7481,-4.7631,-4.733,-4.8259,-4.8761,-4.8937,-4.8736,-4.836,-4.7757,-4.625,-4.4769,-4.3288,-4.1781,-3.9973,0.0,0.0,0.0,0.0,0.0,-3.5207,-3.5307,-3.4248,-3.3997,-3.4173,-3.4374,-3.5203,-3.6132,-3.6358,-3.8316,-4.0551,-4.1706,-4.3614,-4.5573,-4.6878,-4.8008,-4.851,-4.7531,-4.733,-4.6928,-4.5598,-4.5196,-4.5497,-4.6778,-4.7757,-4.8812,-5.0193,-5.0343,-4.9615,-4.7631,-4.7179,-4.6702,-4.5874,-4.7405,-4.9088,-5.0569,-5.1574,-5.2251,-5.2628,-5.2829,-5.3179,-5.381,-5.381,-5.5141,-5.8005,-5.7469,-5.8641,-6.1437,-6.081,-6.048,-6.048,-6.048,-5.9933,-5.8946,-5.9565,-6.0448,-6.1437,-6.1437,-6.2086,-6.3079,-6.3079,-6.3079,-6.3079,-6.3079,-6.3079,-6.3079,0.0,0.0,0.0,0.0,0.0,0.0,0.0,0.0,0.0,0.0,0.0,0.0,0.0,0.0,0.0,0.0,0.0,0.0,0.0,0.0,0.0,-3.8793,-3.9848,-4.0927,-4.2062,-4.2615,-4.3112,-4.3664,-4.3689,-4.3966,-4.4443,-4.4518,-4.4518,-4.4518,-4.5121,-4.5698,-4.62,-4.5673,-4.5723,-4.5949,-4.3765,-4.2233,-4.0924,-3.8868,0.0,0.0,0.0,0.0,0.0,-3.5508,-3.5458,-3.5232,-3.4198,-3.352,-3.3244,-3.3847,-3.4826,-3.6034,-3.7764,-3.9823,-4.1978,-4.4217,-4.5573,-4.6803,-4.8335,-4.8661,-4.8159,-4.6476,-4.6024,-4.5095,-4.2464,-4.1505,-4.1731,-4.3438,-4.4267,-4.5673,-4.846,-4.7983,-4.7506,-4.7933,-4.6627,-4.5899,-4.6376,-4.738,-4.846,-4.9565,-5.1147,-5.2076,-5.2151,-5.2628,-5.3606,-5.5247,-5.5353,-5.6271,-5.8005,-5.9749,-6.1437,-6.3079,-6.1437,-6.06,-6.06,-6.06,-6.06,-6.075,-6.235,-6.3079,-6.3079,-6.3079,-6.3079,-6.3079,-6.3079,-6.3079,-6.3079,-6.3079,-6.3079,-6.3079,0.0,0.0,0.0,0.0,0.0,0.0,0.0,0.0,0.0,0.0,0.0,0.0,0.0,0.0,0.0,0.0,0.0,0.0,0.0,0.0,0.0,0.0,0.0,0.0,0.0,0.0,0.0,0.0,0.0,-4.2434,-4.2153,-4.3011,-4.3162,-4.2836,-4.379,-4.4543,-4.5045,-4.4895,-4.4443,-4.3714,0.0,-4.0852,-3.9446,0.0,0.0,0.0,0.0,0.0,0.0,-3.5633,-3.4956,-3.4198,-3.3495,-3.347,-3.3947,-3.5374,-3.681,-3.8467,-4.0603,-4.2409,-4.4159,-4.605,-4.7004,-4.7506,-4.7531,-4.723,-4.6351,-4.4267,-4.2183,-4.03,-3.8743,-3.8668,-3.9672,-4.2213,-4.4443,-4.6853,-4.9615,-5.0117,-4.9967,-4.9238,-4.8786,-4.8435,-4.8159,-4.8761,-4.9464,-5.0142,-5.0996,-5.185,-5.2678,-5.2854,-5.311,-5.3538,-5.4742,-5.6271,-5.8005,-6.0959,-6.2672,-6.3079,-6.2672,-6.2438,-6.2438,-6.2438,-6.2438,-6.2497,-6.2875,-6.3079,-6.3079,-6.3079,-6.3079,-6.3079,-6.3079,-6.3079,-6.3079,-6.3079,-6.3079,-6.3079,0.0,0.0,0.0,0.0,0.0,0.0,0.0,0.0,0.0,0.0,0.0,0.0,0.0,0.0,0.0,0.0,0.0,0.0,0.0,0.0,0.0,0.0,0.0,0.0,0.0,0.0,0.0,0.0,0.0,0.0,0.0,-4.0626,-4.0626,-4.0375,-4.1505,-4.2183,-4.2484,0.0,0.0,0.0,0.0,0.0,0.0,0.0,0.0,0.0,0.0,0.0,0.0,-3.5332,-3.458,-3.3972,-3.4419,-3.4901,-3.568,-3.7337,-3.907,-4.0779,-4.271,-4.4443,-4.6075,-4.7506,-4.7883,-4.7581,-4.6326,-4.5598,-4.4242,-4.083,-3.8894,-3.7407,-3.6228,-3.613,-3.7255,-4.0491,-4.2734,-4.5271,-4.851,-4.9665,-5.0218,-5.0318,-5.0343,-5.0218,-4.9891,-5.0368,-5.082,-5.1122,-5.1473,-5.1925,-5.2528,-5.2804,-5.2929,-5.2929,-5.4801,-5.7012,-5.9555,-6.1879,-6.3079,-6.3079,-6.3079,-6.3079,-6.3079,-6.3079,-6.3079,-6.3079,-6.3079,-6.3079,-6.3079,-6.3079,-6.3079,-6.3079,-6.3079,-6.3079,-6.3079,-6.3079,-6.3079,-6.3079,0.0,0.0,0.0,0.0,0.0,0.0,0.0,0.0,0.0,0.0,0.0,0.0,0.0,0.0,0.0,0.0,0.0,0.0,0.0,0.0,0.0,0.0,0.0,0.0,0.0,0.0,0.0,0.0,0.0,0.0,0.0,0.0,0.0,0.0,0.0,0.0,0.0,0.0,0.0,0.0,0.0,0.0,0.0,0.0,0.0,0.0,0.0,0.0,0.0,0.0,-3.4726,-3.46,-3.6153,-3.7061,-3.7965,-3.9722,-4.1304,-4.2916,-4.4593,-4.6125,-4.7506,-4.8611,-4.8284,-4.7129,-4.4995,-4.3815,-4.1861,-3.7278,-3.6138,-3.5596,-3.4538,-3.427,-3.5372,-3.8986,-4.0671,-4.2927,-4.6878,-4.8159,-4.9339,-5.1172,-5.1322,-5.1348,-5.1498,-5.2102,-5.2472,-5.2201,-5.2405,-5.2472,-5.2201,-5.2678,-5.311,-5.3563,-5.5788,-5.8494,-6.1678,-6.2647,-6.3079,-6.3079,-6.3079,-6.3079,-6.3079,-6.3079,-6.3079,-6.3079,-6.3079,-6.3079,-6.3079,-6.3079,-6.3079,-6.3079,-6.3079,-6.3079,-6.3079,-6.3079,-6.3079,-6.3079,0.0,0.0,0.0,0.0,0.0,0.0,0.0,0.0,0.0,0.0,0.0,0.0,0.0,0.0,0.0,0.0,0.0,0.0,0.0,0.0,0.0,0.0,0.0,0.0,0.0,0.0,0.0,0.0,0.0,0.0,0.0,0.0,0.0,0.0,0.0,0.0,0.0,0.0,0.0,0.0,0.0,0.0,0.0,0.0,0.0,0.0,0.0,0.0,0.0,0.0,-3.6684,-3.6734,-3.7487,-3.8743,-4.035,-4.2459,-4.3614,-4.4644,-4.6778,-4.7556,-4.8033,-4.9163,-4.8008,-4.6125,-4.4342,-4.1756,-3.907,-3.6658,-3.4715,-3.3462,-3.3577,-3.4784,-3.6688,-3.9695,-4.1565,-4.4142,-4.8536,-4.8535,-4.9038,-5.1649,-5.1548,-5.1649,-5.2553,-5.3958,-5.4278,-5.2847,-5.4035,-5.4211,-5.2847,-5.2879,-5.419,-5.7048,-5.8815,-6.0802,-6.2792,-6.2993,-6.3079,-6.3079,-6.3079,-6.3079,-6.3079,-6.3079,-6.3079,-6.3079,-6.3079,-6.3079,-6.3079,-6.3079,-6.3079,-6.3079,-6.3079,-6.3079,-6.3079,-6.3079,-6.3079,-6.3079,0.0,0.0,0.0,0.0,0.0,0.0,0.0,0.0,0.0,0.0,-3.9346,-3.8994,0.0,0.0,0.0,0.0,0.0,0.0,0.0,0.0,0.0,0.0,0.0,0.0,0.0,0.0,-3.6681,-3.7211,0.0,-3.6983,-3.804,-3.7462,-3.7487,-3.8015,0.0,0.0,0.0,0.0,0.0,0.0,0.0,0.0,0.0,0.0,0.0,0.0,0.0,0.0,0.0,0.0,-3.7387,-3.7814,-3.8944,-4.0249,-4.1806,-4.4016,-4.5271,-4.6351,-4.8259,-4.9213,-4.9715,-4.9967,-4.8159,-4.559,-4.299,-3.9931,-3.6839,-3.4095,-3.2935,-3.2505,-3.2928,-3.4413,-3.6211,-3.8113,-3.967,-4.1931,-4.5674,-4.6451,-4.7782,-5.087,-5.1523,-5.2026,-5.2854,-5.3606,-5.3742,-5.2998,-5.4433,-5.5049,-5.4231,-5.5075,-5.6888,-5.9736,-6.0287,-6.1464,-6.3558,-6.3228,-6.3079,-6.3079,-6.3079,-6.3079,-6.3079,-6.3079,-6.3079,-6.3079,-6.3079,-6.3079,-6.3079,-6.3079,-6.3079,-6.3079,-6.3079,-6.3079,-6.3079,-6.3079,-6.3079,-6.3079,0.0,0.0,0.0,0.0,0.0,0.0,0.0,-3.7086,-3.7613,-4.0651,-4.158,-4.1383,-3.9597,-3.8165,0.0,0.0,0.0,0.0,0.0,0.0,0.0,0.0,0.0,0.0,0.0,0.0,0.0,-3.7839,-3.696,0.0,0.0,0.0,0.0,0.0,-3.8843,-3.9095,-3.9069,0.0,0.0,0.0,0.0,-3.8768,0.0,0.0,0.0,0.0,0.0,0.0,0.0,0.0,-3.7462,-3.809,-3.9521,-4.0978,-4.2564,-4.4392,-4.5899,-4.7305,-4.8962,-5.0243,-5.1012,-5.0735,-4.8308,-4.5168,-4.2264,-3.8774,-3.5302,-3.2299,-3.1915,-3.2219,-3.2533,-3.378,-3.5155,-3.6374,-3.7537,-3.9369,-4.2549,-4.4317,-4.6527,-4.9841,-5.1529,-5.2557,-5.2854,-5.3563,-5.381,-5.3495,-5.5314,-5.631,-5.601,-5.7596,-5.942,-6.1257,-6.1131,-6.1938,-6.3797,-6.3318,-6.3079,-6.3079,-6.3079,-6.3079,-6.3079,-6.3079,-6.3079,-6.3079,-6.3079,-6.3079,-6.3079,-6.3079,-6.3079,-6.3079,-6.3079,-6.3079,-6.3079,-6.3079,-6.3079,-6.3079,0.0,0.0,0.0,0.0,0.0,0.0,0.0,-3.7186,-3.8467,-4.2258,-4.1982,-4.1275,-4.1075,-4.0526,0.0,0.0,0.0,0.0,0.0,0.0,0.0,0.0,0.0,0.0,0.0,0.0,0.0,-3.7262,-3.7161,0.0,0.0,0.0,0.0,0.0,0.0,-3.9622,-3.9622,-3.9672,0.0,0.0,0.0,0.0,0.0,0.0,0.0,0.0,0.0,-3.6832,-3.643,-3.6985,-3.7211,-3.7387,-3.804,-4.0049,-4.2363,-4.3067,-4.4719,-4.6753,-4.841,-4.9665,-5.067,-5.1476,-4.8163,-4.4464,-4.3355,-3.9122,-3.4963,-3.3489,-3.2854,-3.2569,-3.2585,-3.3209,-3.4268,-3.5907,-3.6744,-3.8558,-4.2448,-4.3966,-4.5949,-4.9264,-5.2039,-5.3413,-5.2941,-5.5709,-5.6855,-5.5287,-5.8202,-5.9352,-5.7878,-5.9352,-6.0387,-6.0566,-6.2057,-6.2963,-6.3169,-6.3109,-6.3079,-6.3079,-6.3079,-6.3079,-6.3079,-6.3079,-6.3079,-6.3079,-6.3079,-6.3079,-6.3079,-6.3079,-6.3079,-6.3079,-6.3079,-6.3079,-6.3079,-6.3079,-6.3079,-6.3079,0.0,0.0,0.0,0.0,0.0,0.0,0.0,-3.691,-3.8216,-4.2434,-4.3489,-4.3589,-4.2886,-4.2635,0.0,0.0,0.0,0.0,0.0,0.0,0.0,0.0,0.0,0.0,0.0,0.0,-3.6832,-3.7688,-3.7337,0.0,0.0,0.0,0.0,0.0,0.0,-3.9697,-3.9697,-3.9697,0.0,0.0,0.0,0.0,0.0,0.0,0.0,0.0,0.0,0.0,-3.6784,-3.6358,-3.6207,-3.6107,-3.568,-3.6759,-3.8668,-4.1254,-4.3564,-4.5723,-4.7707,-4.9565,-5.1089,-5.169,-4.7897,-4.4024,-4.3752,-3.8657,-3.3742,-3.3046,-3.2318,-3.1756,-3.1756,-3.2454,-3.3219,-3.3991,-3.4079,-3.5219,-3.8566,-4.0236,-4.2769,-4.7065,-4.9822,-5.1727,-5.2815,-5.4122,-5.5075,-5.5353,-5.6699,-5.8013,-5.9413,-6.1139,-6.2028,-6.2028,-6.2759,-6.3079,-6.3079,-6.3079,-6.3079,-6.3079,-6.3079,-6.3079,-6.3079,-6.3079,-6.3079,-6.3079,-6.3079,-6.3079,-6.3079,-6.3079,-6.3079,-6.3079,-6.3079,-6.3079,-6.3079,-6.3079,-6.3079,-6.3079,0.0,0.0,0.0,0.0,0.0,0.0,-3.5533,-3.5784,-3.7245,-4.1652,-4.3438,-4.4141,-4.384,-4.3062,-4.1229,-3.7889,0.0,0.0,0.0,0.0,0.0,0.0,0.0,0.0,0.0,0.0,-3.7061,-3.8015,-3.7789,-3.8366,0.0,0.0,-3.932,-3.9697,0.0,0.0,0.0,0.0,0.0,0.0,0.0,0.0,0.0,0.0,0.0,0.0,0.0,0.0,0.0,0.0,0.0,-3.5132,-3.4374,0.0,0.0,0.0,-4.1656,-4.4174,-4.69,-4.9226,-5.1164,-5.189,-4.8193,-4.4335,-4.384,-3.8541,-3.3523,-3.2737,-3.1865,-3.1119,-3.0846,-3.1341,-3.1846,0.0,0.0,-3.2838,-3.5747,-3.7595,-4.0382,-4.5075,-4.7607,-5.0019,-5.2684,-5.3834,-5.4701,-5.5353,-5.6375,-5.7949,-6.0359,-6.2175,-6.3079,-6.3079,-6.3079,-6.3079,-6.3079,-6.3079,-6.3079,-6.3079,-6.3079,-6.3079,-6.3079,-6.3079,-6.3079,-6.3079,-6.3079,-6.3079,-6.3079,-6.3079,-6.3079,-6.3079,-6.3079,-6.3079,-6.3079,-6.3079,-6.3079,-6.3079,0.0,0.0,0.0,0.0,0.0,0.0,0.0,-3.3574,-3.5527,-3.9942,-4.0974,-4.1952,-4.3614,-4.1379,-3.9948,-4.0425,0.0,0.0,0.0,0.0,0.0,0.0,0.0,0.0,0.0,0.0,-3.7437,-3.8015,-3.8567,-3.9145,-3.9697,-3.9697,-3.9697,-3.9697,0.0,0.0,0.0,0.0,0.0,0.0,0.0,0.0,0.0,0.0,0.0,0.0,0.0,0.0,0.0,0.0,0.0,0.0,0.0,-3.3972,-3.3589,0.0,-3.8768,-4.2157,-4.5904,-4.8532,-5.0575,-5.22,-4.9262,-4.5497,-4.3691,-3.9129,-3.4754,-3.298,-3.1865,-3.0932,-3.0011,-2.9818,-3.0019,-3.0532,0.0,0.0,-3.5107,-3.696,-3.9474,-4.3415,-4.5896,-4.8744,-5.2732,-5.6053,-5.7213,-5.5551,-5.8516,-6.048,-6.048,-6.2175,-6.3079,-6.3079,-6.3079,-6.3079,-6.3079,-6.3079,-6.3079,-6.3079,-6.3079,-6.3079,-6.3079,-6.3079,-6.3079,-6.3079,-6.3079,-6.3079,-6.3079,-6.3079,-6.3079,-6.3079,-6.3079,-6.3079,-6.3079,-6.3079,-6.3079,-6.3079,0.0,0.0,0.0,0.0,0.0,0.0,0.0,-3.2321,-3.3659,-3.7691,-3.9069,-4.0425,-4.2459,-4.0902,-3.9923,-4.0475,0.0,0.0,0.0,0.0,0.0,0.0,0.0,0.0,0.0,0.0,-3.7462,-3.8015,-3.8592,-3.9145,-3.9697,-3.9697,-3.9697,-3.9697,-3.9697,-3.9697,0.0,0.0,0.0,0.0,0.0,0.0,-3.9647,0.0,0.0,0.0,0.0,0.0,0.0,0.0,0.0,0.0,0.0,0.0,0.0,-3.4572,-3.7246,-3.991,-4.1426,-4.3671,-4.5754,-4.6494,-4.3994,-4.1183,-4.0492,-3.6844,-3.3203,-3.1914,-3.0921,-3.0343,-3.0696,-3.0254,-3.0854,-3.4018,-3.3446,0.0,-3.6467,-3.8527,-4.1248,-4.5156,-4.9896,-5.3296,-5.4517,-5.459,-5.5274,-5.7048,-5.7085,-5.8013,-6.0359,-6.099,-6.1851,-6.3079,-6.3079,-6.2555,-6.1318,-6.2497,-6.1939,-5.9655,-6.0779,-6.1318,-6.1318,-6.1318,-6.1969,-6.3079,-6.3079,-6.3079,-6.3079,-6.3079,-6.3079,-6.3079,-6.3079,-6.3079,-6.3079,-6.3079,-6.3079,-6.3079,0.0,0.0,0.0,0.0,0.0,0.0,0.0,-3.1191,-3.2426,-3.6091,-3.7186,-3.8693,-4.153,-3.9798,-3.8994,-4.04,0.0,0.0,0.0,0.0,0.0,0.0,0.0,0.0,0.0,-3.6958,-3.7764,-3.8944,-3.9722,-4.0453,-4.0927,-4.1354,-4.0877,-3.9722,-4.0124,-3.9973,0.0,0.0,0.0,0.0,0.0,0.0,-3.9346,0.0,0.0,0.0,0.0,0.0,0.0,0.0,0.0,0.0,0.0,0.0,0.0,0.0,-3.6022,-3.8288,-3.9545,-4.1452,-4.3139,-4.3559,-4.1852,-3.9779,-3.8964,-3.5826,-3.2809,-3.1907,-3.0696,-3.0101,-3.1044,-3.0419,-3.092,-3.441,-3.3741,-3.3757,-3.6619,-3.8705,-4.1369,-4.5239,-5.1475,-5.4853,-5.3348,-5.4181,-5.5141,-5.6037,-5.6271,-5.7341,-5.9413,-6.0176,-6.099,-6.2086,-6.2086,-6.1258,-5.9536,-6.0658,-6.0387,-5.8946,-5.9994,-6.087,-6.1466,-6.1466,-6.2086,-6.3079,-6.3079,-6.3079,0.0,-6.3079,-6.3079,-6.3079,-6.3079,-6.3079,-6.3079,-6.3079,-6.3079,-6.3079,0.0,0.0,0.0,0.0,0.0,0.0,0.0,0.0,0.0,0.0,-3.5433,-3.6837,-4.0523,-3.8216,-3.7461,0.0,0.0,0.0,0.0,0.0,0.0,0.0,0.0,0.0,0.0,-3.6958,-3.8216,-4.035,-4.153,-4.2439,-4.2936,-4.4091,-4.2911,-3.9848,-4.0877,-4.0425,0.0,0.0,0.0,0.0,-3.9496,-3.9371,0.0,0.0,0.0,0.0,0.0,0.0,0.0,0.0,0.0,0.0,0.0,0.0,0.0,0.0,0.0,0.0,0.0,-4.1085,-4.2029,-4.2595,-4.1863,-4.0457,-3.8531,-3.5776,0.0,-3.2739,-3.1193,-3.0318,-3.1373,-3.0634,-3.0648,-3.2844,-3.2813,-3.3429,-3.6093,-3.8236,-4.0987,-4.4827,-5.15,-5.4266,-5.05,-5.4666,-5.6428,-5.3495,-5.6103,-5.7878,-5.8005,-5.9475,-6.0298,-6.0176,-6.0176,-5.9413,-5.7815,-5.7941,-5.8731,-6.0176,-6.0298,-6.1258,-6.2933,-6.2933,-6.2991,-6.3079,-6.3079,-6.3079,-6.3079,-6.3079,-6.3079,-6.3079,-6.3079,-6.3079,-6.3079,-6.3079,-6.3079,-6.3079,0.0,0.0,0.0,0.0,0.0,0.0,0.0,0.0,0.0,0.0,0.0,-3.5579,-3.7337,-3.6883,0.0,0.0,0.0,0.0,0.0,0.0,0.0,0.0,0.0,0.0,0.0,-3.6958,-3.7638,-3.8592,-4.0576,-4.1806,-4.2439,-4.3915,-4.3256,-4.0899,-4.1175,-4.0425,0.0,0.0,0.0,0.0,-3.9647,-3.9371,0.0,0.0,0.0,0.0,-3.6857,-3.6606,0.0,0.0,0.0,0.0,0.0,0.0,0.0,0.0,-3.4551,-3.4683,-3.6881,0.0,-3.7801,-3.7425,-3.7105,-3.6577,0.0,-3.4445,-3.3668,-3.2763,-3.2236,-3.2536,-3.4502,-3.268,-3.2718,-3.8418,-3.7223,-3.6362,-3.8708,-4.3709,-4.8344,-5.1692,-5.526,-5.6879,-5.5366,-5.4564,-5.4835,-5.6661,-5.6337,-5.6569,-5.7941,-5.8383,-5.7977,-5.6634,-5.6634,-5.644,-5.601,-5.7341,-5.7533,-5.6634,-5.7977,-5.9503,-6.111,-6.111,-6.1851,-6.3079,-6.3079,-6.3079,-6.3079,-6.3079,-6.3079,-6.3079,-6.3079,-6.3079,-6.3079,-6.3079,-6.3079,-6.3079,0.0,0.0,0.0,0.0,0.0,0.0,0.0,0.0,0.0,0.0,0.0,0.0,0.0,0.0,0.0,0.0,0.0,0.0,0.0,0.0,0.0,0.0,0.0,0.0,-3.6405,-3.6707,-3.7688,-3.9495,-4.0699,-4.2158,-4.3714,-4.4593,-4.3564,-4.0874,-4.0097,-3.9471,-3.8969,-3.9471,-3.9546,-3.9346,-3.9597,0.0,0.0,0.0,0.0,0.0,-3.6606,-3.6207,0.0,-3.6329,-3.5629,-3.468,0.0,0.0,0.0,0.0,-3.4834,-3.5004,-3.5822,-3.6267,-3.6477,-3.6387,-3.6178,-3.5866,-3.5633,0.0,0.0,-3.3359,-3.2876,-3.3135,-3.4765,-3.2963,-3.2833,-3.7957,-3.7075,-3.7183,-4.1469,-4.5809,-4.9958,-5.366,-5.5501,-5.6422,-5.6303,-5.4958,-5.45,-5.5604,-5.5512,-5.5814,-5.679,-5.6855,-5.6375,-5.5419,-5.4675,-5.4231,-5.4231,-5.5945,-5.6726,-5.6569,-5.8355,-6.0055,-6.1703,-6.1703,-6.2233,-6.3079,-6.3079,-6.3079,-6.3079,-6.3079,-6.3079,-6.3079,-6.3079,-6.3079,-6.3079,-6.3079,-6.3079,-6.3079,0.0,0.0,0.0,0.0,0.0,0.0,0.0,0.0,0.0,0.0,0.0,0.0,0.0,0.0,0.0,0.0,0.0,0.0,0.0,0.0,0.0,0.0,0.0,-3.6455,-3.6531,-3.6455,-3.7839,-4.0774,-4.1376,-4.2961,-4.5372,-4.5974,-4.4342,-4.0827,-3.932,-3.8693,-3.8768,-3.9421,-3.9421,-3.9044,-3.9496,0.0,0.0,0.0,0.0,0.0,0.0,0.0,0.0,-3.5981,-3.5429,-3.4575,-3.4653,0.0,0.0,0.0,0.0,0.0,-3.5995,-3.6357,-3.6802,-3.6875,-3.6573,-3.6331,-3.661,0.0,0.0,0.0,-3.3394,-3.3108,-3.4134,-3.2808,-3.2616,-3.5667,-3.598,-3.8206,-4.5076,-4.6998,-4.937,-5.3985,-5.4671,-5.4839,-5.5261,-5.5129,-5.4433,-5.2998,-5.4231,-5.5049,-5.5049,-5.5049,-5.5049,-5.5049,-5.353,-5.2941,-5.3121,-5.4623,-5.6245,-5.8005,-5.9659,-6.1377,-6.3079,-6.3079,-6.3079,-6.3079,-6.2959,-6.2929,-6.2929,-6.281,-6.278,-6.278,-6.2899,-6.2929,-6.2929,-6.3049,-6.3079,-6.3079,0.0,0.0,0.0,0.0,0.0,0.0,0.0,0.0,0.0,0.0,0.0,0.0,0.0,0.0,0.0,0.0,0.0,0.0,0.0,0.0,0.0,0.0,-3.6107,-3.6631,-3.7036,-3.6656,-3.7061,-3.8517,-4.1806,-4.389,-4.4819,-4.8134,-4.7129,-4.2559,-4.1886,-4.0249,-3.8216,-3.9245,-3.9647,-3.9572,-3.9672,0.0,0.0,0.0,0.0,0.0,0.0,0.0,0.0,-3.5102,-3.455,-3.4079,-3.4408,0.0,0.0,0.0,0.0,0.0,-3.7436,-3.8033,-3.7531,-3.5117,-3.4853,-3.4883,-3.3621,0.0,0.0,0.0,-3.3876,-3.4186,-3.5459,-3.4365,-3.446,-3.7855,-3.9838,-4.3651,-5.1378,-5.1058,-5.1912,-5.7174,-5.6332,-5.509,-5.4721,-5.3839,-5.3179,-5.2929,-5.311,-5.3291,-5.3291,-5.3291,-5.3291,-5.3291,-5.2589,-5.2851,-5.4236,-5.5011,-5.6245,-5.8005,-5.9659,-6.1377,-6.3079,-6.3079,-6.3079,-6.3049,-6.248,-6.2241,-6.2211,-6.1642,-6.1433,-6.1463,-6.2032,-6.2241,-6.2301,-6.2869,-6.3079,-6.2875,0.0,0.0,0.0,0.0,0.0,0.0,0.0,0.0,0.0,0.0,0.0,0.0,0.0,0.0,0.0,0.0,0.0,0.0,0.0,0.0,0.0,-3.6787,-3.6835,-3.6784,-3.6782,-3.7436,-3.8743,-4.0701,-4.2785,-4.4844,-4.6853,-4.6552,-4.4869,-4.2007,-4.0249,-3.9094,-3.8517,-3.9019,-3.9421,-3.9672,0.0,0.0,0.0,0.0,0.0,0.0,0.0,0.0,0.0,0.0,-3.4349,-3.3972,-3.436,0.0,0.0,0.0,0.0,0.0,-3.6522,-3.6704,-3.6254,-3.49,-3.5315,-3.5647,-3.4046,-3.3449,0.0,0.0,-3.4161,-3.4526,-3.5723,-3.5426,-3.6027,-3.9228,-4.1854,-4.5115,-4.9966,-5.0314,-5.1626,-5.5881,-5.4758,-5.3993,-5.4919,-5.3724,-5.2929,-5.2929,-5.2929,-5.2804,-5.2503,-5.2477,-5.2352,-5.2051,-5.2593,-5.3244,-5.3997,-5.6033,-5.7645,-5.881,-6.0905,-6.2114,-6.254,-6.254,-6.2361,-6.2002,-6.1702,-6.1553,-6.1553,-6.1253,-6.1104,-6.1134,-6.1433,-6.1792,-6.2037,-6.1792,-6.1703,-6.1466,0.0,0.0,0.0,0.0,0.0,0.0,0.0,0.0,0.0,0.0,0.0,0.0,0.0,0.0,0.0,0.0,0.0,0.0,0.0,0.0,-3.5734,-3.7186,-3.7211,-3.741,-3.7762,-3.8868,-4.0676,-4.3162,-4.4367,-4.6401,-4.9088,-4.5723,-4.3263,-4.1551,-3.922,-3.8341,-3.8668,-3.8869,-3.9044,-3.927,0.0,0.0,0.0,0.0,0.0,0.0,0.0,0.0,0.0,0.0,0.0,0.0,0.0,0.0,0.0,-3.4966,-3.5251,-3.5579,-3.5878,-3.5599,-3.5229,-3.5229,-3.5575,-3.5658,-3.481,-3.3694,-3.3199,-3.4485,-3.4718,-3.495,-3.5791,-3.6515,-3.7869,-4.0807,-4.3489,-4.6094,-4.872,-4.9595,-5.1147,-5.438,-5.3279,-5.2945,-5.4623,-5.3674,-5.2879,-5.2754,-5.2854,-5.2628,-5.195,-5.2405,-5.2403,-5.1844,-5.3214,-5.4163,-5.4539,-5.7049,-5.8635,-5.9268,-6.1553,-6.2361,-6.1882,-6.1882,-6.1583,-6.1104,-6.0954,-6.0864,-6.0864,-6.0715,-6.0655,-6.0655,-6.0805,-6.1118,-6.1317,-6.0165,-5.9546,-5.9138,0.0,0.0,0.0,0.0,0.0,0.0,0.0,0.0,0.0,0.0,0.0,0.0,0.0,0.0,0.0,0.0,0.0,0.0,0.0,0.0,-3.4299,-3.4926,-3.6383,-3.8617,-4.1735,-4.1354,-4.2007,-4.374,-4.6878,-4.9063,-5.0268,-4.841,-4.5874,-4.2811,-4.158,-3.9923,-3.809,-3.8642,-3.8592,-3.8165,-3.8668,0.0,0.0,0.0,0.0,0.0,0.0,0.0,0.0,0.0,0.0,0.0,0.0,0.0,-3.3759,-3.51,-3.5484,-3.5759,-3.6956,-3.6634,-3.5934,-3.5934,-3.4224,-3.2901,-3.4338,-3.4151,-3.4056,-3.5641,-3.5982,-3.6008,-3.6087,-3.7903,-4.0354,-4.3112,-4.5472,-4.8237,-5.2072,-5.1767,-5.219,-5.5037,-5.3868,-5.2879,-5.3042,-5.2998,-5.2703,-5.2201,-5.2628,-5.2477,-5.1398,-5.3254,-5.4013,-5.3474,-5.4526,-5.5806,-5.728,-5.7628,-5.8032,-5.8607,-6.04,-6.1224,-6.1194,-6.1194,-6.1164,-6.1074,-6.0446,-6.0146,-6.0116,-5.9488,-5.9249,-5.9308,-5.9907,-5.9964,-5.9498,-5.8015,-5.675,-5.5669,0.0,0.0,0.0,0.0,0.0,0.0,0.0,0.0,0.0,0.0,0.0,0.0,0.0,0.0,0.0,0.0,0.0,0.0,0.0,0.0,-3.4951,-3.6207,-3.7186,-3.9094,-4.2137,-4.2961,-4.4543,-4.6903,-4.8837,-4.9464,-4.8786,-4.5748,-4.3288,-4.1354,-3.9195,-3.8366,-3.8517,-3.8015,-3.809,-3.8492,-3.8015,-3.7563,0.0,0.0,0.0,0.0,0.0,0.0,0.0,0.0,-3.2692,-3.2422,0.0,0.0,-3.3684,-3.5078,-3.5067,-3.4693,-3.5161,-3.4638,-3.4163,-3.4864,-3.3868,-3.3096,-3.4271,-3.4182,-3.4466,-3.6794,-3.7585,-3.8044,-3.8708,-3.9879,-4.1505,-4.3915,-4.6175,-4.8383,-5.0601,-5.1129,-5.169,-5.2711,-5.2582,-5.2427,-5.2427,-5.2427,-5.2327,-5.2126,-5.1975,-5.1991,-5.2194,-5.3031,-5.3671,-5.4046,-5.5423,-5.6421,-5.7024,-5.7634,-5.8048,-5.8283,-6.0198,-6.0894,-6.0475,-6.0475,-6.0266,-5.9847,-5.9578,-5.9488,-5.9458,-5.9189,-5.9099,-5.905,-5.8732,-5.7887,-5.6777,-5.5508,-5.4794,-5.4208,0.0,0.0,0.0,0.0,0.0,0.0,0.0,0.0,0.0,0.0,0.0,0.0,0.0,0.0,0.0,0.0,0.0,0.0,0.0,-3.4123,-3.5228,-3.6358,-3.7437,-3.9145,-4.158,-4.379,-4.5999,-4.8259,-4.9364,-4.8862,-4.6803,-4.3639,-4.1856,-4.1153,-3.8191,-3.7814,-3.9295,-3.799,-3.7688,-3.8064,-3.7486,-3.7086,0.0,0.0,0.0,0.0,0.0,0.0,0.0,0.0,-3.2315,-3.1899,0.0,0.0,0.0,0.0,-3.3965,-3.3317,-3.3317,-3.2672,-3.2334,-3.3522,-3.3344,-3.3326,-3.5314,-3.5468,-3.5981,-3.8743,-3.9622,-4.0074,-4.0676,-4.1379,-4.2409,-4.4091,-4.6351,-4.8309,-4.9439,-5.0419,-5.1071,-5.1247,-5.1599,-5.185,-5.185,-5.185,-5.1951,-5.2323,-5.2119,-5.2414,-5.3281,-5.3781,-5.4211,-5.4755,-5.6105,-5.6828,-5.6828,-5.7428,-5.7812,-5.7812,-5.9189,-5.9608,-5.9129,-5.9129,-5.889,-5.8471,-5.871,-5.88,-5.8746,-5.8491,-5.8055,-5.7499,-5.6361,-5.5317,-5.4386,-5.3155,-5.2867,-5.2829,0.0,0.0,0.0,0.0,0.0,0.0,0.0,0.0,0.0,0.0,0.0,0.0,0.0,0.0,0.0,0.0,0.0,0.0,-3.3136,-3.4123,-3.4726,-3.4726,-3.6835,-3.8768,-4.045,-4.374,-4.5999,-4.7093,-4.8209,-4.733,-4.4543,-4.2911,-4.2464,-4.2785,-3.9496,-3.8944,-4.0375,-3.8718,-3.7362,-3.6455,-3.696,-3.6883,-3.6355,0.0,0.0,0.0,0.0,0.0,0.0,0.0,-3.1486,-3.0741,0.0,0.0,0.0,0.0,-3.2214,-3.1806,-3.1778,-3.1135,-3.076,-3.2234,-3.2396,-3.3376,-3.7644,-3.8316,-3.8818,-4.1659,-4.2238,-4.2062,-4.1455,-4.2258,-4.3162,-4.3714,-4.61,-4.8284,-4.9414,-5.0042,-5.0619,-5.1172,-5.1247,-5.1272,-5.1247,-5.1247,-5.1696,-5.2697,-5.3271,-5.3842,-5.4382,-5.5763,-5.6306,-5.5729,-5.6651,-5.7094,-5.7094,-5.7094,-5.7064,-5.7064,-5.7064,-5.7064,-5.7094,-5.7094,-5.7094,-5.7124,-5.7812,-5.8058,-5.7981,-5.7038,-5.5791,-5.4208,-5.2639,-5.2332,-5.2581,-5.0955,-5.077,-5.1197,0.0,0.0,0.0,0.0,0.0,0.0,0.0,0.0,0.0,0.0,0.0,0.0,0.0,0.0,0.0,0.0,0.0,0.0,-3.3646,-3.47,-3.5257,-3.5257,-3.6659,-3.7663,-3.8165,-4.0676,-4.3865,-4.7682,-4.7255,-4.5422,-4.2228,-4.1028,-3.9873,-3.8894,-3.8693,-3.8442,-3.814,-3.7638,-3.7236,-3.691,-3.6757,-3.6282,-3.578,0.0,0.0,0.0,0.0,0.0,0.0,0.0,0.0,0.0,0.0,0.0,0.0,-3.2554,-3.2554,-3.2348,-3.1556,-3.1235,-3.1377,-3.2647,-3.4056,-3.5923,-3.8738,-3.9272,-4.0199,-4.3765,-4.4166,-4.3714,-4.3162,-4.3338,-4.3614,-4.3765,-4.5799,-4.7481,-4.7807,-4.8661,-4.9163,-4.8937,-4.9615,-4.9941,-4.9565,-5.0819,-5.1591,-5.1549,-5.2292,-5.3358,-5.4629,-5.5104,-5.5765,-5.6646,-5.6974,-5.6885,-5.6436,-5.5987,-5.5538,-5.5059,-5.5059,-5.5777,-5.7094,-5.7094,-5.7094,-5.7094,-5.7304,-5.6835,-5.5783,-5.4459,-5.3189,-5.2111,-5.1652,-5.1096,-5.0448,-4.9581,-4.9615,-5.0017,0.0,0.0,0.0,0.0,0.0,0.0,0.0,0.0,0.0,0.0,-3.2867,-3.3111,0.0,0.0,0.0,0.0,0.0,0.0,0.0,0.0,-3.5408,-3.5182,-3.6257,-3.7262,-3.8165,-4.0149,-4.2308,-4.4644,-4.4443,-4.2861,-3.9971,-4.0249,-3.9923,-3.9246,-4.0325,-4.0199,-3.917,-3.8693,-3.7864,-3.6883,-3.6782,-3.6232,-3.5483,0.0,0.0,0.0,0.0,0.0,0.0,0.0,0.0,0.0,0.0,0.0,0.0,-3.1516,-3.1386,-3.1099,-3.0465,-3.0675,-3.1361,-3.2441,-3.4901,-3.7789,-4.0676,-4.1831,-4.2986,-4.5321,-4.5547,-4.5045,-4.4267,-4.4141,-4.4141,-4.4141,-4.5824,-4.7068,-4.7068,-4.7883,-4.8309,-4.7958,-4.905,-4.968,-4.9409,-5.097,-5.2143,-5.2475,-5.3044,-5.3919,-5.5275,-5.5094,-5.5283,-5.5957,-5.5115,-5.4532,-5.42,-5.3224,-5.2558,-5.218,-5.218,-5.2791,-5.4002,-5.5582,-5.6058,-5.5453,-5.5129,-5.4247,-5.302,-5.2103,-5.1029,-4.9913,-4.9913,-4.9873,-4.9808,-4.9768,-5.0359,-5.109,0.0,0.0,-2.9804,-2.9804,0.0,0.0,0.0,0.0,0.0,0.0,-3.3111,-3.3111,0.0,0.0,0.0,0.0,0.0,0.0,0.0,0.0,-3.5357,-3.4901,-3.5881,-3.7461,-3.9496,-4.1006,-4.1031,-3.9471,-4.0676,-4.0047,-3.7914,-4.0147,-4.148,-4.1961,-4.3062,-4.2936,-4.1835,-4.0626,-3.8642,-3.638,-3.6784,-3.6307,-3.5232,-3.4731,0.0,0.0,0.0,0.0,0.0,0.0,0.0,0.0,0.0,0.0,-2.993,-2.9829,-2.9478,-2.9113,-2.9063,-2.9866,-3.106,-3.229,-3.5579,-3.9496,-4.3137,-4.5221,-4.6376,-4.6326,-4.6351,-4.605,-4.497,-4.4769,-4.4744,-4.4644,-4.605,-4.7018,-4.6867,-4.7405,-4.7732,-4.7682,-4.904,-4.995,-4.995,-5.1394,-5.2911,-5.4326,-5.4544,-5.5041,-5.5876,-5.5227,-5.458,-5.3933,-5.1932,-5.0896,-5.0998,-4.9651,-4.8992,-4.9097,-4.9047,-4.9022,-4.913,-5.2952,-5.4009,-5.2726,-5.1766,-5.0875,-5.0089,-4.9943,-4.9032,-4.7832,-4.7881,-4.8917,-5.0405,-5.1062,-5.2236,-5.3554,0.0,0.0,-2.9804,-2.9804,0.0,0.0,0.0,0.0,0.0,0.0,0.0,0.0,0.0,-3.3111,0.0,0.0,0.0,0.0,0.0,0.0,-3.6132,-3.6053,-3.6659,-3.7437,-3.8341,-3.8291,-3.8065,-3.7739,-3.9722,-3.932,-3.6832,-3.9446,-4.03,-3.9698,-4.1178,-4.1028,-3.9522,-3.7964,-3.6659,-3.5658,-3.5378,-3.46,-3.3596,-3.347,-3.2742,0.0,0.0,0.0,0.0,0.0,0.0,0.0,-2.9804,-3.0382,-3.0884,-3.003,-3.0306,-3.0758,-3.0357,-3.1035,0.0,-3.4921,-3.9044,-4.3011,-4.4719,-4.6075,-4.6828,-4.6401,-4.6652,-4.6753,-4.6075,-4.5949,-4.5648,-4.4769,-4.605,-4.6617,-4.5347,-4.6024,-4.6502,-4.6075,-4.7257,-4.8074,-4.8074,-5.0381,-5.1913,-5.1822,-5.2901,-5.3625,-5.3832,-5.265,-5.1918,-5.1802,-4.9916,-4.9398,-5.0392,-4.8612,-4.8206,-4.9166,-4.8602,-4.8304,-4.8412,-5.0219,-5.1087,-5.1071,-4.9326,-4.8691,-4.8758,-4.7195,-4.6803,-4.7378,-4.805,-4.9449,-5.1088,-5.1936,-5.3045,-5.4221,0.0,0.0,0.0,0.0,0.0,0.0,0.0,0.0,0.0,0.0,0.0,0.0,0.0,-3.3111,0.0,0.0,-3.3847,0.0,0.0,0.0,-3.6081,-3.6405,-3.6885,-3.7086,-3.6787,-3.681,-3.6533,-3.6006,-3.7437,-3.7538,-3.6455,-3.8668,-3.9421,-3.8994,-4.0601,-4.0275,-3.8391,-3.7513,-3.6232,-3.4705,-3.4726,-3.3897,-3.2667,-3.2667,-3.1989,-3.0959,-3.0407,0.0,0.0,0.0,0.0,0.0,0.0,0.0,-3.0626,-3.0522,-3.0546,-3.0557,-3.0306,0.0,0.0,-3.7789,-4.1103,-4.3689,-4.4819,-4.5522,-4.5849,-4.5547,-4.6376,-4.6803,-4.5698,-4.5723,-4.5623,-4.4769,-4.5347,-4.5623,-4.4744,-4.5121,-4.5397,-4.5095,-4.69,-4.8188,-4.8188,-5.0188,-5.1328,-5.1091,-5.0955,-5.0687,-5.0398,-4.9402,-4.8708,-4.8424,-4.685,-4.6274,-4.6939,-4.5252,-4.4887,-4.5858,-4.5448,-4.5902,-4.7108,-4.8705,-4.9607,-4.9774,-4.7961,-4.697,-4.665,-4.6592,-4.6868,-4.7501,-4.8965,-5.0751,-5.2591,-5.3332,-5.4941,-5.668,0.0,0.0,0.0,0.0,0.0,0.0,0.0,0.0,0.0,0.0,0.0,0.0,0.0,0.0,-3.3111,0.0,0.0,0.0,0.0,-3.46,-3.5655,-3.6207,-3.6659,-3.6508,-3.5658,-3.6031,-3.578,-3.4831,-3.5182,-3.573,-3.6455,-3.814,-3.8818,-3.8768,-4.0149,-3.9672,-3.7839,-3.7362,-3.583,-3.3771,-3.4048,-3.3269,-3.1938,-3.1938,-3.1336,-3.0407,-2.9955,-2.9895,-3.0139,-3.0771,0.0,0.0,0.0,0.0,-3.0305,-3.0835,-3.0419,-2.9804,-2.9905,0.0,-3.5403,-3.9871,-4.1957,-4.3112,-4.4116,-4.4418,-4.4418,-4.4242,-4.5522,-4.6215,-4.4895,-4.502,-4.5146,-4.4568,-4.4568,-4.4568,-4.4367,-4.4342,-4.4342,-4.4342,-4.6453,-4.7992,-4.8049,-4.9329,-5.0118,-5.0118,-4.8668,-4.7549,-4.7026,-4.6298,-4.5674,-4.5178,-4.3661,-4.3073,-4.3409,-4.1896,-4.1562,-4.2417,-4.2518,-4.3924,-4.6545,-4.8153,-4.8936,-4.881,-4.7458,-4.6346,-4.561,-4.7257,-4.8003,-4.8412,-5.0354,-5.2313,-5.4169,-5.5105,-5.7084,-5.9368,0.0,0.0,0.0,0.0,0.0,0.0,0.0,0.0,0.0,0.0,-3.3111,-3.3111,0.0,0.0,0.0,-3.3111,-3.3571,0.0,-3.3796,0.0,0.0,-3.5583,-3.5683,-3.5906,-3.6279,-3.5855,-3.5533,-3.5382,-3.4981,-3.5353,-3.6455,-3.814,-3.8592,-3.814,-3.8341,-3.8015,-3.7136,-3.4751,-3.352,-3.3119,-3.219,-3.1436,-3.0834,-3.0834,-3.0457,-2.9905,-2.9829,-3.0305,-3.0895,-3.0216,-3.1348,0.0,0.0,0.0,-3.1613,-3.0369,-2.9895,-2.9905,-3.0382,0.0,-3.6707,0.0,-4.1103,-4.2489,-4.3062,-4.3564,-4.3639,-4.274,-4.3815,-4.4895,-4.4669,-4.4694,-4.4543,-4.3991,-4.4317,-4.4292,-4.3338,-4.3187,-4.3187,-4.3187,-4.3776,-4.4331,-4.4784,-4.5696,-4.6243,-4.6243,-4.6011,-4.5829,-4.5746,-4.454,-4.3746,-4.3666,-4.1853,-4.1697,-4.3358,-4.154,-4.1486,-4.3257,-4.3704,-4.5646,-4.8781,-4.9066,-4.9036,-4.8757,-4.8047,-4.8243,-4.8982,-4.8844,-4.9364,-5.0492,-5.213,-5.3575,-5.5025,-5.6947,-5.8638,-6.0057,0.0,0.0,0.0,0.0,0.0,0.0,0.0,0.0,0.0,0.0,0.0,-3.3111,0.0,0.0,0.0,0.0,0.0,0.0,-3.3872,-3.4123,0.0,0.0,-3.5031,-3.5052,-3.4977,-3.4751,-3.4474,-3.4173,-3.4223,-3.4826,-3.5931,-3.6985,-3.7536,-3.7513,-3.691,-3.6307,-3.5655,-3.3495,-3.2416,-3.2064,-3.126,-3.0633,-3.0156,-3.0156,-3.0005,-2.9804,-2.9804,-3.0088,-3.0533,-3.1156,-3.1415,-3.1536,-3.2019,0.0,0.0,0.0,-3.0216,-3.0181,-3.1964,-3.3696,-3.573,0.0,-4.0224,-4.1003,-4.1856,-4.2258,-4.2283,-4.1806,-4.2283,-4.273,-4.273,-4.3037,-4.3062,-4.2509,-4.2886,-4.2961,-4.2183,-4.2333,-4.2464,-4.2108,-4.2837,-4.3463,-4.3728,-4.4106,-4.43,-4.43,-4.3322,-4.2704,-4.2704,-4.1853,-4.1338,-4.1338,-4.1209,-4.1183,-4.1338,-4.1918,-4.2751,-4.3913,-4.5261,-4.6862,-4.8692,-4.9443,-4.9504,-4.9008,-4.9144,-4.9042,-4.8913,-5.0154,-5.1031,-5.1705,-5.399,-5.5394,-5.6279,-5.7577,-5.9189,-6.0715,0.0,0.0,0.0,0.0,0.0,0.0,0.0,0.0,0.0,0.0,0.0,0.0,0.0,0.0,0.0,0.0,0.0,0.0,-3.3244,0.0,0.0,0.0,0.0,-3.3897,-3.347,-3.347,-3.3269,-3.2867,-3.342,-3.4399,-3.5755,-3.6182,-3.681,-3.7563,-3.6307,-3.5378,-3.4625,-3.3093,-3.2265,-3.1938,-3.0834,-3.0156,-2.9779,-2.9628,-2.9578,-2.9603,-2.9905,-3.0099,-3.0356,-3.1809,-3.1691,-3.1225,-3.2681,-3.1994,0.0,0.0,0.0,-3.0281,-3.2466,0.0,-3.4374,-3.7287,-3.8542,-3.9245,-3.9923,-4.0501,-4.0824,-4.0752,-4.0874,-4.1025,-4.0953,-4.148,-4.1806,-4.1351,-4.1681,-4.1806,-4.1351,-4.158,-4.158,-4.1125,-4.1903,-4.2449,-4.2449,-4.2449,-4.2449,-4.2449,-4.1129,-4.0457,-4.0744,-4.0389,-4.0313,-4.0642,-4.1591,-4.164,-4.0693,-4.2544,-4.395,-4.4849,-4.6329,-4.7518,-4.8534,-4.9529,-4.9791,-4.9475,-5.0193,-5.0054,-4.9558,-5.1555,-5.2574,-5.3114,-5.53,-5.6555,-5.7184,-5.7872,-5.9279,-6.0864,0.0,0.0,0.0,0.0,0.0,0.0,0.0,0.0,0.0,0.0,0.0,0.0,0.0,-3.3111,-3.3111,-3.3111,0.0,0.0,0.0,0.0,0.0,0.0,0.0,0.0,-3.229,-3.229,-3.229,-3.2265,-3.2842,-3.4268,-3.638,-3.6383,-3.7262,-3.8768,-3.7109,-3.573,-3.465,-3.352,-3.3319,-3.3545,-3.0909,-2.9804,-2.9729,-2.9176,-2.8938,-2.9088,-3.0181,-3.0804,-3.1164,-3.1414,-3.2646,-3.3772,-3.1513,-3.1719,-3.245,0.0,0.0,0.0,-3.0608,-3.1938,0.0,-3.337,-3.5378,-3.7186,-3.6782,-3.8266,-3.9622,-3.912,-3.9823,-4.04,-3.9873,-4.0651,-4.1326,-4.13,-4.13,-4.1326,-4.1275,-4.0902,-4.0601,-4.0576,-4.0151,-3.9876,-3.9876,-3.9876,-3.9876,-3.9876,-3.9799,-4.0262,-4.1445,-4.1518,-4.2035,-4.3266,-4.3361,-4.3361,-4.3313,-4.3456,-4.4424,-4.6293,-4.6368,-4.7466,-4.9269,-4.9314,-4.9628,-5.0193,-5.0849,-5.1834,-5.2968,-5.3107,-5.3883,-5.5108,-5.5897,-5.6555,-5.7184,-5.7872,-5.8979,-6.0146,0.0,0.0,0.0,0.0,0.0,0.0,0.0,0.0,0.0,0.0,0.0,0.0,0.0,-3.3111,-3.3111,-3.3111,-3.2893,0.0,0.0,0.0,0.0,0.0,0.0,0.0,0.0,-3.2767,-3.2767,-3.2767,-3.2591,-3.3294,-3.4776,-3.4801,-3.5127,-3.5705,-3.6182,-3.5956,-3.5082,-3.3294,-3.2641,-3.2667,-3.0984,-3.0105,-2.9729,-2.9113,-2.8662,-2.8499,-2.9214,-2.9606,-2.9921,-3.1332,-3.1876,-3.1889,-3.1604,-3.1705,-3.176,-3.0651,-3.008,-2.998,-3.0859,0.0,0.0,-3.3244,-3.4349,-3.5127,-3.5278,-3.6734,-3.7914,-3.741,-3.814,-3.8969,-3.912,-3.9772,-4.0275,-4.0275,-4.0576,-4.0701,-4.0325,-4.0425,-4.0375,-4.0023,-3.9823,-3.9697,-3.9697,-3.9697,-4.0032,-4.0844,-4.0185,-4.0592,-4.2689,-4.2035,-4.2181,-4.3456,-4.4303,-4.5115,-4.5913,-4.5115,-4.5458,-4.6993,-4.6993,-4.757,-4.8626,-4.8626,-4.8985,-4.9643,-5.0301,-5.1349,-5.2606,-5.3473,-5.4132,-5.467,-5.5748,-5.6316,-5.6645,-5.7723,-5.868,-5.9518,0.0,0.0,0.0,0.0,0.0,0.0,0.0,0.0,0.0,0.0,0.0,0.0,0.0,0.0,-3.2993,-3.2792,-3.2968,-3.2742,-3.1989,-3.2641,0.0,0.0,0.0,0.0,0.0,0.0,0.0,0.0,0.0,-3.2792,-3.3897,-3.3721,-3.3822,-3.4223,-3.5152,-3.5353,-3.4856,-3.342,-3.2767,-3.2641,-3.121,-3.0507,-3.0281,-2.9905,-2.9528,-2.9302,-3.0055,-3.008,-2.9932,-3.1345,-3.1263,-3.0727,-3.1319,-3.1212,-3.0783,-3.0432,-3.008,-2.9955,-3.0658,-3.0733,-3.106,-3.2867,-3.3345,-3.352,-3.4274,-3.5303,-3.6081,-3.6081,-3.681,-3.7688,-3.8442,-3.8894,-3.9245,-3.9647,-3.9998,-4.0124,-3.9747,-4.0336,-4.0721,-4.0364,-4.0364,-4.0364,-4.0364,-4.0364,-4.0616,-4.1229,-4.0882,-4.1546,-4.3668,-4.3011,-4.3235,-4.472,-4.5598,-4.6432,-4.7309,-4.6462,-4.6462,-4.7309,-4.7309,-4.7549,-4.7967,-4.7967,-4.8327,-4.9,-4.9404,-5.0451,-5.1977,-5.3324,-5.4012,-5.4311,-5.5418,-5.6107,-5.6585,-5.7453,-5.8351,-5.9159,0.0,0.0,0.0,0.0,0.0,0.0,0.0,0.0,0.0,0.0,0.0,0.0,0.0,0.0,0.0,-3.234,-3.2817,-3.2667,-3.1537,-3.2491,0.0,0.0,0.0,0.0,0.0,0.0,0.0,0.0,0.0,0.0,0.0,-3.3294,-3.3596,-3.46,-3.4073,-3.3822,-3.3796,-3.3847,-3.3847,-3.3696,-3.1512,-3.0934,-3.1386,-3.1361,-3.1311,-3.1436,-3.2541,-3.224,-3.1311,-3.1361,-3.1035,-3.0633,-3.0683,-3.0281,-2.9829,-2.9829,-2.9829,-2.9804,0.0,0.0,0.0,-3.1888,-3.2164,-3.2441,-3.352,-3.3822,-3.4148,-3.5157,-3.5881,-3.6656,-3.7788,-3.7939,-3.8316,-3.9548,-3.9698,-3.9647,-3.9749,-4.0818,-4.1591,-4.164,-4.164,-4.1614,-4.1565,-4.1565,-4.1278,-4.0676,-4.1721,-4.298,-4.4349,-4.4438,-4.5288,-4.7176,-4.7249,-4.7249,-4.7249,-4.7249,-4.7249,-4.7279,-4.7279,-4.7279,-4.7309,-4.7309,-4.7668,-4.8267,-4.8297,-4.9404,-5.1259,-5.2606,-5.3563,-5.4251,-5.491,-5.5957,-5.7064,-5.7094,-5.7962,-5.9099,0.0,0.0,0.0,0.0,0.0,0.0,0.0,0.0,0.0,0.0,0.0,0.0,-3.3621,-3.4374,-3.458,-3.4073,-3.455,-3.4399,-3.3269,-3.3495,-3.342,-3.2867,0.0,0.0,0.0,0.0,0.0,0.0,0.0,0.0,0.0,0.0,0.0,-3.2315,-3.2139,-3.1888,-3.1562,-3.234,-3.2918,-3.3194,-3.1738,-3.126,-3.1311,-3.0532,-2.9729,-2.9101,-2.9829,-2.988,-2.9729,-3.0557,-3.0984,-3.1311,-3.2139,-3.1461,-3.0457,-3.0834,-3.0683,-3.0306,-2.9905,0.0,0.0,0.0,0.0,0.0,-3.0959,-3.1838,-3.2641,-3.2566,-3.3621,-3.5173,-3.7131,-3.7122,-3.776,-4.0541,-3.9576,-3.9094,-4.0815,-4.1051,-4.1506,-4.2828,-4.2549,-4.1923,-4.113,-4.0614,-4.0606,-4.1311,-4.0844,-4.1838,-4.4883,-4.5082,-4.5298,-4.5843,-4.5843,-4.5843,-4.5843,-4.5843,-4.6112,-4.6591,-4.6591,-4.683,-4.7309,-4.7309,-4.7399,-4.7638,-4.8566,-4.9359,-4.9942,-5.1738,-5.2875,-5.3593,-5.473,-5.5688,-5.6466,-5.6944,-5.7962,-5.9189,0.0,0.0,0.0,0.0,0.0,0.0,0.0,0.0,0.0,0.0,0.0,0.0,-3.4173,-3.4981,-3.5282,-3.4731,-3.4981,-3.4881,-3.4274,-3.4022,-3.3746,-3.3445,0.0,0.0,0.0,0.0,0.0,0.0,0.0,0.0,0.0,0.0,0.0,-3.1386,-3.1386,-3.111,-3.0658,-3.1286,-3.1863,-3.229,-3.1411,-3.1336,-3.1662,-3.1035,-3.0382,-2.9854,-3.0142,-3.0568,-3.0934,-3.0432,-3.0633,-3.1185,-3.1838,-3.1537,-3.1009,-3.1311,-3.1185,-3.0859,-3.0557,-3.0708,-3.0984,-3.1135,0.0,0.0,-3.0783,-3.1009,-3.1235,-3.1361,-3.2472,-3.3997,-3.5798,-3.6166,-3.7087,-3.9902,-3.8986,-3.8792,-4.1239,-4.1991,-4.2573,-4.3378,-4.2925,-4.223,-4.1281,-4.0393,-4.0261,-4.1186,-4.1068,-4.2097,-4.4762,-4.5155,-4.5304,-4.5304,-4.5304,-4.5304,-4.5304,-4.5304,-4.5633,-4.6279,-4.6279,-4.6681,-4.7309,-4.7309,-4.7459,-4.7758,-4.8506,-4.9314,-5.0182,-5.1618,-5.2606,-5.3354,-5.497,-5.5987,-5.6645,-5.7274,-5.8381,-5.9578,0.0,0.0,-3.2943,-3.2466,-3.3244,0.0,0.0,0.0,0.0,0.0,0.0,0.0,-3.4851,-3.5408,-3.5558,-3.5052,-3.5002,-3.4977,-3.4901,-3.4399,0.0,0.0,0.0,0.0,0.0,0.0,0.0,0.0,0.0,0.0,0.0,0.0,0.0,0.0,-3.1361,-3.106,-3.0608,-3.0557,-3.0834,-3.126,-3.0809,-3.126,-3.219,-3.2089,-3.1989,-3.1938,-3.1938,-3.2591,-3.3068,-3.0683,-3.0206,-3.0633,-3.0758,-3.106,-3.1411,-3.1461,-3.1486,-3.1486,-3.1486,-3.1537,-3.1813,-3.2742,-3.1964,0.0,-3.1863,-3.1009,-3.0321,-3.1196,-3.2094,-3.3107,-3.4417,-3.5359,-3.655,-3.856,-3.845,-3.8933,-4.1367,-4.3138,-4.402,-4.3473,-4.2958,-4.2361,-4.1516,-4.046,-4.0099,-4.058,-4.1752,-4.2998,-4.4116,-4.4613,-4.487,-4.478,-4.487,-4.487,-4.478,-4.487,-4.5329,-4.6202,-4.6202,-4.6591,-4.7309,-4.7309,-4.7668,-4.8297,-4.8356,-4.9464,-5.1289,-5.2007,-5.2695,-5.3473,-5.5418,-5.6555,-5.7184,-5.7962,-5.9069,-6.0206,-3.2164,-3.2591,-3.3194,-3.352,0.0,0.0,0.0,0.0,0.0,0.0,0.0,-3.5977,-3.6078,-3.6935,-3.7312,-3.6759,-3.6709,-3.6508,-3.6128,-3.5529,0.0,0.0,0.0,0.0,0.0,0.0,0.0,0.0,0.0,0.0,0.0,0.0,0.0,0.0,-3.116,-3.0708,-3.0583,-3.0131,-3.0256,-3.0758,-3.0658,-3.126,-3.2114,-3.126,-3.0658,-3.0256,-3.0256,-3.0407,-3.0583,-3.0482,-3.0532,-3.0758,-3.1637,-3.1662,-3.1486,-3.1913,-3.2039,-3.2039,-3.2039,-3.239,-3.2692,-3.2441,-3.2817,0.0,-3.1286,-3.1361,-3.1655,-3.1317,-3.1727,-3.2905,-3.5273,-3.5885,-3.6911,-3.9642,-3.9613,-4.0171,-4.2651,-4.2969,-4.3099,-4.3502,-4.3013,-4.1827,-3.9784,-3.9762,-3.9925,-4.0035,-4.1128,-4.2286,-4.3429,-4.2761,-4.2104,-4.1692,-4.2075,-4.2104,-4.1692,-4.2104,-4.3365,-4.5514,-4.5514,-4.6142,-4.7309,-4.7309,-4.7668,-4.8327,-4.888,-4.9883,-5.1319,-5.2486,-5.3384,-5.4162,-5.5598,-5.6555,-5.7244,-5.8471,-5.9757,-6.0984,-3.1512,-3.2089,-3.2641,-3.2641,0.0,0.0,0.0,0.0,0.0,0.0,0.0,-3.6707,-3.643,-3.7111,-3.7387,-3.6883,-3.6832,-3.6707,-3.643,-3.5855,0.0,0.0,0.0,0.0,0.0,0.0,0.0,0.0,0.0,0.0,0.0,0.0,0.0,0.0,-3.1361,-3.1009,-3.0959,-3.0432,-3.0658,-3.1336,-3.0532,-3.0683,-3.1336,-3.0507,-3.003,-2.9804,-2.9804,-3.0101,-3.0675,-3.1769,-3.2154,-3.2206,-3.2397,-3.2581,-3.2692,-3.2968,-3.3068,-3.3119,-3.3395,-3.4125,-3.4521,-3.3341,-3.3717,0.0,0.0,-3.1767,-3.2108,-3.2093,-3.2587,-3.3517,-3.5203,-3.5935,-3.6968,-3.9086,-3.9439,-4.0187,-4.2122,-4.1988,-4.1699,-4.1699,-4.1169,-4.0221,-3.8732,-3.9098,-3.9554,-3.9885,-4.0447,-4.1,-4.1574,-4.0772,-4.0417,-4.0706,-4.0187,-4.0433,-4.1577,-4.1349,-4.2585,-4.5304,-4.5304,-4.5992,-4.7309,-4.7309,-4.7848,-4.885,-4.9179,-5.0391,-5.2247,-5.2905,-5.3773,-5.482,-5.6137,-5.7034,-5.7723,-5.874,-5.9967,-6.1164,-3.0959,-3.1612,-3.2139,-3.1913,0.0,0.0,0.0,0.0,0.0,0.0,-3.6807,-3.6908,-3.6455,-3.6659,-3.6784,-3.6581,-3.6179,-3.6128,-3.6531,-3.5805,-3.5282,0.0,0.0,-3.4726,0.0,0.0,0.0,0.0,0.0,0.0,0.0,0.0,-3.2817,-3.234,-3.1687,-3.1461,-3.1512,-3.0884,-3.111,-3.1788,-3.0482,-3.0331,-3.0859,-3.0206,-2.9955,-2.9969,-3.0036,-3.0622,-3.1638,-3.3184,-3.3701,-3.3646,-3.3278,-3.3431,-3.3796,-3.3997,-3.3972,-3.4092,-3.4945,-3.5997,-3.6446,-3.4944,-3.5357,-3.5557,0.0,0.0,0.0,-3.3692,-3.4091,-3.4629,-3.5357,-3.6241,-3.7195,-3.8212,-3.896,-3.9798,-4.0846,-4.0461,-3.9939,-3.9755,-3.9263,-3.8727,-3.8117,-3.863,-3.9199,-3.9664,-3.9719,-3.9775,-3.9885,-3.9305,-3.9313,-4.0098,-3.9168,-3.9698,-4.1861,-4.1277,-4.2421,-4.5304,-4.5304,-4.5992,-4.7309,-4.7309,-4.8027,-4.9299,-4.9299,-5.0737,-5.2995,-5.3144,-5.3982,-5.5299,-5.6466,-5.7334,-5.8022,-5.883,-5.9877,-6.0954,-3.1863,-3.2139,-3.2516,-3.3445,0.0,0.0,0.0,0.0,0.0,0.0,-3.6455,-3.648,-3.6405,-3.5981,-3.6107,-3.701,-3.5303,-3.5002,-3.696,-3.5655,-3.46,-3.4098,0.0,-3.4731,-3.3294,0.0,0.0,0.0,0.0,0.0,0.0,0.0,-3.3043,-3.2943,-3.1863,-3.1662,-3.2064,-3.1035,-3.0683,-3.0783,-3.0608,-3.1135,-3.1913,-3.0909,-3.0532,-3.0576,-3.0915,-3.1499,-3.2239,-3.3274,-3.3695,-3.3872,-3.4348,-3.3901,-3.337,-3.4349,-3.4274,-3.4363,-3.6426,-3.7527,-3.7899,-3.7121,-3.8926,-3.9912,-3.6088,0.0,-3.7244,-3.6646,0.0,-3.6031,-3.6946,0.0,0.0,-3.8362,-3.896,-3.9433,-3.9619,-3.8274,-3.7834,-3.9434,-3.9126,-3.8535,-3.7965,-3.8899,-3.9414,-3.9129,-3.9057,-3.9262,-3.9858,-3.9262,-3.874,-3.8422,-3.9653,-4.0279,-4.0108,-4.1047,-4.2777,-4.5304,-4.5304,-4.5992,-4.7309,-4.7309,-4.8027,-4.9299,-4.9299,-5.0421,-5.2366,-5.2935,-5.3982,-5.5269,-5.5987,-5.6645,-5.7363,-5.862,-5.9578,-6.0386,-3.1185,-3.1537,-3.1888,-3.2365,0.0,0.0,0.0,0.0,0.0,0.0,-3.6433,-3.6835,-3.6835,-3.691,-3.691,-3.6759,-3.5881,-3.5579,-3.6207,-3.5533,-3.5378,-3.578,-3.5931,-3.583,-3.5479,0.0,0.0,0.0,-3.4148,0.0,0.0,0.0,-3.2893,-3.2541,-3.1738,-3.1512,-3.1712,-3.126,-3.126,-3.1537,-3.1537,-3.1813,-3.2064,-3.0658,-3.0131,-3.0287,-3.1392,-3.2278,-3.3219,-3.4542,-3.5695,-3.6559,-3.6503,-3.6538,-3.6475,-3.6278,-3.6516,-3.6987,-3.7616,-3.8966,-3.9976,-3.9033,-3.9976,-4.0548,-3.8097,-3.8075,-3.8541,-3.8621,0.0,0.0,0.0,0.0,0.0,0.0,-3.9559,-3.9858,-3.9433,-3.8098,-3.736,-3.7901,-3.7738,-3.8045,-3.9237,-3.9207,-3.915,-3.9345,-3.8413,-3.796,-3.8272,-3.7122,-3.6934,-3.7937,-3.7786,-3.8649,-4.0713,-4.0971,-4.2526,-4.5304,-4.5304,-4.5992,-4.7309,-4.7309,-4.7818,-4.876,-4.9149,-5.0152,-5.1708,-5.2755,-5.3743,-5.47,-5.5359,-5.6466,-5.7752,-5.8321,-5.9189,-6.0176,-3.0834,-3.126,-3.1612,-3.1612,0.0,0.0,0.0,0.0,-3.5608,-3.5909,-3.6558,-3.7086,-3.7387,-3.7487,-3.7362,-3.6885,-3.6282,-3.5881,-3.578,-3.5583,-3.5658,-3.6031,-3.6455,-3.6531,-3.6282,-3.6182,0.0,0.0,0.0,0.0,0.0,0.0,-3.2842,-3.2416,-3.1863,-3.1612,-3.1612,-3.1461,-3.1537,-3.1763,-3.1763,-3.1687,-3.1477,-3.0696,-3.0213,-3.025,-3.1932,-3.2982,-3.3898,-3.5506,-3.7101,-3.8428,-3.8143,-3.8511,-3.8818,-3.7984,-3.8347,-3.8971,-3.8847,-4.029,-4.1621,-4.0603,-4.1053,-4.1372,-4.0055,-3.9882,-4.013,-4.046,-4.0356,0.0,0.0,0.0,-4.0457,-3.9798,0.0,-4.0157,-3.9463,-3.8422,-3.758,-3.7281,-3.723,-3.7879,-3.9535,-3.9212,-3.8909,-3.8922,-3.8033,-3.7547,-3.7563,-3.6621,-3.6834,-3.8574,-3.7869,-3.8807,-4.1654,-4.1735,-4.2942,-4.5304,-4.5484,-4.6172,-4.7309,-4.7309,-4.7758,-4.8566,-4.912,-5.0002,-5.1319,-5.2456,-5.3324,-5.3982,-5.467,-5.6017,-5.7603,-5.7782,-5.856,-5.9608,-3.1361,-3.1813,-3.219,-3.219,-3.3144,-3.4248,-3.5282,-3.5483,-3.5884,-3.6985,-3.6757,-3.6832,-3.7864,-3.7036,-3.6883,-3.7864,-3.6006,-3.5228,-3.6304,-3.583,-3.4806,-3.3312,-3.573,-3.6157,-3.4048,-3.4981,-3.5508,0.0,0.0,0.0,0.0,0.0,0.0,0.0,-3.2441,-3.219,-3.2164,-3.1612,-3.111,-3.0658,-3.0658,-3.0357,-3.0021,-3.1395,-3.1371,-3.0795,-3.2691,-3.3533,-3.402,-3.5596,-3.6972,-3.8117,-3.8697,-3.8961,-3.8988,-3.8861,-3.8904,-3.92,-4.0256,-4.1517,-4.2407,-4.1689,-4.2867,-4.3723,-4.191,-4.2438,-4.305,-4.2462,-4.2282,-4.2111,-4.1474,-4.1392,-4.1145,-4.0487,-4.0397,0.0,0.0,-3.8811,-3.8362,-3.8357,-3.8357,-3.824,-3.7927,-3.8789,-3.8764,-3.7285,-3.8088,-3.8705,-3.8848,-3.9222,-3.9774,-4.0486,-4.1587,-4.2273,-4.2381,-4.3559,-4.4545,-4.5304,-4.5963,-4.6651,-4.7309,-4.7309,-4.8027,-4.9269,-4.9299,-5.0002,-5.1259,-5.1947,-5.2606,-5.3294,-5.3982,-5.5059,-5.6316,-5.6915,-5.7573,-5.8381,-3.1461,-3.2139,-3.2667,-3.229,-3.2842,-3.3596,-3.4349,-3.5378,-3.6207,-3.6631,-3.7486,-3.8215,-3.8542,-3.8567,-3.8417,-3.804,-3.6985,-3.6207,-3.5855,-3.5981,-3.568,-3.4751,-3.6307,-3.6659,-3.56,-3.5881,-3.5906,-3.5508,0.0,0.0,0.0,0.0,0.0,0.0,0.0,-3.2014,-3.1662,-3.1461,-3.1085,-3.0608,-3.0608,-3.0934,-3.1377,-3.1142,-3.086,-3.0842,-3.2909,-3.3727,-3.4033,-3.5623,-3.7522,-3.9235,-3.9422,-4.0567,-4.1709,-4.0939,-4.1229,-4.175,-4.1353,-4.2152,-4.3005,-4.2769,-4.3199,-4.3479,-4.285,-4.3377,-4.3808,-4.315,-4.3359,-4.3449,-4.2791,-4.2671,-4.2312,-4.1235,-4.1055,-4.0816,0.0,-3.9858,-3.9559,-3.911,-3.8661,-3.8519,-3.8848,-3.8775,-3.8525,-3.7981,-3.8014,-3.8235,-3.8745,-3.8689,-3.9206,-4.0555,-4.1069,-4.1863,-4.3,-4.3868,-4.4885,-4.5963,-4.6202,-4.6681,-4.7309,-4.7309,-4.7788,-4.8626,-4.912,-4.9763,-5.0644,-5.2217,-5.2995,-5.3294,-5.4431,-5.5119,-5.5658,-5.6705,-5.7513,-5.8261,-3.2089,-3.2591,-3.2893,-3.2315,-3.2842,-3.3621,-3.4374,-3.5554,-3.6631,-3.7209,-3.824,-3.907,-3.9421,-3.9597,-3.9396,-3.8668,-3.809,-3.7236,-3.5931,-3.6533,-3.6433,-3.5257,-3.6307,-3.6533,-3.578,-3.5981,-3.5906,-3.5508,-3.5508,-3.5307,0.0,0.0,0.0,0.0,0.0,-3.239,-3.1687,-3.1687,-3.1361,-3.0884,-3.0884,-3.1311,-3.1863,-3.1361,-3.1436,-3.1912,-3.3036,-3.3485,-3.3751,-3.4977,-3.6839,-3.8749,-3.9341,-4.0955,-4.26,-4.2052,-4.2562,-4.3111,-4.2133,-4.2602,-4.329,-4.329,-4.329,-4.329,-4.329,-4.3838,-4.4137,-4.3439,-4.3828,-4.4107,-4.3409,-4.329,-4.2931,-4.1893,-4.1782,-4.1542,0.0,-4.0756,-4.0606,-4.0157,-3.932,-3.902,-3.9709,-3.914,-3.8751,-3.8751,-3.8495,-3.8672,-3.9585,-3.9008,-3.9524,-4.1511,-4.1256,-4.1901,-4.3648,-4.4347,-4.5214,-4.6279,-4.6561,-4.701,-4.7668,-4.7668,-4.8147,-4.9015,-4.9434,-5.0122,-5.0973,-5.2306,-5.3114,-5.3623,-5.4491,-5.497,-5.5329,-5.6615,-5.7693,-5.853,-3.3169,-3.3093,-3.2943,-3.239,-3.3219,-3.4299,-3.5382,-3.6081,-3.7084,-3.8718,-3.8944,-3.932,-4.035,-3.9973,-3.9647,-3.9647,-3.9145,-3.819,-3.6556,-3.7412,-3.7036,-3.4806,-3.5805,-3.5881,-3.4751,-3.5232,-3.5533,-3.5508,-3.5533,0.0,0.0,0.0,0.0,0.0,-3.3897,-3.3294,-3.2265,-3.2265,-3.1913,-3.1386,-3.1411,-3.1461,-3.1562,-3.2014,-3.2918,-3.3852,-3.3083,-3.2941,-3.3169,-3.3696,-3.5036,-3.6774,-3.8428,-4.0168,-4.172,-4.2277,-4.2851,-4.314,-4.262,-4.2851,-4.329,-4.329,-4.329,-4.329,-4.329,-4.3838,-4.4137,-4.3439,-4.3828,-4.4107,-4.3409,-4.329,-4.312,-4.25,-4.241,-4.2171,-4.1474,-4.1444,-4.1474,-4.1482,-4.0337,-3.9798,-4.0337,-3.9768,-3.9343,-3.9343,-3.9343,-3.9948,-4.1265,-4.0266,-4.08,-4.325,-4.2293,-4.2573,-4.4366,-4.5035,-4.5693,-4.6339,-4.704,-4.7668,-4.8297,-4.8327,-4.9045,-5.0196,-5.0226,-5.102,-5.2217,-5.2276,-5.3054,-5.4221,-5.4251,-5.467,-5.5418,-5.6615,-5.7932,-5.9099,-3.3018,-3.3395,-3.3646,-3.3495,-3.4048,-3.4876,-3.5981,-3.696,-3.7889,-3.8768,-3.922,-3.9597,-3.9873,-3.9421,-3.9094,-3.9094,-3.8567,-3.7864,-3.7036,-3.7613,-3.7211,-3.5357,-3.6383,-3.6257,-3.4705,-3.5655,-3.5956,-3.5508,-3.5956,0.0,-3.6132,0.0,0.0,0.0,0.0,-3.352,-3.2842,-3.2842,-3.229,-3.1411,-3.1838,-3.2516,-3.3144,-3.2014,-3.2817,-3.4394,-3.3368,-3.3073,-3.3093,-3.3244,-3.4744,-3.6694,-3.7977,-3.9884,-4.1765,-4.2773,-4.317,-4.326,-4.312,-4.317,-4.329,-4.329,-4.329,-4.329,-4.329,-4.3838,-4.4137,-4.3439,-4.3828,-4.4107,-4.3409,-4.329,-4.312,-4.25,-4.241,-4.2171,-4.1474,-4.2222,-4.2641,-4.2201,-4.1841,-4.1332,-4.0487,-3.9349,-3.8661,-3.8661,-3.8661,-3.923,-4.0576,-4.0821,-4.1891,-4.3977,-4.3764,-4.4299,-4.5741,-4.5963,-4.6381,-4.707,-4.7728,-4.8117,-4.8297,-4.885,-4.9464,-5.0226,-5.0704,-5.1439,-5.2276,-5.3294,-5.3892,-5.4251,-5.476,-5.5457,-5.6221,-5.6549,-5.7676,-5.9099,-3.3068,-3.352,-3.4123,-3.4851,-3.5228,-3.573,-3.6631,-3.7462,-3.8216,-3.8844,-3.9145,-3.9245,-3.8994,-3.8894,-3.8768,-3.8517,-3.8191,-3.7764,-3.7211,-3.7462,-3.7111,-3.5956,-3.6257,-3.5931,-3.4751,-3.5328,-3.5504,-3.5132,-3.573,0.0,-3.6405,0.0,0.0,0.0,0.0,-3.4299,-3.3796,-3.3796,-3.342,-3.2867,-3.3194,-3.3696,0.0,-3.2943,-3.3269,-3.4248,-3.3395,-3.3111,-3.3111,-3.3111,-3.4252,-3.6027,-3.7687,-3.9438,-4.1169,-4.282,-4.329,-4.329,-4.329,-4.329,-4.329,-4.329,-4.329,-4.329,-4.329,-4.3589,-4.3738,-4.3379,-4.3589,-4.3738,-4.3349,-4.329,-4.326,-4.324,-4.3489,-4.3549,-4.315,-4.3718,-4.4047,-4.3728,-4.315,-4.2491,-4.1743,-4.0217,-3.9379,-3.9679,-3.9439,-3.9858,0.0,-4.1142,-4.2051,-4.4216,-4.4104,-4.4714,-4.6279,-4.6621,-4.707,-4.7728,-4.8117,-4.8596,-4.9134,-4.9523,-5.0062,-5.0644,-5.1379,-5.2007,-5.2725,-5.3773,-5.4371,-5.467,-5.5029,-5.5483,-5.5939,-5.5939,-5.7279,-5.9099,-3.3244,-3.3746,-3.4675,-3.6153,-3.6581,-3.6908,-3.7337,-3.7739,-3.8216,-3.8844,-3.8844,-3.8567,-3.8065,-3.8391,-3.8442,-3.7939,-3.7889,-3.7688,-3.7211,-3.7186,-3.696,-3.6531,-3.5956,-3.5307,-3.468,-3.4756,-3.4756,-3.468,-3.5232,0.0,0.0,0.0,0.0,0.0,0.0,0.0,-3.4781,-3.4901,-3.4851,-3.4726,-3.4756,-3.4731,-3.463,-3.4123,-3.3897,-3.3847,-3.3345,-3.3187,-3.3111,-3.3111,-3.3796,-3.5105,-3.7476,-3.8976,-4.0318,-4.2659,-4.329,-4.329,-4.329,-4.329,-4.329,-4.329,-4.329,-4.329,-4.329,-4.329,-4.329,-4.329,-4.329,-4.329,-4.329,-4.3349,-4.3648,-4.4347,-4.4915,-4.5304,-4.5304,-4.5304,-4.5304,-4.5304,-4.4197,0.0,-4.3409,-4.1683,-4.0756,-4.1362,-4.0846,-4.1055,-4.2321,0.0,-4.1953,-4.4366,-4.4027,-4.476,-4.6668,-4.71,-4.7728,-4.8536,-4.8446,-4.9045,-5.0196,-5.0285,-5.0644,-5.1259,-5.2007,-5.2665,-5.3234,-5.4012,-5.467,-5.5179,-5.5179,-5.5202,-5.5211,-5.5211,-5.6829,-5.9099,-3.3596,-3.4926,-3.6078,-3.6355,-3.7561,-3.8517,-3.8617,-3.8241,-3.8216,-3.8844,-3.8467,-3.8115,-3.8015,-3.7688,-3.7437,-3.7337,-3.7337,-3.7287,-3.7186,-3.7186,-3.7136,-3.7036,-3.6508,-3.5755,-3.4705,-3.5132,-3.5132,-3.468,-3.5232,-3.583,0.0,0.0,0.0,0.0,0.0,0.0,-3.5382,-3.5881,-3.5554,-3.4731,-3.5182,-3.5082,-3.463,-3.4123,-3.3897,-3.3897,-3.3796,-3.347,-3.3111,-3.3111,-3.3796,-3.5105,-3.7476,-3.8976,-4.0318,-4.2659,-4.329,-4.329,-4.329,-4.329,-4.329,-4.329,-4.329,-4.329,-4.329,-4.329,-4.329,-4.329,-4.329,-4.329,-4.329,-4.3738,-4.4347,-4.5005,-4.5214,-4.5304,-4.5304,-4.5304,-4.5304,-4.5304,-4.4616,-4.4137,-4.4137,-4.2372,-4.1265,-4.1422,-4.1265,-4.1572,-4.2351,0.0,-4.3021,0.0,-4.5049,-4.6211,0.0,0.0,-4.8177,-4.9837,-4.9344,-4.9494,-5.0196,-5.0764,-5.1109,-5.1289,-5.2486,-5.3084,-5.3264,-5.4521,-5.5089,-5.5179,-5.5179,-5.5202,-5.5211,-5.5211,-5.6829,-5.9099,-3.46,-3.5629,-3.6581,-3.7111,-3.814,-3.8969,-3.9245,-3.8818,-3.8442,-3.8417,-3.7939,-3.7462,-3.7186,-3.7161,-3.7061,-3.6832,-3.6807,-3.6807,-3.6807,-3.6807,-3.6807,-3.6807,-3.6556,-3.5981,-3.5132,-3.5357,-3.5357,-3.5107,-3.5357,-3.583,0.0,0.0,0.0,0.0,0.0,-3.5981,0.0,0.0,-3.6103,-3.5604,-3.5855,-3.5805,-3.5504,-3.4951,-3.4705,-3.468,-3.4424,-3.4564,-3.4788,-3.4142,-3.4692,-3.5991,-3.8,-3.9606,-4.1127,-4.282,-4.329,-4.329,-4.329,-4.329,-4.329,-4.329,-4.329,-4.329,-4.329,-4.329,-4.329,-4.329,-4.329,-4.3409,-4.3738,-4.4377,-4.5035,-4.5723,-4.6112,-4.6352,-4.6352,-4.6352,-4.6202,-4.5873,-4.5244,-4.4676,-4.4347,-4.315,-4.2402,-4.2402,-4.2073,-4.2201,-4.2821,0.0,-4.3599,0.0,0.0,0.0,-4.8745,0.0,-4.8955,-5.0196,-4.9912,-5.0122,-5.0734,-5.1439,-5.1528,-5.1319,-5.2995,-5.3503,-5.3294,-5.464,-5.5179,-5.5209,-5.5206,-5.5167,-5.5381,-5.672,-5.8005,-5.9099,-3.5558,-3.6257,-3.7084,-3.8015,-3.8668,-3.9195,-3.9622,-3.922,-3.8668,-3.809,-3.7538,-3.7033,-3.6455,-3.6807,-3.6883,-3.6455,-3.6405,-3.6405,-3.6405,-3.6405,-3.6405,-3.6405,-3.6405,-3.6107,-3.5508,-3.5508,-3.5508,-3.5508,-3.5508,-3.583,0.0,0.0,0.0,0.0,0.0,0.0,0.0,0.0,-3.6405,-3.6405,-3.6405,-3.6405,-3.6355,-3.6008,-3.5897,-3.5867,-3.568,-3.6149,-3.6764,-3.6048,-3.6332,-3.7322,-3.8892,-4.0406,-4.1794,-4.2981,-4.329,-4.329,-4.329,-4.329,-4.329,-4.329,-4.3409,-4.3499,-4.3499,-4.3618,-4.3678,-4.3529,-4.3499,-4.3738,-4.4586,-4.5155,-4.5723,-4.6411,-4.698,-4.7309,-4.7309,-4.7309,-4.701,-4.6202,-4.5633,-4.4915,-4.3988,-4.3499,-4.323,-4.315,-4.2791,-4.2791,-4.326,0.0,0.0,0.0,0.0,-4.71,-4.8686,0.0,-4.9733,-5.0614,-5.0315,-5.0524,-5.1229,-5.1887,-5.1917,-5.1528,-5.3414,-5.3982,-5.3683,-5.476,-5.5188,-5.5197,-5.5202,-5.5212,-5.5506,-5.8158,-5.9105,-5.9099,-3.6182,-3.7136,-3.804,-3.8668,-3.9245,-3.9647,-3.9697,-3.922,-3.8668,-3.809,-3.7538,-3.7033,-3.6455,-3.6455,-3.6455,-3.6405,-3.6405,-3.6405,-3.6405,-3.6405,-3.6405,-3.6405,-3.6405,-3.6107,-3.5508,-3.5508,-3.5508,-3.5508,-3.5508,-3.583,-3.6405,0.0,0.0,0.0,0.0,0.0,0.0,-3.6405,-3.6405,-3.6405,-3.6405,-3.6405,-3.6424,-3.6962,-3.713,-3.7237,-3.8249,-3.8336,-3.8186,-3.9074,-3.9118,-3.8948,-4.024,-4.1097,-4.1794,-4.2981,-4.329,-4.329,-4.329,-4.329,-4.329,-4.329,-4.3738,-4.4227,-4.4227,-4.4676,-4.4945,-4.4347,-4.4227,-4.4616,-4.5903,-4.613,-4.6441,-4.71,-4.7279,-4.7309,-4.7309,-4.7309,-4.683,-4.5544,-4.5334,-4.4556,-4.277,-4.303,-4.309,-4.253,-4.294,-4.323,-4.329,0.0,0.0,-4.5244,-4.5963,-4.7475,-4.9986,-4.9523,-5.0182,-5.2007,-5.0764,-5.0524,-5.1229,-5.1887,-5.2157,-5.2187,-5.3593,-5.4521,-5.4999,-5.5149,-5.5176,-5.5181,-5.521,-5.5204,-5.5536,-5.8141,-5.9105,-5.9099,-3.7236,-3.799,-3.8592,-3.8869,-3.932,-3.9697,-3.9697,-3.9496,-3.917,-3.8592,-3.804,-3.7588,-3.7362,-3.7337,-3.7337,-3.7337,-3.7036,-3.6908,-3.6908,-3.6581,-3.6405,-3.6405,-3.6405,-3.6304,-3.6031,-3.6358,-3.6358,-3.6031,-3.6709,-3.696,-3.6908,0.0,0.0,0.0,0.0,-3.6405,-3.6405,-3.6405,-3.6405,-3.6405,-3.6405,-3.6405,-3.6521,-3.7417,-3.7764,-3.7944,-3.9136,-3.983,-4.0319,-4.0788,-4.0532,-4.0203,-4.1015,-4.1907,-4.271,-4.317,-4.329,-4.329,-4.329,-4.329,-4.3379,-4.3798,-4.4107,-4.4407,-4.4825,-4.5095,-4.5214,-4.4945,-4.4915,-4.5185,-4.6142,-4.6279,-4.6488,-4.7189,-4.7309,-4.7309,-4.7309,-4.695,-4.6352,-4.5394,-4.4945,-4.4257,-4.306,-4.314,-4.32,-4.297,-4.314,-4.329,-4.329,0.0,0.0,-4.5274,0.0,-4.7788,-4.9643,-4.9793,-5.0451,-5.1588,-5.1079,-5.1169,-5.1828,-5.2486,-5.3234,-5.4012,-5.4022,-5.4471,-5.5209,-5.5206,-5.5172,-5.5218,-5.5181,-5.6166,-5.769,-5.8704,-5.9117,-5.9099,-3.814,-3.8592,-3.8969,-3.9094,-3.9446,-3.9697,-3.9697,-3.9697,-3.9546,-3.917,-3.8743,-3.8366,-3.804,-3.8015,-3.8015,-3.8015,-3.7638,-3.7437,-3.7437,-3.7061,-3.6832,-3.6656,-3.6656,-3.6656,-3.6656,-3.6985,-3.7061,-3.6883,-3.7638,-3.7814,-3.7437,-3.7437,0.0,0.0,-3.6656,-3.6656,-3.6656,-3.6656,-3.6656,-3.6656,-3.6656,-3.6656,-3.6773,-3.8096,-3.8756,-3.9043,-4.0417,-4.1449,-4.2111,-4.2111,-4.1861,-4.1609,-4.1966,-4.2629,-4.329,-4.329,-4.329,-4.329,-4.329,-4.3439,-4.3708,-4.4197,-4.4616,-4.5035,-4.5484,-4.5753,-4.5873,-4.5873,-4.5723,-4.5813,-4.6501,-4.6578,-4.677,-4.7219,-4.7309,-4.7249,-4.704,-4.6621,-4.5933,-4.4855,-4.4646,-4.4107,-4.288,-4.326,-4.3439,-4.306,-4.3379,-4.3589,-4.3589,0.0,0.0,0.0,0.0,0.0,-4.9299,-5.0092,-5.0704,-5.1229,-5.1409,-5.1738,-5.2217,-5.3084,-5.4102,-5.5149,-5.456,-5.462,-5.5209,-5.5224,-5.5218,-5.5293,-5.6054,-5.7494,-5.9128,-5.9093,-5.9099,-5.9099,-3.8743,-3.8919,-3.9095,-3.9597,-3.9697,-3.9697,-3.9697,-3.9697,-3.9697,-3.9697,-3.9672,-3.9245,-3.8115,-3.8015,-3.8015,-3.8015,-3.799,-3.799,-3.799,-3.799,-3.7739,-3.7186,-3.7186,-3.7186,-3.7186,-3.7186,-3.7437,-3.799,-3.799,-3.8015,-3.799,0.0,-3.7688,-3.7186,-3.7186,-3.7186,-3.7186,-3.7186,-3.7186,-3.7186,-3.7186,-3.7186,-3.74,-3.9204,-4.02,-4.088,-4.2661,-4.325,-4.329,-4.329,-4.329,-4.329,-4.329,-4.329,-4.329,-4.329,-4.329,-4.329,-4.329,-4.3768,-4.4317,-4.4317,-4.5304,-4.6249,-4.6279,-4.68,-4.7279,-4.7279,-4.677,-4.6501,-4.716,-4.7309,-4.7309,-4.7309,-4.7309,-4.707,-4.6441,-4.6322,-4.5603,-4.3658,-4.4526,-4.4257,-4.1654,-4.315,-4.3778,-4.25,-4.3569,-4.4317,-4.4317,-4.4317,0.0,-4.6262,-4.7578,0.0,-4.9299,-5.0571,-5.1199,-5.1229,-5.1887,-5.2187,-5.2247,-5.3593,-5.4551,-5.5179,-5.5179,-5.5179,-5.5209,-5.5224,-5.5182,-5.544,-5.8015,-5.9075,-5.9099,-5.9099,-5.9099,-5.9099,-3.932,-3.9421,-3.9496,-3.9672,-3.9697,-3.9697,-3.9697,-3.9697,-3.9697,-3.9697,-3.9697,-3.9546,-3.9195,-3.9145,-3.9145,-3.9145,-3.8818,-3.8592,-3.8592,-3.8216,-3.7914,-3.7739,-3.7739,-3.7739,-3.7739,-3.814,-3.8216,-3.8015,-3.8793,-3.8969,-3.8592,-3.8592,-3.8291,-3.7739,-3.7337,-3.7387,-3.7713,-3.7337,-3.7387,-3.7713,-3.7337,-3.7942,-3.9128,-4.0132,-4.1383,-4.281,-4.3667,-4.3977,-4.3888,-4.3439,-4.329,-4.329,-4.329,-4.329,-4.329,-4.329,-4.329,-4.3379,-4.3858,-4.4167,-4.4526,-4.5454,-4.595,-4.6399,-4.689,-4.716,-4.7189,-4.6741,-4.6429,-4.6262,-4.5992,-4.5933,-4.5933,-4.5933,-4.5933,-4.5873,-4.5663,-4.5244,-4.4736,-4.4107,-4.4377,-4.4287,-4.3449,-4.3958,-4.4317,-4.4347,-4.4317,-4.4317,-4.4317,0.0,0.0,0.0,-4.8267,0.0,-4.9912,-5.078,-5.1229,-5.1229,-5.1439,-5.2007,-5.2905,-5.4251,-5.4999,-5.5179,-5.5179,-5.5179,-5.5209,-5.5224,-5.6243,-5.7918,-5.8783,-5.9075,-5.9099,-5.9099,-5.9099,-5.9099,-3.9622,-3.9697,-3.9697,-3.9697,-3.9697,-3.9697,-3.9697,-3.9697,-3.9697,-3.9697,-3.9697,-3.9697,-3.9697,-3.9697,-3.9697,-3.9697,-3.9371,-3.917,-3.917,-3.8843,-3.8542,-3.8341,-3.8341,-3.8341,-3.8341,-3.8693,-3.8793,-3.8642,-3.9346,-3.9521,-3.917,-3.917,-3.8868,-3.8316,-3.7965,-3.8015,-3.8316,-3.7965,-3.7889,-3.799,-3.7864,-3.8403,-3.9346,-4.065,-4.1982,-4.3307,-4.401,-4.4317,-4.4116,-4.3027,-4.2941,-4.324,-4.3086,-4.3297,-4.3678,-4.3678,-4.3828,-4.4167,-4.4556,-4.4885,-4.5274,-4.607,-4.6501,-4.68,-4.7219,-4.7309,-4.7189,-4.677,-4.6681,-4.6561,-4.6142,-4.6052,-4.5963,-4.5723,-4.5693,-4.5424,-4.4676,-4.4407,-4.4227,-4.3917,-4.4377,-4.4676,-4.4676,-4.4915,-4.5125,-4.5274,-4.5155,-4.5065,0.0,0.0,-4.6741,-4.7638,-4.8716,-4.9583,-5.0196,-5.0853,-5.1229,-5.1229,-5.1708,-5.2516,-5.3593,-5.47,-5.5179,-5.5179,-5.5179,-5.5179,-5.5209,-5.5224,-5.6161,-5.7745,-5.8753,-5.9075,-5.9099,-5.9099,-5.9099,-5.9099,-3.9697,-3.9697,-3.9697,-3.9697,-3.9697,-3.9697,-3.9697,-3.9697,-3.9697,-3.9697,-3.9697,-3.9697,-3.9697,-3.9697,-3.9697,-3.9697,-3.9697,-3.9697,-3.9697,-3.9697,-3.9471,-3.8994,-3.8969,-3.8969,-3.8969,-3.8969,-3.917,-3.9697,-3.9697,-3.9697,-3.9697,-3.9697,-3.9421,-3.8919,-3.8944,-3.8944,-3.8969,-3.8894,-3.8517,-3.8115,-3.8567,-3.8517,-3.8434,-4.0695,-4.2049,-4.2833,-4.3796,-4.4255,-4.4094,-4.2221,-4.2386,-4.322,-4.2827,-4.3507,-4.4377,-4.4377,-4.4825,-4.5304,-4.5364,-4.5843,-4.6279,-4.6339,-4.686,-4.7309,-4.7309,-4.7309,-4.7309,-4.7249,-4.7249,-4.7219,-4.7189,-4.716,-4.695,-4.6249,-4.613,-4.5472,-4.3559,-4.3828,-4.4047,-4.3439,-4.4526,-4.5304,-4.5364,-4.5933,-4.6082,-4.5484,-4.5992,0.0,0.0,0.0,-4.701,-4.8237,-4.897,-4.9583,-5.0196,-5.0853,-5.1229,-5.1319,-5.2576,-5.3533,-5.4221,-5.491,-5.5209,-5.5179,-5.5209,-5.5209,-5.5209,-5.5194,-5.5204,-5.5463,-5.8068,-5.9098,-5.9069,-5.9099,-5.9099,-5.9099,-3.9622,-3.9697,-3.9697,-3.9697,-3.9697,-3.9697,-3.9697,-3.9697,-3.9697,-3.9697,-3.9697,-3.9697,-3.9697,-3.9697,-3.9697,-3.9697,-3.9697,-3.9697,-3.9697,-3.9697,-3.9647,-3.9496,-3.9496,-3.9496,-3.9496,-3.9496,-3.9572,-3.9697,-3.9697,-3.9697,-3.9697,-3.9697,-3.9622,-3.9471,-3.9069,-3.9145,-3.9446,-3.8567,-3.8391,-3.8592,-3.7864,-3.8602,-4.0144,-4.0292,-4.2158,-4.4487,-4.2879,-4.3502,-4.4691,-4.2407,-4.2386,-4.3369,-4.3753,-4.4441,-4.5065,-4.5065,-4.5185,-4.5394,-4.5933,-4.6202,-4.6399,-4.695,-4.7189,-4.7309,-4.7309,-4.7309,-4.716,-4.6651,-4.6561,-4.6381,-4.5873,-4.5753,-4.5544,-4.4885,-4.4796,-4.4436,-4.3439,-4.3439,-4.3648,-4.4007,-4.4796,-4.5514,-4.6022,-4.619,-4.6471,-4.68,-4.6501,-4.6488,-4.704,-4.7549,-4.7967,-4.8267,-4.897,-4.9583,-5.0196,-5.0853,-5.1468,-5.1977,-5.2785,-5.3533,-5.4251,-5.4887,-5.5185,-5.5209,-5.5185,-5.5185,-5.5209,-5.5218,-5.5194,-5.5456,-5.8083,-5.9093,-5.9098,-5.9093,-5.9099,-5.9099,-3.9647,-3.9697,-3.9697,-3.9697,-3.9697,-3.9697,-3.9697,-3.9697,-3.9697,-3.9697,-3.9697,-3.9697,-3.9697,-3.9697,-3.9697,-3.9697,-3.9697,-3.9697,-3.9697,-3.9697,-3.9697,-3.9697,-3.9697,-3.9697,-3.9697,-3.9697,-3.9697,-3.9697,-3.9697,-3.9697,-3.9697,-3.9697,-3.9697,-3.9672,-3.9371,-3.9421,-3.9647,-3.9044,-3.8818,-3.8894,-3.8467,-3.8966,-4.0039,-4.1122,-4.2618,-4.3998,-4.3525,-4.3988,-4.4512,-4.2308,-4.2562,-4.3777,-4.395,-4.4798,-4.5813,-4.6112,-4.6202,-4.6292,-4.6681,-4.677,-4.686,-4.7219,-4.7309,-4.7309,-4.7309,-4.7309,-4.7219,-4.686,-4.677,-4.6651,-4.6292,-4.6202,-4.5903,-4.4915,-4.4766,-4.4317,-4.306,-4.3419,-4.3858,-4.4287,-4.5185,-4.6022,-4.6711,-4.704,-4.7249,-4.7309,-4.7249,0.0,-4.7309,-4.7938,-4.8416,-4.876,-4.9374,-5.0032,-5.0644,-5.1349,-5.1858,-5.2217,-5.3174,-5.3832,-5.4062,-5.4845,-5.5202,-5.5185,-5.5197,-5.5226,-5.5181,-5.5181,-5.5204,-5.5463,-5.8076,-5.913,-5.9135,-5.9093,-5.9099,-5.9099,-3.9672,-3.9697,-3.9697,-3.9697,-3.9697,-3.9697,-3.9697,-3.9697,-3.9697,-3.9697,-3.9697,-3.9697,-3.9697,-3.9697,-3.9697,-3.9697,-3.9697,-3.9697,-3.9697,-3.9697,-3.9697,-3.9697,-3.9697,-3.9697,-3.9697,-3.9697,-3.9697,-3.9697,-3.9697,-3.9697,-3.9697,-3.9697,-3.9697,-3.9697,-3.9697,-3.9697,-3.9697,-3.9597,-3.9295,-3.8944,-3.9295,-3.9348,-3.9497,-4.2075,-4.2968,-4.2952,-4.4428,-4.4715,-4.4214,-4.2495,-4.3031,-4.4393,-4.4091,-4.5049,-4.6399,-4.71,-4.7309,-4.7309,-4.7309,-4.7309,-4.7309,-4.7309,-4.7309,-4.7309,-4.7309,-4.7309,-4.7309,-4.7309,-4.7309,-4.7309,-4.7309,-4.7309,-4.689,-4.5663,-4.5364,-4.4706,-4.3069,-4.3688,-4.4377,-4.4586,-4.5633,-4.6621,-4.7369,-4.7967,-4.8087,-4.7638,-4.8117,-4.8177,-4.7638,-4.8237,-4.8835,-4.9449,-4.9942,-5.0495,-5.1199,-5.1858,-5.2247,-5.2366,-5.3604,-5.4152,-5.4112,-5.4862,-5.5175,-5.5226,-5.5597,-5.5804,-5.5797,-5.5797,-5.5788,-5.6013,-5.8225,-5.9128,-5.9093,-5.9099,-5.9099,-5.9129,-3.9597,-3.9697,-3.9697,-3.9697,-3.9697,-3.9697,-3.9697,-3.9697,-3.9697,-3.9697,-3.9697,-3.9697,-3.9697,-3.9697,-3.9697,-3.9697,-3.9697,-3.9697,-3.9697,-3.9697,-3.9697,-3.9697,-3.9697,-3.9697,-3.9697,-3.9697,-3.9697,-3.9697,-3.9697,-3.9697,-3.9697,-3.9697,-3.9697,-3.9697,-3.9697,-3.9697,-3.9672,-3.9195,-3.8994,-3.8894,-3.8442,-3.9162,-4.0552,-4.102,-4.2395,-4.4036,-4.3307,-4.3979,-4.4959,-4.3687,-4.4128,-4.5203,-4.5722,-4.6062,-4.6399,-4.71,-4.7309,-4.7309,-4.7309,-4.7309,-4.7309,-4.7309,-4.7309,-4.7309,-4.7309,-4.7309,-4.7309,-4.7309,-4.7309,-4.7309,-4.7309,-4.7309,-4.707,-4.6292,-4.5663,-4.5185,-4.4885,-4.4526,-4.4736,-4.5831,-4.616,-4.68,-4.8027,-4.8237,-4.8476,-4.897,-4.912,-4.912,-4.903,-4.9583,-4.9927,-5.0046,-5.0136,-5.0495,-5.1199,-5.1858,-5.2486,-5.3025,-5.3655,-5.4327,-5.5002,-5.5136,-5.5178,-5.5345,-5.755,-5.8512,-5.8481,-5.8481,-5.8459,-5.8549,-5.8957,-5.9115,-5.9121,-5.9063,-5.9099,-5.9189,-3.9647,-3.9697,-3.9697,-3.9697,-3.9697,-3.9697,-3.9697,-3.9697,-3.9697,-3.9697,-3.9697,-3.9697,-3.9697,-3.9697,-3.9697,-3.9697,-3.9697,-3.9697,-3.9697,-3.9697,-3.9697,-3.9697,-3.9697,-3.9697,-3.9697,-3.9697,-3.9697,-3.9697,-3.9697,-3.9697,-3.9697,-3.9697,-3.9697,-3.9697,-3.9697,-3.9697,-3.9672,-3.9421,-3.9145,-3.8919,-3.8894,-3.9695,-4.0918,-4.1887,-4.3176,-4.4422,-4.46,-4.492,-4.5221,-4.4659,-4.5094,-4.5903,-4.619,-4.6561,-4.692,-4.7219,-4.7309,-4.7309,-4.7309,-4.7309,-4.7309,-4.7309,-4.7309,-4.7309,-4.7309,-4.7309,-4.7309,-4.7309,-4.7309,-4.7309,-4.7309,-4.7309,-4.71,-4.6399,-4.6052,-4.5723,-4.5334,-4.5364,-4.5633,-4.6219,-4.6651,-4.7219,-4.8177,-4.864,-4.9,-4.9299,-4.9583,-4.9643,-4.9329,-4.9883,-5.0345,-5.0704,-5.0734,-5.1079,-5.1738,-5.2396,-5.3025,-5.3604,-5.4259,-5.4832,-5.5189,-5.5178,-5.5955,-5.7355,-5.8607,-5.9098,-5.9084,-5.9084,-5.9084,-5.9145,-5.9609,-5.9495,-5.9201,-5.9932,-5.9967,-5.9727,-3.9697,-3.9697,-3.9697,-3.9697,-3.9697,-3.9697,-3.9697,-3.9697,-3.9697,-3.9697,-3.9697,-3.9697,-3.9697,-3.9697,-3.9697,-3.9697,-3.9697,-3.9697,-3.9697,-3.9697,-3.9697,-3.9697,-3.9697,-3.9697,-3.9697,-3.9697,-3.9697,-3.9697,-3.9697,-3.9697,-3.9697,-3.9697,-3.9697,-3.9697,-3.9697,-3.9697,-3.9697,-3.9697,-3.9446,-3.9145,-3.9854,-4.0685,-4.1587,-4.3291,-4.4305,-4.4982,-4.6129,-4.6112,-4.5574,-4.5693,-4.6112,-4.6518,-4.6518,-4.689,-4.7309,-4.7309,-4.7309,-4.7309,-4.7309,-4.7309,-4.7309,-4.7309,-4.7309,-4.7309,-4.7309,-4.7309,-4.7309,-4.7309,-4.7309,-4.7309,-4.7309,-4.7309,-4.713,-4.6621,0.0,-4.6202,-4.5813,-4.6232,-4.6621,-4.677,-4.7369,-4.8027,-4.8686,-4.9194,-4.9553,-4.9703,-5.0182,-5.0301,-5.0018,-5.0421,-5.0943,-5.1648,-5.1678,-5.1917,-5.2426,-5.3084,-5.3604,-5.3883,-5.4773,-5.5204,-5.519,-5.5837,-5.7215,-5.9098,-5.9117,-5.9447,-6.003,-6.003,-5.9771,-5.9512,-6.0346,-6.0166,-5.9488,-6.0685,-6.0775,-6.0416,-3.9697,-3.9697,-3.9697,-3.9697,-3.9697,-3.9697,-3.9697,-3.9697,-3.9697,-3.9697,-3.9697,-3.9697,-3.9697,-3.9697,-3.9697,-3.9697,-3.9697,-3.9697,-3.9697,-3.9697,-3.9697,-3.9697,-3.9697,-3.9697,-3.9697,-3.9697,-3.9697,-3.9697,-3.9697,-3.9697,-3.9697,-3.9697,-3.9697,-3.9697,-3.9697,-3.9697,-3.9697,-3.9697,-3.9672,-3.9725,-4.0969,-4.2204,-4.3448,-4.4766,-4.5624,-4.6254,-4.6967,-4.68,-4.6352,-4.695,-4.7189,-4.7249,-4.7249,-4.7279,-4.7309,-4.7309,-4.7309,-4.7309,-4.7309,-4.7309,-4.7309,-4.7309,-4.7309,-4.7309,-4.7309,-4.7309,-4.7309,-4.7309,-4.7309,-4.7309,-4.7309,-4.7309,-4.7279,-4.7249,0.0,0.0,-4.707,-4.7189,-4.7459,-4.8057,-4.8716,-4.9374,-4.9986,-5.0076,-5.0375,-5.102,-5.1109,-5.1379,-5.1947,-5.2037,-5.2366,-5.3025,-5.3025,-5.3054,-5.3114,-5.3773,-5.4022,-5.39,-5.4783,-5.5224,-5.5283,-5.7713,-5.8925,-5.9069,-5.9099,-6.0524,-6.2842,-6.2842,-6.1849,-6.0376,-6.1297,-6.0946,-6.0086,-6.0835,-6.1074,-6.1134,-3.9697,-3.9697,-3.9697,-3.9697,-3.9697,-3.9697,-3.9697,-3.9697,-3.9697,-3.9697,-3.9697,-3.9697,-3.9697,-3.9697,-3.9697,-3.9697,-3.9697,-3.9697,-3.9697,-3.9697,-3.9697,-3.9697,-3.9697,-3.9697,-3.9697,-3.9697,-3.9697,-3.9697,-3.9697,-3.9697,-3.9697,-3.9697,-3.9697,-3.9697,-3.9697,-3.9697,-3.9697,-3.9697,-3.9496,-3.9348,-4.0939,-4.2135,-4.3166,-4.479,-4.602,-4.695,-4.7219,-4.716,-4.698,-4.7219,-4.7309,-4.7309,-4.7309,-4.7309,-4.7309,-4.7309,-4.7309,-4.7309,-4.7309,-4.7309,-4.7309,-4.7309,-4.7309,-4.7309,-4.7309,-4.7309,-4.7309,-4.7309,-4.7309,-4.7309,-4.7309,-4.7309,-4.7309,-4.7309,0.0,-4.716,-4.7818,-4.7908,-4.8147,-4.885,-4.9149,-4.9523,-5.0136,-5.0196,-5.0465,-5.1169,-5.1588,-5.1947,-5.2187,-5.3384,-5.4162,-5.4431,-5.5209,-5.4988,-5.3684,-5.4449,-5.4773,-5.4702,-5.5072,-5.606,-5.763,-5.8669,-5.9088,-5.9088,-5.9088,-6.0621,-6.3077,-6.3077,-6.2345,-6.1241,-6.1755,-6.1459,-6.0864,-6.1942,-6.2061,-6.1822,-3.9697,-3.9697,-3.9697,-3.9697,-3.9697,-3.9697,-3.9697,-3.9697,-3.9697,-3.9697,-3.9697,-3.9697,-3.9697,-3.9697,-3.9697,-3.9697,-3.9697,-3.9697,-3.9697,-3.9697,-3.9697,-3.9697,-3.9697,-3.9697,-3.9697,-3.9697,-3.9697,-3.9697,-3.9697,-3.9697,-3.9697,-3.9697,-3.9697,-3.9697,-3.9697,-3.9697,-3.9697,-3.9697,-3.9702,-3.9877,-4.1531,-4.2733,-4.374,-4.538,-4.655,-4.7309,-4.7309,-4.7309,-4.7309,-4.7309,-4.7309,-4.7309,-4.7309,-4.7309,-4.7309,-4.7309,-4.7309,-4.7309,-4.7309,-4.7309,-4.7309,-4.7309,-4.7309,-4.7309,-4.7309,-4.7309,-4.7309,-4.7309,-4.7459,-4.7549,-4.7339,-4.7489,-4.7549,-4.7339,-4.7489,-4.7758,-4.8237,-4.8283,-4.8609,-4.9478,-4.9413,-4.9588,-5.0465,-5.0495,-5.0764,-5.1468,-5.1947,-5.2486,-5.3114,-5.464,-5.5598,-5.5777,-5.6825,-5.6527,-5.4908,-5.5367,-5.5501,-5.5201,-5.5192,-5.7021,-6.0379,-6.0365,-6.035,-6.035,-6.035,-6.1399,-6.3101,-6.3101,-6.2574,-6.1871,-6.2268,-6.2002,-6.1553,-6.266,-6.278,-6.248,-3.9697,-3.9697,-3.9697,-3.9697,-3.9697,-3.9697,-3.9697,-3.9697,-3.9697,-3.9697,-3.9697,-3.9697,-3.9697,-3.9697,-3.9697,-3.9697,-3.9697,-3.9697,-3.9697,-3.9697,-3.9697,-3.9697,-3.9697,-3.9697,-3.9697,-3.9697,-3.9697,-3.9697,-3.9697,-3.9697,-3.9697,-3.9697,-3.9697,-3.9697,-3.9697,-3.9697,-3.9697,-3.9697,-4.0465,-4.169,-4.2978,-4.4256,-4.5553,-4.6814,-4.7309,-4.7309,-4.7309,-4.7266,-4.7266,-4.7266,-4.7266,-4.7266,-4.7266,-4.7266,-4.7266,-4.7266,-4.7309,-4.7309,-4.7309,-4.7309,-4.7309,-4.7309,-4.7309,-4.7309,-4.7309,-4.7309,-4.7309,-4.7309,-4.7848,-4.8087,-4.7429,-4.7848,-4.8087,-4.7429,-4.7878,-4.8297,-4.8297,-4.826,-4.8719,-5.0057,-4.9589,-4.9727,-5.1058,-5.1229,-5.1498,-5.2157,-5.2217,-5.3084,-5.5089,-5.5837,-5.6466,-5.7094,-5.7557,-5.7577,-5.7119,-5.672,-5.61,-5.5206,-5.5201,-5.8026,-6.311,-6.3138,-6.3092,-6.3092,-6.3092,-6.3131,-6.309,-6.309,-6.2678,-6.2181,-6.281,-6.266,-6.2181,-6.2839,-6.3079,-6.3079,-3.9697,-3.9697,-3.9697,-3.9697,-3.9697,-3.9697,-3.9697,-3.9697,-3.9697,-3.9697,-3.9697,-3.9697,-3.9697,-3.9697,-3.9697,-3.9697,-3.9697,-3.9697,-3.9697,-3.9697,-3.9697,-3.9697,-3.9697,-3.9697,-3.9697,-3.9697,-3.9697,-3.9697,-3.9697,-3.9898,-4.0249,-3.9873,-3.9898,-4.0249,-3.9873,-3.9697,-3.9749,-4.0642,-4.1269,-4.1789,-4.3975,-4.507,-4.5553,-4.6814,-4.6726,-4.5958,-4.5958,-4.5389,-4.4627,-4.4627,-4.4627,-4.4627,-4.4627,-4.4627,-4.484,-4.5689,-4.5958,-4.6254,-4.7628,-4.7997,-4.7878,-4.7429,-4.7309,-4.7429,-4.7878,-4.7997,-4.8117,-4.8596,-4.888,-4.897,-4.876,-4.888,-4.897,-4.876,-4.888,-4.8834,-4.8296,-4.9034,-4.9587,-4.9503,-5.0169,-5.0745,-5.1182,-5.1229,-5.1498,-5.2157,-5.3503,-5.476,-5.5807,-5.6944,-5.755,-5.7587,-5.8327,-5.8638,-5.8486,-5.8362,-5.8183,-5.7946,-5.7941,-5.974,-6.3082,-6.3086,-6.3126,-6.3126,-6.3126,-6.3129,-6.3074,-6.3074,-6.3014,-6.281,-6.2989,-6.2959,-6.281,-6.3019,-6.3079,-6.3079,-3.9697,-3.9697,-3.9697,-3.9697,-3.9697,-3.9697,-3.9697,-3.9697,-3.9697,-3.9697,-3.9697,-3.9697,-3.9697,-3.9697,-3.9697,-3.9697,-3.9697,-3.9697,-3.9697,-3.9697,-3.9697,-3.9697,-3.9697,-3.9697,-3.9697,-3.9697,-3.9697,-3.9697,-3.9697,-3.9973,-4.0501,-4.0174,-4.0199,-4.0501,-4.0174,-3.9898,-3.98,-4.1069,-4.1591,-4.1838,-4.4349,-4.5115,-4.4794,-4.6077,-4.5779,-4.4627,-4.4627,-4.4163,-4.3504,-4.3504,-4.3669,-4.3815,-4.3815,-4.398,-4.4414,-4.572,-4.6091,-4.6454,-4.8224,-4.8686,-4.8566,-4.8177,-4.8087,-4.8177,-4.8566,-4.8686,-4.882,-4.9239,-4.9464,-4.9583,-4.9359,-4.9494,-4.9583,-4.9359,-4.9494,-4.9488,-4.9069,-4.9457,-4.9846,-4.9988,-5.0239,-5.0603,-5.1152,-5.1439,-5.2097,-5.3294,-5.476,-5.5987,-5.6885,-5.7693,-5.8148,-5.8304,-5.8806,-5.908,-5.9121,-6.0121,-6.0696,-6.0669,-5.9629,-6.0509,-6.3092,-6.3126,-6.3079,-6.3079,-6.3079,-6.3079,-6.3079,-6.3079,-6.3079,-6.3079,-6.3079,-6.3079,-6.3079,-6.3079,-6.3079,-6.3079,-3.9697,-3.9697,-3.9697,-3.9697,-3.9697,-3.9697,-3.9697,-3.9697,-3.9697,-3.9697,-3.9697,-3.9697,-3.9697,-3.9697,-3.9697,-3.9697,-3.9697,-3.9697,-3.9697,-3.9697,-3.9697,-3.9697,-3.9697,-3.9697,-3.9697,-3.9697,-3.9697,-3.9697,-3.9697,-3.9998,-4.0601,-4.0551,-4.0576,-4.0651,-4.0551,-4.0249,-3.9851,-4.1095,-4.1591,-4.1789,-4.4256,-4.4535,-4.3646,-4.4794,-4.4442,-4.3313,-4.3313,-4.3266,-4.317,-4.3225,-4.356,-4.3977,-4.4032,-4.4464,-4.52,-4.6642,-4.7119,-4.7525,-4.8997,-4.9449,-4.9509,-4.9569,-4.9629,-4.9629,-4.9449,-4.9389,-4.9419,-4.9479,-4.9912,-5.0106,-4.9643,-4.9972,-5.0182,-4.9748,-5.0062,-5.0329,-5.0206,-4.9802,-4.9834,-5.0917,-5.0076,-4.996,-5.1148,-5.2007,-5.3234,-5.5059,-5.5897,-5.6855,-5.8052,-5.8171,-5.8501,-5.9069,-5.9099,-5.9129,-5.9075,-6.1549,-6.2845,-6.308,-6.0387,-6.0482,-6.3096,-6.3069,-6.3079,-6.3079,-6.3079,-6.3079,-6.3079,-6.3079,-6.3079,-6.3079,-6.3079,-6.3079,-6.3079,-6.3079,-6.3079,-6.3079,-3.9697,-3.9697,-3.9697,-3.9697,-3.9697,-3.9697,-3.9697,-3.9697,-3.9697,-3.9697,-3.9697,-3.9697,-3.9697,-3.9697,-3.9697,-3.9697,-3.9697,-3.9697,-3.9697,-3.9697,-3.9697,-3.9697,-3.9697,-3.9697,-3.9697,-3.9697,-3.9697,-3.9697,-3.9697,-4.0199,-4.11,-4.0727,-4.0978,-4.181,-4.0902,-4.045,-4.0352,-4.1227,-4.1591,-4.1739,-4.3313,-4.374,-4.3551,-4.3834,-4.3122,-4.2035,-4.2035,-4.1369,-4.0567,-4.1004,-4.1235,-4.1414,-4.1798,-4.2788,-4.4023,-4.5348,-4.6498,-4.7735,-4.9532,-5.0391,-5.093,-5.1439,-5.1947,-5.1917,-5.0361,-5.0032,-5.0182,-5.069,-5.09,-5.1109,-5.1498,-5.1259,-5.1289,-5.2187,-5.2007,-5.1405,-5.0359,-5.0964,-5.1069,-4.9786,-5.0777,-5.1661,-5.193,-5.3533,-5.473,-5.5149,-5.6765,-5.7812,-5.8112,-5.862,-5.8949,-5.9099,-5.9099,-5.908,-5.9071,-5.9674,-6.1036,-6.308,-6.0368,-6.0493,-6.3113,-6.3102,-6.3079,-6.3079,-6.3079,-6.3079,-6.3079,-6.3079,-6.3079,-6.3079,-6.3079,-6.3079,-6.3079,-6.3079,-6.3079,-6.2701,-3.9697,-3.9697,-3.9697,-3.9697,-3.9697,-3.9697,-3.9697,-3.9697,-3.9697,-3.9697,-3.9697,-3.9697,-3.9697,-3.9697,-3.9697,-3.9697,-3.9697,-3.9697,-3.9697,-3.9697,-3.9697,-3.9697,-3.9697,-3.9697,-3.9697,-3.9948,-3.9948,-3.9697,-3.9948,-4.0526,-4.1275,-4.1304,-4.1605,-4.2187,-4.1555,-4.1153,-4.093,-4.1956,-4.1873,-4.1232,-4.3123,-4.2982,-4.1739,-4.235,-4.1789,-4.0744,-4.1002,-4.0797,-4.0526,-4.0802,-4.1078,-4.1436,-4.2385,-4.3361,-4.4543,-4.6556,-4.7897,-4.9069,-5.0721,-5.1648,-5.2247,-5.2576,-5.2417,-5.2063,-5.1715,-5.1409,-5.1259,-5.1618,-5.1439,-5.1319,-5.1678,-5.1708,-5.1917,-5.2606,-5.2695,-5.2394,-5.1729,-5.2248,-5.2275,-5.1258,-5.204,-5.2785,-5.3114,-5.4401,-5.5448,-5.6047,-5.7363,-5.8261,-5.859,-5.8919,-5.9099,-5.9099,-5.9099,-5.911,-5.9105,-5.907,-6.0436,-6.3087,-6.1687,-6.1751,-6.309,-6.3074,-6.3079,-6.3079,-6.3079,-6.3079,-6.3079,-6.3079,-6.3079,-6.3079,-6.3079,-6.3079,-6.3079,-6.3079,-6.2555,-6.1407,-3.9697,-3.9697,-3.9697,-3.9697,-3.9697,-3.9697,-3.9697,-3.9697,-3.9697,-3.9697,-3.9772,-3.9848,-3.9848,-3.9923,-3.9948,-3.9848,-3.9923,-3.9973,-3.9973,-3.9973,-3.9973,-3.9973,-3.9973,-3.9973,-3.9973,-4.0425,-4.0375,-3.9848,-4.0375,-4.0953,-4.148,-4.1957,-4.2263,-4.2338,-4.2263,-4.1907,-4.1509,-4.237,-4.1878,-4.0658,-4.2708,-4.2042,-3.9926,-4.1024,-4.0798,-4.0023,-4.0501,-4.0899,-4.13,-4.1401,-4.1781,-4.2431,-4.3645,-4.4731,-4.5954,-4.833,-4.9845,-5.0991,-5.2048,-5.2845,-5.3305,-5.303,-5.2163,-5.1613,-5.2553,-5.2388,-5.2048,-5.2318,-5.1947,-5.1588,-5.1708,-5.2067,-5.2456,-5.2665,-5.3084,-5.3354,-5.3354,-5.3354,-5.3324,-5.3204,-5.3294,-5.3623,-5.4311,-5.5059,-5.5957,-5.7004,-5.7842,-5.853,-5.9069,-5.9099,-5.9129,-5.9105,-5.9105,-5.9091,-5.9084,-5.9563,-6.0883,-6.309,-6.3132,-6.3074,-6.3093,-6.3104,-6.3079,-6.3079,-6.3079,-6.3079,-6.3079,-6.3079,-6.3079,-6.3079,-6.3079,-6.2933,-6.2613,-6.2321,-6.1139,-5.9228,-3.9697,-3.9697,-3.9697,-3.9697,-3.9697,-3.9697,-3.9697,-3.9697,-3.9697,-3.9697,-4.0099,-4.04,-4.04,-4.0827,-4.0874,-4.045,-4.0852,-4.1075,-4.1075,-4.1075,-4.1075,-4.1075,-4.1075,-4.1075,-4.1075,-4.1125,-4.0899,-4.04,-4.0899,-4.1505,-4.2112,-4.2162,-4.2464,-4.2836,-4.2414,-4.2162,-4.2037,-4.1241,-4.0734,-4.0475,-4.0387,-4.0335,-4.04,-4.0585,-4.0835,-4.1075,-4.115,-4.1225,-4.1351,-4.1882,-4.2137,-4.2288,-4.2987,-4.5204,-4.7763,-4.8128,-5.0428,-5.283,-5.3006,-5.3533,-5.3744,-5.2493,-5.2457,-5.2411,-5.1283,-5.1128,-5.1532,-5.2781,-5.2965,-5.3084,-5.3713,-5.3384,-5.3414,-5.461,-5.4371,-5.4072,-5.4072,-5.4072,-5.3832,-5.3264,-5.3713,-5.4341,-5.4999,-5.6137,-5.6915,-5.7094,-5.8261,-5.9009,-5.9099,-5.9099,-5.911,-5.9101,-5.913,-5.9084,-5.9103,-6.138,-6.2735,-6.309,-6.3132,-6.3107,-6.3077,-6.3107,-6.3079,-6.3079,-6.3079,-6.3079,-6.3079,-6.3079,-6.3079,-6.3079,-6.3079,-6.2175,-6.069,-5.9256,-5.7596,-5.5984,-3.9697,-3.9697,-3.9697,-3.9697,-3.9697,-3.9697,-3.9697,-3.9697,-3.9697,-3.9697,-4.0174,-4.0526,-4.0526,-4.0949,-4.1175,-4.1003,-4.115,-4.1455,-4.1781,-4.1781,-4.1932,-4.2233,-4.1957,-4.1781,-4.1781,-4.1781,-4.1681,-4.143,-4.1681,-4.1907,-4.2213,-4.2514,-4.2735,-4.2961,-4.2766,-4.2665,-4.264,-4.2108,-4.1706,-4.1404,-4.1178,-4.1028,-4.0924,-4.0924,-4.1075,-4.1326,-4.1681,-4.2183,-4.276,-4.2986,-4.3878,-4.5022,-4.5974,-4.7912,-4.9939,-5.0731,-5.2258,-5.3743,-5.3743,-5.4251,-5.4428,-5.2926,-5.212,-5.1781,-5.1943,-5.1412,-5.1144,-5.2311,-5.2921,-5.3264,-5.3593,-5.3713,-5.4072,-5.5029,-5.5269,-5.5418,-5.5777,-5.5508,-5.5059,-5.4401,-5.5209,-5.5807,-5.5748,-5.6915,-5.7587,-5.7517,-5.8513,-5.9086,-5.911,-5.9101,-5.9075,-5.9066,-6.054,-6.1361,-6.135,-6.2498,-6.3093,-6.3072,-6.3077,-6.3079,-6.3079,-6.3079,-6.3079,-6.3079,-6.3079,-6.3079,-6.3079,-6.3079,-6.3079,-6.2991,-6.2028,-6.0629,-5.8918,-5.7149,-5.6076,-5.5287]},{"header":{"parameterUnit":"m.s-1","parameterCategory":1,"la1":30.6,"la2":28.766,"lo1":-90.7593,"lo2":-88.6598,"dy":0.0162,"dx":0.0183,"nx":116,"ny":114,"refTime":"2024-02-23T06:00:00:Z","depth":0,"parameterNumber":3,"parameterNumberName":"V-component_of_WINDS"},"data":[0.0,0.0,0.0,0.0,0.0,0.0,0.0,0.0,0.0,0.0,0.0,0.0,0.0,0.0,0.0,0.0,0.0,0.0,0.0,0.0,0.0,0.0,0.0,0.0,0.0,0.0,0.0,0.0,0.0,0.0,0.0,0.0,0.0,0.0,0.0,0.0,0.0,0.0,0.0,0.0,0.0,0.0,0.0,0.0,0.0,0.0,0.0,0.0,0.0,0.0,0.0,0.0,0.0,0.0,0.0,0.0,0.0,0.0,0.0,0.0,0.0,0.0,0.0,0.0,0.0,0.0,0.0,0.0,0.0,0.0,0.0,0.0,0.0,0.0,0.0,0.0,0.0,0.0,0.0,0.0,0.0,0.0,0.0,0.0,0.0,0.0,0.0,0.0,0.0,0.0,0.0,0.0,0.0,0.0,0.0,0.0,0.0,0.0,0.0,0.0,0.0,0.0,0.0,0.0,0.0,0.0,0.0,0.0,0.0,0.0,0.0,0.0,0.0,0.0,0.0,0.0,0.0,0.0,0.0,0.0,0.0,0.0,0.0,0.0,0.0,0.0,0.0,0.0,0.0,0.0,0.0,0.0,0.0,0.0,0.0,0.0,0.0,0.0,0.0,0.0,0.0,0.0,0.0,0.0,0.0,0.0,0.0,0.0,0.0,0.0,0.0,0.0,0.0,0.0,0.0,0.0,0.0,0.0,0.0,0.0,0.0,0.0,0.0,0.0,0.0,0.0,0.0,0.0,0.0,0.0,0.0,0.0,0.0,0.0,0.0,0.0,0.0,0.0,0.0,0.0,0.0,0.0,0.0,0.0,0.0,0.0,0.0,0.0,0.0,0.0,0.0,0.0,0.0,0.0,0.0,0.0,0.0,0.0,0.0,0.0,0.0,0.0,0.0,0.0,0.0,0.0,0.0,0.0,0.0,0.0,0.0,0.0,0.0,0.0,0.0,0.0,0.0,0.0,0.0,0.0,0.0,0.0,0.0,0.0,0.0,0.0,0.0,0.0,0.0,0.0,0.0,0.0,0.0,0.0,0.0,0.0,0.0,0.0,0.0,0.0,0.0,0.0,0.0,0.0,0.0,0.0,0.0,0.0,0.0,0.0,0.0,0.0,0.0,0.0,0.0,0.0,0.0,0.0,0.0,0.0,0.0,0.0,0.0,0.0,0.0,0.0,0.0,0.0,0.0,0.0,0.0,0.0,0.0,0.0,0.0,0.0,0.0,0.0,0.0,0.0,0.0,0.0,0.0,0.0,0.0,0.0,0.0,0.0,0.0,0.0,0.0,0.0,0.0,0.0,0.0,0.0,0.0,0.0,0.0,0.0,0.0,0.0,0.0,0.0,0.0,0.0,0.0,0.0,0.0,0.0,0.0,0.0,0.0,0.0,0.0,0.0,0.0,0.0,0.0,0.0,0.0,0.0,0.0,0.0,0.0,0.0,0.0,0.0,0.0,0.0,0.0,0.0,0.0,0.0,0.0,0.0,0.0,0.0,0.0,0.0,0.0,0.0,0.0,0.0,0.0,0.0,0.0,0.0,0.0,0.0,0.0,0.0,0.0,0.0,0.0,0.0,0.0,0.0,0.0,0.0,0.0,0.0,0.0,0.0,0.0,0.0,0.0,0.0,0.0,0.0,0.0,0.0,0.0,0.0,0.0,0.0,0.0,0.0,0.0,0.0,0.0,0.0,0.0,0.0,0.0,0.0,0.0,0.0,0.0,0.0,0.0,0.0,0.0,0.0,0.0,0.0,0.0,0.0,0.0,0.0,0.0,0.0,0.0,0.0,0.0,0.0,0.0,0.0,0.0,0.0,0.0,0.0,0.0,0.0,0.0,0.0,0.0,0.0,0.0,0.0,0.0,0.0,0.0,0.0,0.0,0.0,0.0,0.0,0.0,0.0,0.0,0.0,0.0,0.0,0.0,0.0,0.0,0.0,0.0,0.0,0.0,0.0,0.0,0.0,0.0,0.0,0.0,0.0,0.0,0.0,0.0,0.0,0.0,0.0,0.0,0.0,0.0,0.0,0.0,0.0,0.0,0.0,0.0,0.0,0.0,0.0,0.0,0.0,0.0,0.0,0.0,0.0,0.0,0.0,0.0,0.0,0.0,0.0,0.0,0.0,0.0,0.0,0.0,0.0,0.0,0.0,0.0,0.0,0.0,0.0,0.0,0.0,0.0,0.0,0.0,0.0,0.0,0.0,0.0,0.0,0.0,0.0,0.0,0.0,0.0,0.0,0.0,0.0,0.0,0.0,0.0,0.0,0.0,0.0,0.0,0.0,0.0,0.0,0.0,0.0,0.0,0.0,0.0,0.0,0.0,0.0,0.0,0.0,0.0,0.0,0.0,0.0,0.0,0.0,0.0,0.0,0.0,0.0,0.0,0.0,0.0,0.0,0.0,0.0,0.0,0.0,0.0,0.0,0.0,0.0,0.0,0.0,0.0,0.0,0.0,0.0,0.0,0.0,0.0,0.0,0.0,0.0,0.0,0.0,0.0,0.0,0.0,0.0,0.0,0.0,0.0,0.0,0.0,0.0,0.0,0.0,0.0,0.0,0.0,0.0,0.0,0.0,0.0,0.0,0.0,0.0,0.0,0.0,0.0,0.0,0.0,0.0,0.0,0.0,0.0,0.0,0.0,0.0,0.0,0.0,0.0,0.0,0.0,0.0,0.0,0.0,0.0,0.0,0.0,0.0,0.0,0.0,0.0,0.0,0.0,0.0,0.0,0.0,0.0,0.0,0.0,0.0,0.0,0.0,0.0,0.0,0.0,0.0,0.0,0.0,0.0,0.0,0.0,0.0,0.0,0.0,0.0,0.0,0.0,0.0,0.0,0.0,0.0,0.0,0.0,0.0,0.0,0.0,0.0,0.0,0.0,0.0,0.0,0.0,0.0,0.0,0.0,0.0,0.0,0.0,0.0,0.0,0.0,0.0,0.0,0.0,0.0,0.0,0.0,0.0,0.0,0.0,0.0,0.0,0.0,0.0,0.0,0.0,0.0,0.0,0.0,0.0,0.0,0.0,0.0,0.0,0.0,0.0,0.0,0.0,0.0,0.0,0.0,0.0,0.0,0.0,0.0,0.0,0.0,0.0,0.0,0.0,0.0,0.0,0.0,0.0,0.0,0.0,0.0,0.0,0.0,0.0,0.0,0.0,0.0,0.0,0.0,0.0,0.0,0.0,0.0,0.0,0.0,0.0,0.0,0.0,0.0,0.0,0.0,0.0,0.0,0.0,0.0,0.0,0.0,0.0,0.0,0.0,0.0,0.0,0.0,0.0,0.0,0.0,0.0,0.0,0.0,0.0,0.0,0.0,0.0,0.0,0.0,0.0,0.0,0.0,0.0,0.0,0.0,0.0,0.0,0.0,0.0,0.0,0.0,0.0,0.0,0.0,0.0,0.0,0.0,0.0,0.0,0.0,0.0,0.0,0.0,0.0,0.0,0.0,0.0,0.0,0.0,0.0,0.0,0.0,0.0,0.0,0.0,0.0,0.0,0.0,0.0,0.0,0.0,0.0,0.0,0.0,0.0,0.0,0.0,0.0,0.0,0.0,0.0,0.0,0.0,0.0,0.0,0.0,0.0,0.0,0.0,0.0,0.0,0.0,0.0,0.0,0.0,0.0,0.0,0.0,0.0,0.0,0.0,0.0,0.0,0.0,0.0,0.0,0.0,0.0,0.0,0.0,0.0,0.0,0.0,0.0,0.0,0.0,0.0,0.0,0.0,0.0,0.0,0.0,0.0,0.0,0.0,0.0,0.0,0.0,0.0,0.0,0.0,0.0,0.0,0.0,0.0,0.0,0.0,0.0,0.0,0.0,0.0,0.0,0.0,0.0,0.0,0.0,0.0,0.0,0.0,0.0,0.0,0.0,0.0,0.0,0.0,0.0,0.0,0.0,0.0,0.0,0.0,0.0,0.0,0.0,0.0,0.0,0.0,0.0,0.0,0.0,0.0,0.0,0.0,0.0,0.0,0.0,0.0,0.0,0.0,0.0,0.0,0.0,0.0,0.0,0.0,0.0,0.0,0.0,0.0,0.0,0.0,0.0,0.0,0.0,0.0,0.0,0.0,0.0,0.0,0.0,0.0,0.0,0.0,0.0,0.0,0.0,0.0,0.0,0.0,0.0,0.0,0.0,0.0,0.0,0.0,0.0,0.0,0.0,0.0,0.0,0.0,0.0,0.0,0.0,0.0,0.0,0.0,0.0,0.0,0.0,0.0,0.0,0.0,0.0,0.0,0.0,0.0,0.0,0.0,0.0,0.0,0.0,0.0,0.0,0.0,0.0,0.0,0.0,0.0,0.0,0.0,0.0,0.0,0.0,0.0,0.0,0.0,0.0,0.0,0.0,0.0,0.0,0.0,0.0,0.0,0.0,0.0,0.0,0.0,0.0,0.0,0.0,0.0,0.0,0.0,0.0,0.0,0.0,0.0,0.0,0.0,0.0,0.0,0.0,0.0,0.0,0.0,0.0,0.0,0.0,0.0,0.0,0.0,0.0,0.0,0.0,0.0,0.0,0.0,0.0,0.0,0.0,0.0,0.0,0.0,0.0,0.0,0.0,0.0,0.0,0.0,0.0,0.0,0.0,0.0,0.0,0.0,0.0,0.0,0.0,0.0,0.0,0.0,0.0,0.0,0.0,0.0,0.0,0.0,0.0,0.0,0.0,0.0,0.0,0.0,0.0,0.0,0.0,0.0,0.0,0.0,0.0,0.0,0.0,0.0,0.0,0.0,0.0,0.0,0.0,0.0,0.0,0.0,0.0,0.0,0.0,0.0,0.0,0.0,0.0,0.0,0.0,0.0,0.0,0.0,0.0,0.0,0.0,0.0,0.0,0.0,0.0,0.0,0.0,0.0,0.0,0.0,0.0,0.0,0.0,0.0,0.0,0.0,0.0,0.0,0.0,0.0,0.0,0.0,0.0,0.0,0.0,0.0,0.0,0.0,0.0,0.0,0.0,0.0,0.0,0.0,0.0,0.0,0.0,0.0,0.0,0.0,0.0,0.0,0.0,0.0,0.0,0.0,0.0,0.0,0.0,0.0,0.0,0.0,0.0,0.0,0.0,0.0,0.0,0.0,0.0,0.0,0.0,0.0,0.0,0.0,0.0,0.0,0.0,0.0,0.0,0.0,0.0,0.0,0.0,0.0,0.0,0.0,0.0,0.0,0.0,0.0,0.0,0.0,0.0,0.0,0.0,0.0,0.0,0.0,0.0,0.0,0.0,0.0,0.0,0.0,0.0,0.0,0.0,0.0,0.0,0.0,0.0,0.0,0.0,0.0,0.0,0.0,0.0,0.0,0.0,0.0,0.0,0.0,0.0,0.0,0.0,0.0,0.0,0.0,0.0,0.0,0.0,0.0,0.0,0.0,0.0,0.0,0.0,0.0,0.0,0.0,0.0,0.0,0.0,0.0,0.0,0.0,0.0,0.0,0.0,0.0,0.0,0.0,0.0,0.0,0.0,0.0,0.0,0.0,0.0,0.0,0.0,0.0,0.0,0.0,0.0,0.0,0.0,0.0,0.0,0.0,0.0,0.0,0.0,0.0,0.0,0.0,0.0,0.0,0.0,0.0,0.0,0.0,0.0,0.0,0.0,0.0,0.0,0.0,0.0,0.0,0.0,0.0,0.0,0.0,0.0,0.0,0.0,0.0,0.0,0.0,0.0,0.0,0.0,0.0,0.0,0.0,0.0,0.0,0.0,0.0,0.0,0.0,0.0,0.0,0.0,0.0,0.0,0.0,0.0,0.0,0.0,0.0,0.0,0.0,0.0,0.0,0.0,0.0,0.0,0.0,0.0,0.0,0.0,0.0,0.0,0.0,0.0,0.0,0.0,0.0,0.0,0.0,0.0,0.0,0.0,0.0,0.0,0.0,0.0,0.0,0.0,0.0,0.0,0.0,0.0,0.0,0.0,0.0,0.0,0.0,0.0,0.0,0.0,0.0,0.0,0.0,0.0,0.0,0.0,0.0,0.0,0.0,0.0,0.0,0.0,0.0,0.0,0.0,0.0,0.0,0.0,0.0,0.0,0.0,0.0,0.0,0.0,0.0,0.0,0.0,0.0,0.0,0.0,0.0,0.0,0.0,0.0,0.0,0.0,-4.4885,-4.5633,0.0,0.0,0.0,0.0,0.0,0.0,0.0,0.0,0.0,0.0,0.0,0.0,0.0,0.0,0.0,0.0,0.0,0.0,0.0,0.0,0.0,0.0,0.0,0.0,0.0,0.0,-4.493,-4.4436,-4.4766,-4.4796,-4.4945,-4.5274,-4.5274,-4.5274,-4.5304,-4.4945,-4.4945,-4.5304,-4.4018,-4.2851,-4.1961,-4.291,-4.3718,-4.4377,0.0,0.0,0.0,0.0,0.0,0.0,0.0,0.0,0.0,0.0,0.0,0.0,0.0,0.0,0.0,0.0,0.0,0.0,0.0,0.0,0.0,0.0,0.0,0.0,0.0,0.0,0.0,0.0,0.0,0.0,0.0,0.0,0.0,0.0,0.0,0.0,0.0,0.0,0.0,0.0,0.0,0.0,0.0,0.0,0.0,0.0,0.0,0.0,0.0,0.0,0.0,0.0,0.0,0.0,0.0,0.0,0.0,0.0,0.0,0.0,0.0,0.0,0.0,0.0,0.0,0.0,0.0,0.0,0.0,0.0,-4.698,-4.6621,0.0,0.0,0.0,0.0,0.0,0.0,0.0,0.0,0.0,0.0,0.0,0.0,0.0,0.0,0.0,0.0,0.0,0.0,0.0,0.0,0.0,0.0,0.0,-4.7077,-4.6982,-4.5966,-4.5526,-4.5334,-4.5454,-4.5484,-4.5514,-4.5633,-4.6221,-4.6251,-4.5663,-4.613,-4.595,-4.5125,-4.3069,-4.1901,-4.1602,-4.2261,-4.288,-4.3499,0.0,0.0,0.0,0.0,0.0,0.0,0.0,0.0,0.0,0.0,0.0,0.0,0.0,0.0,0.0,0.0,0.0,0.0,0.0,0.0,0.0,0.0,0.0,0.0,0.0,0.0,0.0,0.0,0.0,0.0,0.0,0.0,0.0,0.0,0.0,0.0,0.0,0.0,0.0,0.0,0.0,0.0,0.0,0.0,0.0,0.0,0.0,0.0,0.0,0.0,0.0,0.0,0.0,0.0,0.0,0.0,0.0,0.0,0.0,0.0,0.0,0.0,0.0,0.0,-4.9105,-5.0002,-5.0375,-5.1319,-5.1139,-5.0198,-5.0527,-4.8865,-4.6142,-4.8281,0.0,0.0,0.0,0.0,0.0,0.0,0.0,0.0,0.0,0.0,0.0,0.0,0.0,0.0,0.0,0.0,0.0,0.0,0.0,0.0,0.0,-4.821,-4.7749,-4.664,-4.5799,-4.5544,-4.6142,-4.6202,-4.6441,-4.701,-4.7394,-4.7404,-4.701,-4.6895,-4.6049,-4.4436,-4.1893,-4.1205,-4.2291,-4.294,-4.3599,-4.4167,-4.3738,0.0,0.0,0.0,0.0,0.0,0.0,0.0,0.0,0.0,0.0,0.0,0.0,0.0,0.0,0.0,0.0,0.0,0.0,0.0,0.0,0.0,0.0,0.0,0.0,0.0,0.0,0.0,0.0,0.0,0.0,0.0,0.0,0.0,0.0,0.0,0.0,0.0,0.0,0.0,0.0,0.0,0.0,0.0,-4.241,-4.1713,0.0,0.0,0.0,0.0,0.0,0.0,0.0,0.0,0.0,0.0,0.0,0.0,0.0,-4.7997,-4.852,-4.9793,-4.9972,-4.909,-5.093,-5.1558,-5.1139,-5.2995,-5.3713,-5.3653,-5.5329,0.0,-4.876,-4.8506,0.0,0.0,0.0,0.0,0.0,0.0,0.0,0.0,0.0,0.0,0.0,0.0,0.0,0.0,0.0,0.0,0.0,0.0,0.0,0.0,0.0,-4.7575,-4.7192,-4.6725,-4.7546,-4.7578,-4.6411,-4.7654,-4.8133,-4.7339,-4.7087,-4.7068,-4.7279,-4.6463,-4.493,-4.2671,-4.1893,-4.1662,-4.1871,-4.253,-4.315,-4.3708,-4.3409,-4.4377,-4.6112,-4.5244,0.0,0.0,0.0,0.0,0.0,0.0,0.0,0.0,0.0,0.0,0.0,0.0,0.0,0.0,0.0,0.0,0.0,0.0,0.0,0.0,0.0,0.0,0.0,0.0,0.0,0.0,0.0,0.0,0.0,0.0,0.0,0.0,0.0,0.0,0.0,0.0,0.0,0.0,0.0,-4.3928,-4.3549,-4.2141,-4.309,-4.3629,0.0,0.0,0.0,0.0,0.0,0.0,0.0,0.0,0.0,-4.7399,-4.9404,-5.0272,-4.9823,-5.1858,-5.2815,-5.2606,-5.4192,-5.4999,-5.5149,-5.6376,-5.7154,-5.749,-5.7433,-5.6059,-5.386,-5.2683,-5.1828,-5.1289,0.0,0.0,0.0,0.0,-5.2301,-5.3442,0.0,0.0,0.0,0.0,0.0,0.0,0.0,0.0,0.0,0.0,0.0,0.0,-4.7342,-4.7122,-4.704,-4.7088,-4.8706,-4.888,-4.695,-4.8133,-4.8416,-4.71,-4.6635,-4.6647,-4.704,-4.5574,-4.3838,-4.1893,-4.2231,-4.241,-4.2402,-4.306,-4.3718,-4.4306,-4.4306,-4.4885,-4.5753,-4.5095,-4.5185,0.0,0.0,0.0,0.0,0.0,0.0,0.0,0.0,0.0,0.0,0.0,0.0,0.0,0.0,0.0,0.0,0.0,0.0,0.0,0.0,0.0,0.0,0.0,0.0,0.0,0.0,0.0,0.0,0.0,0.0,0.0,0.0,0.0,0.0,0.0,0.0,0.0,0.0,-4.4197,-4.4137,-4.2381,-4.3718,-4.4396,0.0,0.0,0.0,0.0,0.0,0.0,-4.7459,-4.8835,-4.9703,-5.0032,-5.2276,-5.3054,-5.2199,-5.4401,-5.5807,-5.6466,-5.7573,-5.8471,-5.9159,-5.9817,-6.0386,-6.0779,-5.9073,-5.8261,-5.7887,-5.543,-5.3649,-5.2368,-5.1871,-5.159,-5.1591,-5.2162,-5.2853,-5.3805,0.0,0.0,0.0,0.0,0.0,0.0,0.0,0.0,0.0,0.0,0.0,-4.6024,-4.7534,-4.7725,-4.7866,-4.8173,-4.8341,-4.8327,-4.8207,-4.6531,-4.5783,-4.6309,-4.6661,-4.6711,-4.6352,-4.4396,-4.3319,-4.32,-4.2641,-4.3339,-4.5125,-4.5813,-4.6471,-4.71,-4.71,-4.713,-4.704,-4.4556,-4.4915,-4.71,0.0,0.0,0.0,0.0,0.0,0.0,0.0,0.0,0.0,0.0,0.0,0.0,0.0,0.0,0.0,0.0,0.0,0.0,0.0,0.0,0.0,0.0,0.0,0.0,0.0,0.0,0.0,0.0,0.0,0.0,0.0,0.0,0.0,0.0,0.0,0.0,0.0,0.0,0.0,-4.1594,-4.4257,0.0,0.0,0.0,0.0,-4.707,-4.8237,-4.9523,-5.09,-5.2217,-5.3533,-5.479,-5.6137,-5.7124,-5.7723,-5.8471,-5.9189,-5.9847,-6.0565,-6.1253,-6.1912,-6.257,-6.2899,-6.2872,-6.1112,-5.999,-5.9006,-5.422,-5.2556,-5.2832,-5.0956,-5.134,-5.2856,-5.1612,-5.3358,-5.6307,0.0,0.0,0.0,0.0,0.0,0.0,0.0,0.0,-4.6215,-4.6247,-4.6241,-4.6664,-4.7964,-4.8122,-4.8494,-4.9434,-5.0331,-5.0451,-4.9613,-4.8476,-4.7788,-4.7608,-4.6067,-4.4961,-4.4407,-4.3299,-4.291,-4.3359,-4.3958,-4.4825,-4.5963,-4.6651,-4.707,-4.7309,-4.7309,-4.7309,-4.7189,-4.5394,-4.4915,-4.5304,-4.4407,-4.4796,0.0,0.0,0.0,0.0,0.0,0.0,0.0,0.0,0.0,0.0,0.0,0.0,0.0,0.0,0.0,0.0,0.0,0.0,0.0,0.0,0.0,0.0,0.0,0.0,0.0,0.0,0.0,0.0,0.0,0.0,0.0,0.0,0.0,0.0,0.0,0.0,0.0,-4.695,-4.8865,0.0,-4.8536,-4.8297,-4.8656,-4.9733,-5.0272,-5.1648,-5.4281,-5.5239,-5.6496,-5.8291,-5.9219,-5.9997,-6.0685,-6.1343,-6.1762,-6.2002,-6.2271,-6.251,-6.272,-6.1792,-6.1437,-6.1258,-5.8453,-5.7077,-5.6677,-5.3763,-5.3296,-5.4199,-5.3065,-5.2474,-5.2257,-5.2082,-5.3247,-5.4998,0.0,0.0,0.0,0.0,0.0,0.0,0.0,0.0,-4.5073,-4.4634,-4.4955,-4.5869,-4.7456,-4.8027,-4.8895,-5.0375,-5.1169,-5.1079,-4.9972,-4.8446,-4.7489,-4.7279,-4.5364,-4.3808,-4.2701,-4.312,-4.3609,-4.4047,-4.5125,-4.5992,-4.6681,-4.71,-4.7429,-4.7638,-4.7638,-4.7758,-4.7908,-4.701,-4.5873,-4.4586,-4.3888,-4.5005,-4.6741,0.0,0.0,0.0,0.0,0.0,0.0,0.0,0.0,0.0,0.0,0.0,0.0,0.0,0.0,0.0,0.0,0.0,0.0,0.0,0.0,0.0,0.0,0.0,0.0,0.0,0.0,0.0,0.0,0.0,0.0,0.0,0.0,0.0,0.0,-4.683,-4.8716,-5.0614,-5.2456,-5.3204,-5.2306,-5.1858,-5.2037,-5.3114,-5.3623,-5.5029,-5.7693,-5.8441,-5.9488,-6.1044,-6.0954,-6.1399,-6.2421,-6.2259,-6.2233,-6.2233,-6.2233,-6.191,-6.1347,-6.0176,-5.9688,-5.9475,-5.6634,-5.5419,-5.5287,-5.3606,-5.3454,-5.425,-5.3787,-5.3023,-5.2233,-5.253,-5.3413,-5.466,0.0,0.0,0.0,0.0,0.0,0.0,0.0,-4.45,-4.3099,-4.247,-4.244,-4.3519,-4.6142,-4.7608,-4.9194,-5.1109,-5.0584,-4.9942,-4.9389,-4.6142,-4.4556,-4.5214,-4.4556,-4.3329,-4.1504,-4.3958,-4.5274,-4.5334,-4.6022,-4.6681,-4.7309,-4.7339,-4.7668,-4.8297,-4.8297,-4.87,-4.9299,-4.9299,-4.7832,-4.5364,-4.4646,-4.5933,-4.8117,0.0,0.0,0.0,0.0,0.0,0.0,0.0,0.0,0.0,0.0,0.0,0.0,0.0,0.0,0.0,0.0,0.0,0.0,0.0,0.0,0.0,0.0,0.0,0.0,0.0,0.0,0.0,0.0,0.0,0.0,0.0,0.0,0.0,-4.5155,-4.8805,-5.1558,-5.2306,-5.47,-5.5837,-5.4551,-5.5568,-5.6585,-5.7184,-5.8441,-5.9787,-6.1104,-6.1792,-6.2421,-6.2991,-6.1437,-6.1318,-6.2933,-6.1318,-6.048,-6.0419,-6.0419,-5.9565,-5.8005,-5.7941,-5.7941,-5.7815,-5.6076,-5.5287,-5.5181,-5.3538,-5.2929,-5.2929,-5.2929,-5.2929,-5.2929,-5.2998,-5.4055,-5.5748,0.0,0.0,0.0,0.0,0.0,0.0,0.0,-4.3653,-4.2748,-4.2428,-4.3638,-4.5514,-4.8177,-5.0062,-5.1528,-5.2546,-5.075,-4.9643,-4.9942,-4.592,-4.3648,-4.3828,-4.2342,-4.2102,-4.3479,-4.4227,-4.5065,-4.6052,-4.6711,-4.713,-4.7309,-4.7788,-4.8117,-4.8297,-4.882,-4.9149,-4.9299,-4.9299,-4.888,-4.8071,-4.6411,-4.6501,-4.7429,0.0,0.0,0.0,0.0,0.0,0.0,0.0,0.0,0.0,0.0,0.0,0.0,0.0,0.0,0.0,0.0,0.0,0.0,0.0,0.0,0.0,0.0,0.0,0.0,0.0,0.0,0.0,0.0,0.0,0.0,0.0,-4.5633,-4.701,-4.8071,-5.075,-5.3593,-5.6196,-5.8441,-5.9608,-5.9249,-5.9548,-5.9817,-5.9997,-6.0805,-6.1642,-6.248,-6.272,-6.2289,-6.1258,-6.1969,-6.1407,-5.938,-6.0116,-5.9933,-5.8697,-5.8697,-5.8446,-5.7941,-5.6699,-5.6114,-5.601,-5.4299,-5.3606,-5.3538,-5.311,-5.2929,-5.2929,-5.2929,-5.2929,-5.3042,-5.4231,-5.5814,-5.7533,0.0,0.0,0.0,0.0,0.0,0.0,0.0,-4.3545,-4.2453,-4.1791,-4.3576,-4.5574,-4.7399,-4.9613,-5.1109,-5.1546,-4.9928,-4.8656,-4.8207,-4.5394,0.0,0.0,0.0,-4.2761,-4.4287,-4.4855,-4.5813,-4.716,-4.7519,-4.7848,-4.8147,-4.8506,-4.8985,-4.9523,-4.9912,-5.0391,-5.0947,-5.0947,-5.0947,-5.0827,-4.9374,-4.9164,-4.9583,-4.7967,-4.8536,-5.0032,-4.8805,-4.9254,-5.0122,-4.8327,0.0,0.0,0.0,0.0,0.0,0.0,0.0,0.0,0.0,0.0,0.0,0.0,0.0,0.0,0.0,0.0,0.0,0.0,0.0,0.0,0.0,0.0,0.0,0.0,-4.7908,-4.9912,-5.2217,-5.4102,-5.6286,-5.9039,-6.0894,-6.1942,-6.1942,-6.1942,-6.1942,-6.1942,-6.2301,-6.266,-6.3049,-6.3079,-6.2292,-6.054,-6.0839,-6.0022,-5.8005,-5.823,-5.7886,-5.6892,-5.6892,-5.6531,-5.5841,-5.4809,-5.4366,-5.4299,-5.3291,-5.2929,-5.2929,-5.2929,-5.2929,-5.2929,0.0,0.0,0.0,0.0,-5.6076,-5.7021,0.0,0.0,0.0,0.0,0.0,0.0,0.0,-4.3802,-4.226,-4.0879,-4.2879,-4.4618,-4.5005,-4.7519,-4.9179,-4.909,-4.8297,-4.704,-4.5185,0.0,0.0,-4.1145,-4.315,-4.4436,-4.4646,-4.5903,-4.713,-4.8297,-4.8356,-4.873,-4.9299,-4.9449,-5.0122,-5.1229,-5.1379,-5.2097,-5.3174,-5.3174,-5.3174,-5.3144,-5.2636,-5.2695,-5.2875,-5.1139,-5.1887,-5.3653,-5.1858,-5.0661,-4.9838,-4.8835,0.0,0.0,0.0,0.0,0.0,0.0,0.0,0.0,0.0,0.0,0.0,0.0,0.0,0.0,0.0,0.0,0.0,0.0,0.0,0.0,0.0,0.0,0.0,0.0,-5.0331,-5.2426,-5.6825,-5.8082,-5.9219,-6.1014,-6.2331,-6.3079,-6.3079,-6.3079,-6.3079,-6.3079,-6.3079,-6.3079,-6.3079,-6.3079,0.0,0.0,0.0,-5.8005,-5.7432,-5.6076,-5.5287,-5.5115,-5.5115,-5.4366,-5.2929,-5.2929,-5.2929,-5.2929,-5.2929,-5.2929,-5.2929,-5.2929,-5.2929,-5.2929,-5.2929,-5.2998,-5.3359,-5.4849,-5.5419,-5.5419,0.0,0.0,0.0,0.0,0.0,0.0,0.0,-4.3411,-4.259,-4.0925,-4.3408,-4.4943,-4.3788,-4.6561,-4.8267,-4.7728,-4.6082,-4.4706,0.0,0.0,-4.291,-4.5095,-4.4616,-4.5065,-4.6681,-4.7489,-4.8027,-4.8297,-4.885,-4.9179,-4.9329,-5.0331,-5.096,-5.1259,-5.2336,-5.2935,-5.3174,-5.3174,-5.3174,-5.3204,-5.3653,-5.3234,-5.2336,-5.1977,-5.1798,-5.1738,-5.1349,-5.2426,-5.3623,-5.081,-5.1109,-5.2157,-4.9224,-4.701,0.0,0.0,0.0,0.0,0.0,0.0,0.0,0.0,0.0,0.0,0.0,0.0,0.0,0.0,0.0,0.0,0.0,0.0,0.0,-5.1079,-5.3533,-5.6077,-5.9099,-6.0565,-6.1463,-6.1852,-6.26,-6.3079,-6.3079,-6.3079,-6.3079,-6.3079,-6.3079,-6.3079,-6.3079,-6.3079,-6.1673,-5.8571,-5.9475,-5.804,-5.3945,-5.4875,-5.4742,-5.3359,-5.3359,0.0,-5.2929,-5.2929,-5.2929,-5.2929,-5.2929,-5.2929,-5.2929,-5.2929,-5.2929,-5.2929,-5.2929,-5.3742,-5.4982,-5.5287,-5.5419,-5.5419,0.0,0.0,0.0,0.0,0.0,0.0,0.0,-4.3591,-4.2986,-4.2141,-4.3541,-4.4356,-4.3526,-4.5172,-4.6022,-4.5364,-4.4107,-4.321,0.0,-4.315,-4.4077,-4.5753,-4.6112,-4.692,-4.8267,-4.864,-4.9105,-4.9763,-5.0092,-5.0571,-5.1276,-5.1887,-5.2396,-5.2755,-5.3414,-5.3892,-5.4192,-5.4192,-5.4192,-5.4221,-5.4551,-5.4491,-5.4192,-5.4192,-5.3982,-5.3683,-5.3683,-5.3683,-5.3384,-5.1409,-5.096,-5.084,-4.8536,-4.689,-4.5813,0.0,0.0,0.0,0.0,0.0,0.0,0.0,0.0,0.0,0.0,0.0,0.0,0.0,0.0,-4.6711,-4.8027,0.0,-5.1618,-5.4221,-5.6346,-5.8441,-6.0775,-6.1672,-6.2211,-6.254,-6.2869,-6.3079,-6.3079,-6.3079,-6.3079,-6.3079,-6.3079,-6.3079,-6.3079,-6.3079,-6.1555,-5.8131,-5.9626,-5.804,-5.2929,-5.4541,-5.4541,-5.2929,-5.2929,-5.2929,-5.2929,-5.2929,-5.2929,-5.2929,-5.2929,-5.2929,-5.2998,-5.381,-5.4164,-5.4138,-5.3855,-5.3932,-5.4231,-5.5115,-5.4849,-5.4273,0.0,0.0,0.0,0.0,0.0,0.0,0.0,-4.4006,-4.3502,-4.3323,-4.3574,-4.3557,-4.3097,-4.3494,-4.3539,-4.2961,-4.2581,0.0,0.0,-4.4407,-4.5574,-4.6232,-4.7788,-4.9045,-4.9868,-4.9868,-5.0361,-5.1409,-5.1678,-5.2336,-5.3384,-5.3503,-5.3952,-5.4581,-5.4581,-5.494,-5.5568,-5.5568,-5.5568,-5.5568,-5.5568,-5.5957,-5.6526,-5.6406,-5.6286,-5.6218,-5.6218,-5.4281,-5.1768,-5.1349,-4.9912,-4.8117,-4.7189,-4.6621,-4.6232,-4.5813,-4.5903,0.0,0.0,0.0,0.0,0.0,0.0,0.0,0.0,-4.3279,-4.4047,-4.6561,-4.8117,-4.9613,-5.1468,-5.3414,-5.5359,-5.7184,-5.871,-6.0266,-6.1882,-6.2211,-6.248,-6.3019,-6.3079,-6.3079,-6.3079,-6.3079,-6.3079,-6.3079,-6.3079,-6.3079,-6.3079,-6.3079,-6.1673,-5.8571,-5.981,-5.823,-5.3427,-5.4742,-5.4541,-5.2929,-5.3247,-5.3247,-5.2929,-5.3247,-5.3247,-5.2929,-5.3222,-5.3359,-5.3495,-5.4849,-5.5247,-5.4863,-5.4288,-5.3608,-5.3017,-5.4174,-5.3798,-5.2883,0.0,0.0,0.0,0.0,0.0,0.0,0.0,0.0,-4.4184,-4.3413,-4.3686,-4.3234,-4.1224,-4.1438,-4.1683,-4.1594,0.0,0.0,-4.4855,-4.5185,-4.6621,-4.9508,-4.9867,-5.0601,-5.1858,-5.1887,-5.1947,-5.2097,-5.3294,-5.3952,-5.4102,-5.47,-5.5329,-5.6008,-5.6008,-5.6286,-5.6885,-5.6885,-5.6885,-5.6885,-5.6885,-5.7304,-5.7842,-5.7214,-5.6645,-5.6218,-5.6218,-5.3713,-5.0495,-5.1003,-4.9912,-4.8356,-4.8805,-4.7728,-4.6369,-4.692,-4.4676,-4.2402,-4.3988,-4.315,-4.1931,-4.2201,-4.1901,-4.2252,0.0,-4.6322,-4.7339,-4.9329,-5.084,-5.2187,-5.3623,-5.5448,-5.7244,-5.865,-6.0505,-6.1852,-6.2061,-6.26,-6.2989,-6.3079,-6.3079,-6.3079,-6.3079,-6.3079,-6.3079,-6.3079,-6.3079,-6.3079,-6.3079,-6.3079,-6.2233,-6.0298,-6.0419,-5.8765,-5.5181,-5.5287,-5.4541,-5.2929,-5.4433,-5.4366,-5.2929,-5.4433,-5.4299,-5.2973,-5.4474,-5.5115,-5.5115,-5.5287,-5.4541,-5.3128,-5.2573,-5.2563,-5.2804,-5.2068,-5.1951,-5.2176,0.0,0.0,0.0,0.0,0.0,0.0,0.0,0.0,0.0,-4.4093,-4.4118,-4.3622,-4.2192,-4.1673,-4.1422,0.0,0.0,0.0,-4.5753,-4.6621,-4.8177,-5.0644,-5.1528,-5.2396,-5.3354,-5.2965,-5.3354,-5.4521,-5.47,-5.5149,-5.5897,-5.6166,-5.6436,-5.6705,-5.6705,-5.6855,-5.7094,-5.7094,-5.7094,-5.7094,-5.7094,-5.7274,-5.7423,-5.6376,-5.5089,-5.3922,-5.4281,-5.2366,0.0,0.0,-4.8386,-4.7698,-4.7578,-4.6711,-4.5783,-4.6052,-4.4975,-4.3599,-4.3269,-4.312,-4.288,-4.2051,-4.303,-4.4706,-4.6501,-4.7997,-4.9583,-5.1558,-5.3593,-5.5448,-5.6795,-5.868,-6.0176,-6.0745,-6.1882,-6.266,-6.266,-6.257,-6.2211,-6.1433,-6.1343,-6.1792,-6.2959,-6.3079,-6.3079,-6.3079,-6.3079,-6.3079,-6.3079,-6.3079,-6.2292,-6.054,-6.1496,-5.9872,-5.5419,-5.7378,-5.7021,-5.4366,-5.5049,-5.5049,-5.4366,-5.5115,-5.5578,-5.5906,-5.6596,-5.6892,-5.6892,-5.6892,-5.588,-5.4314,-5.3745,-5.3324,-5.2829,-5.2051,-5.19,-5.2101,0.0,0.0,0.0,0.0,0.0,0.0,0.0,0.0,0.0,0.0,-4.4354,-4.359,-4.2653,-4.1876,-4.1444,0.0,0.0,0.0,0.0,-4.701,-4.8716,-5.0794,-5.2396,0.0,-5.473,-5.4431,-5.497,-5.6436,-5.6137,-5.6466,-5.7393,-5.7393,-5.7483,-5.7633,-5.7453,-5.7573,-5.7902,-5.7723,-5.7752,-5.7902,-5.7513,-5.7154,-5.6645,-5.4999,-5.3144,-5.1468,-5.2127,-5.0331,0.0,0.0,-4.6681,-4.6202,-4.6082,-4.5693,-4.5244,-4.5065,-4.4766,-4.4107,-4.2351,-4.2791,-4.3509,-4.2462,-4.4407,-4.692,-4.8117,-5.0062,-5.2097,-5.3892,-5.6077,-5.7962,-5.8919,-6.0446,-6.1553,-6.1553,-6.2241,-6.275,-6.257,-6.1972,-6.1044,-5.9697,-5.9219,-5.9638,-6.1283,-6.2091,-6.26,-6.278,-6.2989,-6.3079,-6.3079,-6.3079,-6.2292,-6.054,-6.1703,-6.0387,-5.6141,-5.8076,-5.7823,-5.5419,-5.5419,-5.5419,-5.5419,-5.5419,-5.6337,-5.8005,-5.7496,-5.7277,-5.7277,-5.7277,-5.6271,-5.469,-5.4117,-5.35,-5.2854,-5.2302,-5.2101,-5.2101,0.0,0.0,0.0,0.0,0.0,0.0,0.0,0.0,0.0,0.0,0.0,0.0,0.0,0.0,0.0,0.0,0.0,0.0,0.0,-4.5633,-4.7505,-5.0106,-5.2127,-5.4102,-5.6128,-5.6675,-5.7004,-5.7064,-5.7723,-5.8052,-5.8082,-5.8082,-5.8441,-5.9009,-5.8381,-5.88,-5.9967,-5.9308,-5.9398,-5.9877,-5.859,-5.7334,-5.5927,-5.3294,-5.1079,-4.9479,-5.0092,0.0,0.0,0.0,-4.5024,-4.3618,-4.4915,-4.5304,-4.5155,-4.4526,-4.3449,-4.2201,-4.0816,-4.1452,-4.274,-4.3928,-4.5753,-4.7938,-5.0511,-5.3144,-5.5418,-5.6705,-5.8082,-5.9069,-5.9099,-5.9668,-6.0146,-6.0146,-6.1253,-6.1912,-6.1253,-6.0565,-5.9668,-5.8351,-5.7064,-5.6555,-5.7214,-5.9638,-6.1433,-6.2091,-6.272,-6.3079,-6.3079,-6.3079,-6.2292,-6.054,-6.054,-5.9749,-5.7941,-5.631,-5.5485,-5.5419,-5.5419,-5.5419,-5.5419,-5.5419,-5.6337,-5.7941,-5.6206,-5.5485,-5.5485,-5.5485,-5.45,-5.2923,-5.237,-5.2495,-5.2854,-5.2302,-5.2101,-5.2101,0.0,0.0,0.0,0.0,0.0,0.0,0.0,0.0,0.0,0.0,0.0,0.0,0.0,0.0,0.0,0.0,0.0,0.0,0.0,-4.6232,-4.7758,-4.9523,-5.1468,-5.3264,-5.485,-5.5089,-5.5807,-5.7094,-5.7334,-5.7453,-5.7453,-5.8351,-5.865,-5.8471,-5.9129,-5.9668,-6.0086,-5.9847,-5.9368,-5.868,-5.7363,-5.5777,-5.3982,-5.2217,-4.9793,-4.7339,0.0,0.0,0.0,0.0,-4.288,-4.2611,-4.2192,-4.2342,-4.2671,-4.2432,-4.2671,-4.2821,-4.1953,-4.3629,-4.5843,-4.6741,-4.9105,-5.1678,-5.3443,-5.5568,-5.7124,-5.7094,-5.7453,-5.7633,-5.7244,-5.7334,-5.7782,-5.865,-5.9907,-6.0835,-6.1074,-6.1283,-6.0266,-5.7184,-5.6795,-5.6346,-5.5269,-5.7573,-5.9787,-6.1313,-6.2061,-6.26,-6.3049,-6.3079,-6.2817,-6.2233,-6.2233,-6.0839,-5.8005,-5.8543,-5.7633,-5.5419,-5.5419,-5.5419,-5.5419,-5.5419,-5.6337,-5.8005,-5.7369,-5.644,-5.5419,-5.5419,-5.4433,-5.2904,-5.2729,-5.2754,-5.2904,-5.2729,-5.2653,-5.2653,0.0,0.0,0.0,0.0,0.0,0.0,0.0,0.0,0.0,0.0,0.0,0.0,0.0,0.0,0.0,0.0,0.0,0.0,0.0,0.0,-4.683,-4.8147,-4.9883,-5.1409,-5.2755,-5.3025,-5.3862,-5.5329,-5.5329,-5.5448,-5.5718,-5.6585,-5.6765,-5.6406,-5.7513,-5.8112,-5.8321,-5.8082,-5.7633,-5.6915,-5.5119,-5.3354,-5.1588,-4.9793,-4.7638,0.0,0.0,0.0,0.0,0.0,-4.2051,-4.2171,-4.0816,-4.0516,-4.0726,-4.0965,-4.1953,-4.306,-4.3329,-4.5663,-4.8327,-4.9703,-5.1977,-5.4311,-5.5867,-5.7214,-5.7812,-5.6645,-5.6406,-5.5927,-5.4341,-5.3862,-5.4221,-5.5748,-5.6915,-5.8171,-5.9817,-5.9997,-5.9129,-5.6765,-5.6226,-5.5658,-5.467,-5.6496,-5.8501,-6.0266,-6.1463,-6.2271,-6.272,-6.2959,-6.2817,-6.2175,-6.2175,-6.0839,-5.8005,-5.8481,-5.725,-5.4474,-5.5115,-5.5419,-5.5419,-5.5419,-5.601,-5.7048,-5.6402,-5.5512,-5.4474,-5.4474,-5.3852,-5.2929,-5.2929,-5.2929,-5.2929,-5.2929,-5.2929,-5.2929,0.0,0.0,0.0,0.0,0.0,0.0,0.0,0.0,0.0,0.0,0.0,0.0,0.0,0.0,0.0,0.0,0.0,0.0,0.0,0.0,0.0,-4.613,-4.7489,-4.8775,-5.0016,-5.0674,-5.1379,-5.2037,-5.2067,-5.2396,-5.2965,-5.3054,-5.3054,-5.3054,-5.3773,-5.4461,-5.5059,-5.4431,-5.4491,-5.476,-5.2157,-5.0331,-4.888,-4.6322,0.0,0.0,0.0,0.0,0.0,-4.241,-4.2351,-4.2081,-4.0756,-3.9948,-3.9619,-4.0337,-4.1504,-4.3039,-4.5005,-4.7459,-5.0138,-5.2695,-5.4311,-5.5777,-5.7603,-5.7992,-5.7393,-5.5388,-5.485,-5.3743,-5.0495,-4.9464,-4.9733,-5.1768,-5.2755,-5.4431,-5.7752,-5.7184,-5.6615,-5.7124,-5.5568,-5.47,-5.5269,-5.6466,-5.7752,-5.9069,-6.0954,-6.2061,-6.2151,-6.272,-6.235,-6.069,-6.054,-5.9688,-5.8005,-5.6206,-5.4474,-5.2929,-5.4474,-5.5287,-5.5287,-5.5287,-5.5287,-5.5181,-5.3606,-5.2929,-5.2929,-5.2929,-5.2929,-5.2929,-5.2929,-5.2929,-5.2929,-5.2929,-5.2929,-5.2929,0.0,0.0,0.0,0.0,0.0,0.0,0.0,0.0,0.0,0.0,0.0,0.0,0.0,0.0,0.0,0.0,0.0,0.0,0.0,0.0,0.0,0.0,0.0,0.0,0.0,0.0,0.0,0.0,0.0,-5.0571,-5.0347,-5.1259,-5.1439,-5.105,-5.2187,-5.3084,-5.3683,-5.3503,-5.2965,-5.2097,0.0,-4.8686,-4.701,0.0,0.0,0.0,0.0,0.0,0.0,-4.256,-4.1752,-4.0756,-3.9918,-3.9888,-4.0457,-4.2064,-4.3868,-4.5843,-4.8282,-5.0541,-5.2744,-5.488,-5.6017,-5.6615,-5.6645,-5.6286,-5.5239,-5.2755,-5.0272,-4.8027,-4.6172,-4.6082,-4.7279,-5.0196,-5.2965,-5.5837,-5.9129,-5.9727,-5.9548,-5.868,-5.8141,-5.7723,-5.7393,-5.8112,-5.8949,-5.9757,-6.0775,-6.1792,-6.278,-6.2989,-6.2875,-6.2409,-6.1198,-5.9688,-5.8005,-5.5008,-5.3291,-5.2929,-5.3291,-5.3563,-5.3563,-5.3563,-5.3563,-5.3495,-5.311,-5.2929,-5.2929,-5.2929,-5.2929,-5.2929,-5.2929,-5.2929,-5.2929,-5.2929,-5.2929,-5.2929,0.0,0.0,0.0,0.0,0.0,0.0,0.0,0.0,0.0,0.0,0.0,0.0,0.0,0.0,0.0,0.0,0.0,0.0,0.0,0.0,0.0,0.0,0.0,0.0,0.0,0.0,0.0,0.0,0.0,0.0,0.0,-4.8416,-4.8416,-4.8117,-4.9464,-5.0272,-5.0631,0.0,0.0,0.0,0.0,0.0,0.0,0.0,0.0,0.0,0.0,0.0,0.0,-4.2201,-4.1302,-4.0487,-4.0928,-4.1594,-4.2521,-4.4496,-4.6459,-4.8492,-5.09,-5.2965,-5.491,-5.6615,-5.7064,-5.6705,-5.5209,-5.4341,-5.2725,-4.8551,-4.6249,-4.4284,-4.1952,-4.2396,-4.4105,-4.6993,-5.0368,-5.3952,-5.7812,-5.9189,-5.9847,-5.9967,-5.9997,-5.9847,-5.9458,-6.0027,-6.0565,-6.0924,-6.1343,-6.1882,-6.26,-6.2929,-6.3079,-6.3079,-6.1669,-5.9685,-5.7261,-5.4386,-5.2929,-5.2929,-5.2929,-5.2929,-5.2929,-5.2929,-5.2929,-5.2929,-5.2929,-5.2929,-5.2929,-5.2929,-5.2929,-5.2929,-5.2929,-5.2929,-5.2929,-5.2929,-5.2929,-5.2929,0.0,0.0,0.0,0.0,0.0,0.0,0.0,0.0,0.0,0.0,0.0,0.0,0.0,0.0,0.0,0.0,0.0,0.0,0.0,0.0,0.0,0.0,0.0,0.0,0.0,0.0,0.0,0.0,0.0,0.0,0.0,0.0,0.0,0.0,0.0,0.0,0.0,0.0,0.0,0.0,0.0,0.0,0.0,0.0,0.0,0.0,0.0,0.0,0.0,0.0,-4.1384,-4.1235,-4.2991,-4.4167,-4.5244,-4.7339,-4.9224,-5.1033,-5.3144,-5.497,-5.6615,-5.7932,-5.7543,-5.6166,-5.3623,-5.2217,-4.9777,-4.4035,-4.2594,-4.1311,-3.8023,-3.8735,-4.0781,-4.3584,-4.6889,-5.082,-5.5867,-5.7393,-5.88,-6.0984,-6.1164,-6.1194,-6.1373,-6.1682,-6.1983,-6.2211,-6.204,-6.1983,-6.2211,-6.278,-6.2875,-6.2438,-6.1149,-5.9006,-5.5902,-5.3861,-5.2929,-5.2929,-5.2929,-5.2929,-5.2929,-5.2929,-5.2929,-5.2929,-5.2929,-5.2929,-5.2929,-5.2929,-5.2929,-5.2929,-5.2929,-5.2929,-5.2929,-5.2929,-5.2929,-5.2929,0.0,0.0,0.0,0.0,0.0,0.0,0.0,0.0,0.0,0.0,0.0,0.0,0.0,0.0,0.0,0.0,0.0,0.0,0.0,0.0,0.0,0.0,0.0,0.0,0.0,0.0,0.0,0.0,0.0,0.0,0.0,0.0,0.0,0.0,0.0,0.0,0.0,0.0,0.0,0.0,0.0,0.0,0.0,0.0,0.0,0.0,0.0,0.0,0.0,0.0,-4.3718,-4.3778,-4.4676,-4.6172,-4.8087,-5.0601,-5.1977,-5.3204,-5.5748,-5.6675,-5.7244,-5.859,-5.7214,-5.497,-5.2845,-4.9763,-4.6049,-4.1525,-3.881,-3.6678,-3.4694,-3.5863,-3.8745,-4.3892,-4.657,-5.0445,-5.7587,-5.7842,-5.8441,-6.1553,-6.1433,-6.1553,-6.263,-6.1527,-6.135,-6.2842,-6.1615,-6.1409,-6.2842,-6.3019,-6.1792,-5.8946,-5.7295,-5.5472,-5.3511,-5.3092,-5.2929,-5.2929,-5.2929,-5.2929,-5.2929,-5.2929,-5.2929,-5.2929,-5.2929,-5.2929,-5.2929,-5.2929,-5.2929,-5.2929,-5.2929,-5.2929,-5.2929,-5.2929,-5.2929,-5.2929,0.0,0.0,0.0,0.0,0.0,0.0,0.0,0.0,0.0,0.0,-4.689,-4.6369,0.0,0.0,0.0,0.0,0.0,0.0,0.0,0.0,0.0,0.0,0.0,0.0,0.0,0.0,-4.3618,-4.4347,0.0,-4.3977,-4.5334,-4.4646,-4.4676,-4.5304,0.0,0.0,0.0,0.0,0.0,0.0,0.0,0.0,0.0,0.0,0.0,0.0,0.0,0.0,0.0,0.0,-4.4556,-4.5065,-4.6411,-4.7967,-4.9823,-5.2456,-5.3952,-5.5239,-5.7513,-5.865,-5.9249,-5.9548,-5.7393,-5.4092,-4.9893,-4.6753,-4.3229,-3.7949,-3.6101,-3.501,-3.3362,-3.4639,-3.7091,-4.0516,-4.3387,-4.7499,-5.4072,-5.5359,-5.6944,-6.0625,-6.1403,-6.2002,-6.2989,-6.235,-6.2233,-6.3021,-6.1525,-6.087,-6.1703,-6.0899,-5.9426,-5.7185,-5.5973,-5.4738,-5.3331,-5.3055,-5.2929,-5.2929,-5.2929,-5.2929,-5.2929,-5.2929,-5.2929,-5.2929,-5.2929,-5.2929,-5.2929,-5.2929,-5.2929,-5.2929,-5.2929,-5.2929,-5.2929,-5.2929,-5.2929,-5.2929,0.0,0.0,0.0,0.0,0.0,0.0,0.0,-4.4197,-4.4825,-4.8446,-4.9553,-4.9209,-4.7189,-4.5382,0.0,0.0,0.0,0.0,0.0,0.0,0.0,0.0,0.0,0.0,0.0,0.0,0.0,-4.5095,-4.4047,0.0,0.0,0.0,0.0,0.0,-4.6292,-4.6488,-4.6561,0.0,0.0,0.0,0.0,-4.6202,0.0,0.0,0.0,0.0,0.0,0.0,0.0,0.0,-4.4646,-4.5394,-4.71,-4.8835,-5.0614,-5.2905,-5.47,-5.6376,-5.8351,-5.9877,-6.0659,-5.9666,-5.7063,-5.3119,-4.6836,-4.3826,-4.079,-3.5094,-3.4225,-3.4101,-3.2818,-3.4002,-3.5774,-3.7749,-4.0519,-4.4498,-5.0372,-5.2815,-5.5448,-5.9398,-6.0734,-6.1809,-6.2989,-6.2438,-6.2175,-6.2497,-6.0629,-5.9598,-5.9933,-5.8355,-5.7006,-5.6132,-5.5284,-5.4438,-5.3532,-5.313,-5.2929,-5.2929,-5.2929,-5.2929,-5.2929,-5.2929,-5.2929,-5.2929,-5.2929,-5.2929,-5.2929,-5.2929,-5.2929,-5.2929,-5.2929,-5.2929,-5.2929,-5.2929,-5.2929,-5.2929,0.0,0.0,0.0,0.0,0.0,0.0,0.0,-4.4317,-4.5843,-5.0361,-5.0032,-4.9299,-4.906,-4.8297,0.0,0.0,0.0,0.0,0.0,0.0,0.0,0.0,0.0,0.0,0.0,0.0,0.0,-4.4407,-4.4287,0.0,0.0,0.0,0.0,0.0,0.0,-4.7219,-4.7219,-4.7279,0.0,0.0,0.0,0.0,0.0,0.0,0.0,0.0,0.0,-4.3798,-4.3319,-4.4077,-4.4347,-4.4556,-4.5334,-4.7728,-5.0375,-5.1212,-5.3294,-5.5718,-5.7693,-5.9189,-5.9721,-5.7674,-5.5283,-5.1717,-4.5289,-4.1497,-3.8323,-3.4453,-3.3215,-3.2783,-3.2656,-3.3137,-3.4948,-3.91,-4.0452,-4.339,-5.0253,-5.2396,-5.476,-5.871,-5.8949,-5.9976,-6.2814,-6.0266,-5.9132,-6.06,-5.7696,-5.6569,-5.8131,-5.6569,-5.5578,-5.5499,-5.3945,-5.3067,-5.3005,-5.2955,-5.2929,-5.2929,-5.2929,-5.2929,-5.2929,-5.2929,-5.2929,-5.2929,-5.2929,-5.2929,-5.2929,-5.2929,-5.2929,-5.2929,-5.2929,-5.2929,-5.2929,-5.2929,-5.2929,-5.2929,0.0,0.0,0.0,0.0,0.0,0.0,0.0,-4.3988,-4.5544,-5.0571,-5.1828,-5.1947,-5.1109,-5.081,0.0,0.0,0.0,0.0,0.0,0.0,0.0,0.0,0.0,0.0,0.0,0.0,-4.3798,-4.4915,-4.4496,0.0,0.0,0.0,0.0,0.0,0.0,-4.7309,-4.7309,-4.7309,0.0,0.0,0.0,0.0,0.0,0.0,0.0,0.0,0.0,0.0,-4.3838,-4.3329,-4.315,-4.303,-4.2521,-4.3808,-4.6082,-4.9164,-5.1917,-5.4491,-5.6855,-5.9069,-6.0083,-5.7534,-5.4737,-5.0755,-4.3752,-4.0647,-3.8055,-3.3848,-3.3248,-3.3463,-3.3463,-3.317,-3.3952,-3.7094,-3.7436,-3.9459,-4.5657,-4.6697,-4.9309,-5.5966,-5.6686,-5.8339,-6.2665,-6.1851,-6.0899,-6.054,-5.9228,-5.7886,-5.6504,-5.4809,-5.392,-5.392,-5.3247,-5.2929,-5.2929,-5.2929,-5.2929,-5.2929,-5.2929,-5.2929,-5.2929,-5.2929,-5.2929,-5.2929,-5.2929,-5.2929,-5.2929,-5.2929,-5.2929,-5.2929,-5.2929,-5.2929,-5.2929,-5.2929,-5.2929,-5.2929,0.0,0.0,0.0,0.0,0.0,0.0,-4.3201,-4.3603,-4.5081,-4.9748,-5.1768,-5.2606,-5.2247,-5.1319,-4.9134,-4.5155,0.0,0.0,0.0,0.0,0.0,0.0,0.0,0.0,0.0,0.0,-4.4167,-4.5304,-4.5035,-4.5723,0.0,0.0,-4.686,-4.7309,0.0,0.0,0.0,0.0,0.0,0.0,0.0,0.0,0.0,0.0,0.0,0.0,0.0,0.0,0.0,0.0,0.0,-4.1961,-4.0965,0.0,0.0,0.0,-4.9643,-5.2528,-5.4671,-5.7256,-5.847,-5.5282,-5.2478,-4.8596,-4.1421,-3.8963,-3.715,-3.3386,-3.3359,-3.4109,-3.4409,-3.3905,-3.4076,0.0,0.0,-3.7445,-4.2414,-4.3248,-4.5845,-5.2428,-5.3691,-5.5674,-5.9943,-6.1116,-6.1287,-6.054,-5.9536,-5.7949,-5.5551,-5.381,-5.2929,-5.2929,-5.2929,-5.2929,-5.2929,-5.2929,-5.2929,-5.2929,-5.2929,-5.2929,-5.2929,-5.2929,-5.2929,-5.2929,-5.2929,-5.2929,-5.2929,-5.2929,-5.2929,-5.2929,-5.2929,-5.2929,-5.2929,-5.2929,-5.2929,-5.2929,0.0,0.0,0.0,0.0,0.0,0.0,0.0,-4.3069,-4.4664,-4.7919,-4.894,-5.0108,-5.1977,-4.9314,-4.7608,-4.8177,0.0,0.0,0.0,0.0,0.0,0.0,0.0,0.0,0.0,0.0,-4.4616,-4.5304,-4.5963,-4.6651,-4.7309,-4.7309,-4.7309,-4.7309,0.0,0.0,0.0,0.0,0.0,0.0,0.0,0.0,0.0,0.0,0.0,0.0,0.0,0.0,0.0,0.0,0.0,0.0,0.0,-4.0487,-3.9941,0.0,-4.6202,-4.9578,-5.0759,-5.2963,-5.3998,-4.9862,-4.7676,-4.471,-3.798,-3.5933,-3.4906,-3.298,-3.3359,-3.4279,-3.5294,-3.5457,-3.5696,-3.6387,0.0,0.0,-4.1931,-4.4047,-4.6116,-4.8323,-4.9868,-5.1591,-5.3661,-5.6421,-5.8731,-6.0359,-5.7378,-5.5419,-5.5419,-5.381,-5.2929,-5.2929,-5.2929,-5.2929,-5.2929,-5.2929,-5.2929,-5.2929,-5.2929,-5.2929,-5.2929,-5.2929,-5.2929,-5.2929,-5.2929,-5.2929,-5.2929,-5.2929,-5.2929,-5.2929,-5.2929,-5.2929,-5.2929,-5.2929,-5.2929,-5.2929,0.0,0.0,0.0,0.0,0.0,0.0,0.0,-4.0725,-4.2505,-4.5218,-4.6561,-4.8177,-5.0601,-4.8745,-4.7578,-4.8237,0.0,0.0,0.0,0.0,0.0,0.0,0.0,0.0,0.0,0.0,-4.4646,-4.5304,-4.5992,-4.6651,-4.7309,-4.7309,-4.7309,-4.7309,-4.7309,-4.7309,0.0,0.0,0.0,0.0,0.0,0.0,-4.7249,0.0,0.0,0.0,0.0,0.0,0.0,0.0,0.0,0.0,0.0,0.0,0.0,-3.9509,-4.2099,-4.5011,-4.5908,-4.7243,-4.7587,-4.4411,-4.2951,-4.1183,-3.67,-3.5736,-3.5374,-3.3851,-3.4341,-3.4905,-3.4543,-3.5034,-3.5651,-3.6162,-3.7638,0.0,-4.0858,-4.3261,-4.5911,-4.8956,-5.4096,-5.7656,-5.8334,-6.0231,-6.0718,-5.8946,-5.8856,-5.7886,-5.5551,-5.4916,-5.4122,-5.2929,-5.2929,-5.3427,-5.4608,-5.3495,-5.4081,-5.6363,-5.5207,-5.4608,-5.4608,-5.4608,-5.3987,-5.2929,-5.2929,-5.2929,-5.2929,-5.2929,-5.2929,-5.2929,-5.2929,-5.2929,-5.2929,-5.2929,-5.2929,-5.2929,0.0,0.0,0.0,0.0,0.0,0.0,0.0,-3.9477,-4.104,-4.3298,-4.4317,-4.6112,-4.9494,-4.7429,-4.6471,-4.8147,0.0,0.0,0.0,0.0,0.0,0.0,0.0,0.0,0.0,-4.3947,-4.5005,-4.6411,-4.7339,-4.8103,-4.8775,-4.9284,-4.8716,-4.7339,-4.7818,-4.7638,0.0,0.0,0.0,0.0,0.0,0.0,-4.689,0.0,0.0,0.0,0.0,0.0,0.0,0.0,0.0,0.0,0.0,0.0,0.0,0.0,-3.846,-3.9648,-4.104,-4.2182,-4.2485,-4.0002,-3.8857,-3.7584,-3.4777,-3.4597,-3.4725,-3.3697,-3.4543,-3.5166,-3.4177,-3.4839,-3.5335,-3.4863,-3.6421,-3.7989,-3.8757,-4.178,-4.5644,-5.0464,-5.46,-5.7803,-5.9772,-6.0704,-6.0839,-5.9961,-5.9688,-5.8606,-5.6504,-5.5748,-5.4916,-5.3852,-5.3852,-5.4675,-5.6375,-5.534,-5.5578,-5.7048,-5.5945,-5.5049,-5.45,-5.45,-5.3852,-5.2929,-5.2929,-5.2929,0.0,-5.2929,-5.2929,-5.2929,-5.2929,-5.2929,-5.2929,-5.2929,-5.2929,-5.2929,0.0,0.0,0.0,0.0,0.0,0.0,0.0,0.0,0.0,0.0,-4.2321,-4.3998,-4.8401,-4.5544,-4.4545,0.0,0.0,0.0,0.0,0.0,0.0,0.0,0.0,0.0,0.0,-4.3947,-4.5544,-4.8087,-4.9494,-5.0465,-5.1169,-5.2546,-5.1139,-4.7489,-4.8716,-4.8177,0.0,0.0,0.0,0.0,-4.707,-4.692,0.0,0.0,0.0,0.0,0.0,0.0,0.0,0.0,0.0,0.0,0.0,0.0,0.0,0.0,0.0,0.0,0.0,-3.773,-3.826,-3.6379,-3.5127,-3.3947,-3.2475,-3.2711,0.0,-3.2668,-3.4041,-3.503,-3.4088,-3.4702,-3.4794,-3.306,-3.4128,-3.5536,-3.633,-4.0292,-4.562,-5.2486,-5.2407,-5.3677,-5.8479,-5.8622,-5.9593,-6.2497,-5.99,-5.8131,-5.8005,-5.644,-5.5617,-5.5748,-5.5748,-5.6504,-5.8194,-5.8068,-5.7213,-5.5748,-5.5617,-5.4675,-5.3042,-5.3042,-5.2973,-5.2929,-5.2929,-5.2929,-5.2929,-5.2929,-5.2929,-5.2929,-5.2929,-5.2929,-5.2929,-5.2929,-5.2929,-5.2929,0.0,0.0,0.0,0.0,0.0,0.0,0.0,0.0,0.0,0.0,0.0,-4.2402,-4.4496,-4.3858,0.0,0.0,0.0,0.0,0.0,0.0,0.0,0.0,0.0,0.0,0.0,-4.3947,-4.4855,-4.5992,-4.8356,-4.9823,-5.0465,-5.2336,-5.1665,-4.885,-4.9179,-4.8177,0.0,0.0,0.0,0.0,-4.7249,-4.692,0.0,0.0,0.0,0.0,-4.3828,-4.3529,0.0,0.0,0.0,0.0,0.0,0.0,0.0,0.0,-3.4778,-3.342,-3.2415,0.0,-3.2428,-3.1543,-3.1135,-3.1034,0.0,-3.1563,-3.188,-3.2478,-3.2947,-3.3254,-3.3101,-3.3768,-3.4327,-3.4215,-3.6579,-3.857,-3.8962,-4.3519,-4.8661,-5.3529,-5.5501,-5.6755,-5.7584,-6.0202,-6.1168,-5.9318,-5.9626,-5.9352,-5.8068,-5.7624,-5.7977,-5.929,-5.929,-5.9475,-5.9933,-5.8606,-5.8418,-5.929,-5.7977,-5.6466,-5.4782,-5.4782,-5.4122,-5.2929,-5.2929,-5.2929,-5.2929,-5.2929,-5.2929,-5.2929,-5.2929,-5.2929,-5.2929,-5.2929,-5.2929,-5.2929,0.0,0.0,0.0,0.0,0.0,0.0,0.0,0.0,0.0,0.0,0.0,0.0,0.0,0.0,0.0,0.0,0.0,0.0,0.0,0.0,0.0,0.0,0.0,0.0,-4.329,-4.3648,-4.4915,-4.7173,-4.861,-5.0242,-5.2097,-5.3144,-5.1917,-4.882,-4.7892,-4.704,-4.6339,-4.704,-4.713,-4.689,-4.7189,0.0,0.0,0.0,0.0,0.0,-4.3529,-4.315,0.0,-4.32,-4.2462,-4.1422,0.0,0.0,0.0,0.0,-3.3713,-3.1935,-3.0595,-3.0432,-3.0608,-3.0532,-3.0357,-3.0363,-3.1112,0.0,0.0,-3.1865,-3.2307,-3.249,-3.2137,-3.3107,-3.4,-3.4027,-3.6673,-4.0048,-4.3794,-4.7644,-5.162,-5.581,-5.7724,-5.8682,-5.8687,-6.0636,-6.1466,-6.0416,-6.0448,-6.0116,-5.9194,-5.9132,-5.9536,-6.048,-6.1258,-6.1703,-6.1703,-5.9994,-5.9256,-5.9352,-5.7596,-5.588,-5.4231,-5.4231,-5.3742,-5.2929,-5.2929,-5.2929,-5.2929,-5.2929,-5.2929,-5.2929,-5.2929,-5.2929,-5.2929,-5.2929,-5.2929,-5.2929,0.0,0.0,0.0,0.0,0.0,0.0,0.0,0.0,0.0,0.0,0.0,0.0,0.0,0.0,0.0,0.0,0.0,0.0,0.0,0.0,0.0,0.0,0.0,-4.3349,-4.3439,-4.3349,-4.5095,-4.87,-4.9419,-5.1199,-5.4072,-5.479,-5.2845,-4.8656,-4.686,-4.6112,-4.6202,-4.698,-4.698,-4.6531,-4.707,0.0,0.0,0.0,0.0,0.0,0.0,0.0,0.0,-4.288,-4.2222,-4.1205,-4.0934,0.0,0.0,0.0,0.0,0.0,-3.027,-3.0507,-3.0949,-3.1286,-3.1099,-3.0961,-3.1476,0.0,0.0,0.0,-3.1829,-3.2182,-3.1554,-3.3096,-3.437,-3.4143,-3.6934,-4.1603,-4.8551,-5.1401,-5.3996,-5.7388,-5.8885,-5.9846,-6.0307,-6.0692,-6.1525,-6.3021,-6.1703,-6.087,-6.087,-6.087,-6.087,-6.087,-6.2261,-6.2814,-6.261,-6.12,-5.9659,-5.8005,-5.6245,-5.4541,-5.2929,-5.2929,-5.2929,-5.2929,-5.2829,-5.2804,-5.2804,-5.2703,-5.2678,-5.2678,-5.2779,-5.2804,-5.2804,-5.2904,-5.2929,-5.2929,0.0,0.0,0.0,0.0,0.0,0.0,0.0,0.0,0.0,0.0,0.0,0.0,0.0,0.0,0.0,0.0,0.0,0.0,0.0,0.0,0.0,0.0,-4.303,-4.3559,-4.4137,-4.3589,-4.4167,-4.5903,-4.9823,-5.2306,-5.3414,-5.7363,-5.6166,-5.072,-4.9807,-4.7967,-4.5544,-4.677,-4.7249,-4.716,-4.7279,0.0,0.0,0.0,0.0,0.0,0.0,0.0,0.0,-4.1833,-4.1175,-4.0345,-3.8977,0.0,0.0,0.0,0.0,0.0,-3.1833,-3.1913,-3.1842,-3.1343,-3.152,-3.1894,-3.2326,0.0,0.0,0.0,-3.1315,-3.167,-3.2421,-3.4742,-3.6873,-3.7938,-4.2164,-4.6301,-4.8969,-5.2184,-5.4347,-5.4494,-5.7953,-6.0252,-5.9848,-6.1527,-6.2817,-6.3079,-6.2875,-6.2672,-6.2672,-6.2672,-6.2672,-6.2672,-6.2396,-6.1608,-6.0235,-6.043,-5.9659,-5.8005,-5.6245,-5.4541,-5.2929,-5.2929,-5.2929,-5.2904,-5.2427,-5.2226,-5.2201,-5.1724,-5.1548,-5.1574,-5.2051,-5.2226,-5.2277,-5.2754,-5.2929,-5.311,0.0,0.0,0.0,0.0,0.0,0.0,0.0,0.0,0.0,0.0,0.0,0.0,0.0,0.0,0.0,0.0,0.0,0.0,0.0,0.0,0.0,-4.3938,-4.3898,-4.3838,-4.3738,-4.4515,-4.607,-4.8506,-5.099,-5.3443,-5.5837,-5.5478,-5.3473,-5.0062,-4.7967,-4.6591,-4.5903,-4.6501,-4.698,-4.7279,0.0,0.0,0.0,0.0,0.0,0.0,0.0,0.0,0.0,0.0,-4.0935,-4.0129,-3.8498,0.0,0.0,0.0,0.0,0.0,-3.0918,-3.1487,-3.2004,-3.1701,-3.2289,-3.3024,-3.3457,-3.2727,0.0,0.0,-3.3061,-3.3414,-3.4648,-3.6926,-3.9836,-4.3472,-4.7515,-5.0993,-5.3231,-5.5513,-5.696,-5.6865,-5.9496,-6.1028,-6.0196,-6.1939,-6.3079,-6.3079,-6.3079,-6.2929,-6.257,-6.254,-6.2391,-6.2032,-6.0903,-5.9917,-5.9186,-5.7645,-5.6648,-5.6175,-5.4719,-5.3521,-5.2477,-5.2477,-5.2327,-5.2026,-5.1774,-5.1649,-5.1649,-5.1398,-5.1272,-5.1297,-5.1548,-5.185,-5.2287,-5.3715,-5.4231,-5.45,0.0,0.0,0.0,0.0,0.0,0.0,0.0,0.0,0.0,0.0,0.0,0.0,0.0,0.0,0.0,0.0,0.0,0.0,0.0,0.0,-4.268,-4.4317,-4.4347,-4.4485,-4.4904,-4.6322,-4.8476,-5.1439,-5.2875,-5.5299,-5.8501,-5.4491,-5.1558,-4.9629,-4.6741,-4.5693,-4.6082,-4.6219,-4.6531,-4.68,0.0,0.0,0.0,0.0,0.0,0.0,0.0,0.0,0.0,0.0,0.0,0.0,0.0,0.0,0.0,-3.2323,-3.0778,-2.9854,-3.0105,-3.1151,-3.221,-3.221,-3.3102,-3.4209,-3.4962,-3.4362,-3.408,-3.5555,-3.5873,-3.6192,-3.7225,-3.9762,-4.3372,-4.8417,-5.1828,-5.469,-5.6918,-5.8584,-5.9622,-5.9736,-6.1291,-6.1991,-6.12,-6.2292,-6.3019,-6.2869,-6.2989,-6.272,-6.1912,-6.163,-6.1221,-6.0568,-5.8842,-5.7703,-5.7347,-5.4851,-5.3847,-5.4428,-5.3155,-5.2327,-5.1925,-5.1925,-5.1674,-5.1272,-5.1147,-5.1071,-5.1071,-5.0946,-5.0896,-5.0896,-5.1021,-5.174,-5.2951,-5.5011,-5.6137,-5.6736,0.0,0.0,0.0,0.0,0.0,0.0,0.0,0.0,0.0,0.0,0.0,0.0,0.0,0.0,0.0,0.0,0.0,0.0,0.0,0.0,-4.0876,-4.1624,-4.3359,-4.6022,-4.9628,-4.9284,-5.0062,-5.2127,-5.5867,-5.8471,-5.9907,-5.7693,-5.467,-5.102,-4.9553,-4.7578,-4.5394,-4.6052,-4.5992,-4.5484,-4.6082,0.0,0.0,0.0,0.0,0.0,0.0,0.0,0.0,0.0,0.0,0.0,0.0,0.0,-3.3248,-3.0714,-2.9907,-3.0005,-3.1009,-3.1986,-3.2712,-3.2712,-3.3779,-3.5282,-3.7146,-3.7106,-3.7247,-3.9237,-3.9613,-3.9642,-3.9729,-4.3602,-4.788,-5.1379,-5.4192,-5.6354,-5.7453,-5.9551,-6.0837,-6.0458,-6.1969,-6.3019,-6.2933,-6.3021,-6.281,-6.2211,-6.272,-6.254,-6.1253,-6.0326,-5.9594,-5.887,-5.6711,-5.4841,-5.3414,-5.3038,-5.3176,-5.3821,-5.2159,-5.1373,-5.1348,-5.1348,-5.1322,-5.1247,-5.072,-5.0469,-5.0444,-4.9916,-4.9715,-4.9766,-5.0268,-5.2126,-5.464,-5.6269,-5.8255,-6.0091,0.0,0.0,0.0,0.0,0.0,0.0,0.0,0.0,0.0,0.0,0.0,0.0,0.0,0.0,0.0,0.0,0.0,0.0,0.0,0.0,-4.1654,-4.315,-4.4317,-4.6591,-5.0106,-5.1199,-5.3084,-5.5897,-5.8201,-5.8949,-5.8141,-5.4521,-5.1588,-4.9284,-4.6711,-4.5723,-4.5903,-4.5304,-4.5394,-4.5873,-4.5304,-4.4766,0.0,0.0,0.0,0.0,0.0,0.0,0.0,0.0,-3.896,-3.7961,0.0,0.0,-3.3101,-3.056,-3.0216,-3.0762,-3.1176,-3.3014,-3.4613,-3.3963,-3.5767,-3.7739,-3.7895,-3.8551,-3.9912,-4.2702,-4.3619,-4.4152,-4.5023,-4.7003,-4.9464,-5.2336,-5.5029,-5.7153,-5.8339,-5.9997,-6.1058,-6.0904,-6.1838,-6.248,-6.248,-6.248,-6.2361,-6.2121,-6.1942,-6.1008,-5.9125,-5.8639,-5.7681,-5.6089,-5.4227,-5.296,-5.2368,-5.0991,-5.046,-5.0665,-5.1074,-5.1096,-5.0745,-5.0745,-5.0569,-5.0218,-4.9992,-4.9916,-4.9891,-4.9665,-4.959,-4.9769,-5.128,-5.316,-5.5189,-5.7229,-5.8503,-5.9417,0.0,0.0,0.0,0.0,0.0,0.0,0.0,0.0,0.0,0.0,0.0,0.0,0.0,0.0,0.0,0.0,0.0,0.0,0.0,-4.0666,-4.1983,-4.3329,-4.4616,-4.6651,-4.9553,-5.2187,-5.482,-5.7513,-5.883,-5.8231,-5.5777,-5.2007,-4.9883,-4.9045,-4.5514,-4.5065,-4.683,-4.5274,-4.4915,-4.5263,-4.4575,-4.4197,0.0,0.0,0.0,0.0,0.0,0.0,0.0,0.0,-3.8512,-3.7431,0.0,0.0,0.0,0.0,-3.0987,-3.1342,-3.1342,-3.3175,-3.4902,-3.4038,-3.6468,-3.9192,-3.9479,-4.0801,-4.288,-4.6172,-4.7219,-4.7758,-4.8476,-4.9314,-5.0541,-5.2546,-5.5239,-5.7573,-5.8919,-6.0086,-6.0864,-6.1074,-6.1493,-6.1792,-6.1792,-6.1792,-6.1503,-6.0723,-6.0487,-5.9243,-5.6763,-5.6181,-5.5165,-5.3457,-5.1636,-5.0721,-5.0721,-4.9265,-4.851,-4.851,-4.9665,-5.0017,-4.9615,-4.9615,-4.9414,-4.9063,-4.9264,-4.9339,-4.9403,-5.0066,-5.0689,-5.132,-5.3251,-5.4836,-5.6195,-5.8263,-5.9102,-5.945,0.0,0.0,0.0,0.0,0.0,0.0,0.0,0.0,0.0,0.0,0.0,0.0,0.0,0.0,0.0,0.0,0.0,0.0,-3.9403,-4.0666,-4.1384,-4.1384,-4.3898,-4.6202,-4.8207,-5.2127,-5.482,-5.6248,-5.7453,-5.6406,-5.3084,-5.1139,-5.0495,-5.099,-4.707,-4.6411,-4.8117,-4.6142,-4.4526,-4.3349,-4.4047,-4.3858,-4.323,0.0,0.0,0.0,0.0,0.0,0.0,0.0,-3.7524,-3.6313,0.0,0.0,0.0,0.0,-3.2144,-3.1668,-3.164,-3.2382,-3.3059,-3.273,-3.5588,-3.9252,-4.2269,-4.4175,-4.6262,-4.9538,-5.0226,-5.0016,-4.9404,-5.0361,-5.1439,-5.2097,-5.494,-5.7543,-5.889,-5.9638,-6.0326,-6.0984,-6.1074,-6.1104,-6.1074,-6.1074,-6.0129,-5.7888,-5.8263,-5.7361,-5.4501,-5.2917,-5.1821,-5.1179,-4.903,-4.7908,-4.7908,-4.7908,-4.7883,-4.7883,-4.7883,-4.7883,-4.7908,-4.7908,-4.7908,-4.7933,-4.851,-4.8825,-4.8976,-5.1132,-5.2944,-5.4564,-5.6079,-5.711,-5.7887,-5.9529,-6.0505,-6.1014,0.0,0.0,0.0,0.0,0.0,0.0,0.0,0.0,0.0,0.0,0.0,0.0,0.0,0.0,0.0,0.0,0.0,0.0,-4.0098,-4.1354,-4.2111,-4.2111,-4.3688,-4.4885,-4.5484,-4.8476,-5.2276,-5.6825,-5.6316,-5.4132,-5.0437,-4.8895,-4.7519,-4.6352,-4.6112,-4.5813,-4.5454,-4.4855,-4.4377,-4.3988,-4.3708,-4.324,-4.2641,0.0,0.0,0.0,0.0,0.0,0.0,0.0,0.0,0.0,0.0,0.0,0.0,-3.3127,-3.3564,-3.4462,-3.3545,-3.469,-3.6335,-3.7145,-3.9699,-4.2623,-4.5357,-4.639,-4.7908,-5.2157,-5.2636,-5.2097,-5.1439,-5.1648,-5.1977,-5.2157,-5.4581,-5.6585,-5.6974,-5.7992,-5.859,-5.8321,-5.9129,-5.9518,-5.9069,-5.846,-5.7676,-5.6503,-5.5225,-5.3591,-5.1615,-5.105,-5.0211,-4.8917,-4.8232,-4.7732,-4.7355,-4.6979,-4.6602,-4.62,-4.62,-4.6803,-4.7908,-4.7908,-4.7908,-4.7908,-4.8083,-4.8756,-4.9898,-5.1567,-5.3539,-5.5396,-5.5877,-5.7122,-5.8677,-5.8698,-5.9129,-5.9608,0.0,0.0,0.0,0.0,0.0,0.0,0.0,0.0,0.0,0.0,-3.917,-3.9373,0.0,0.0,0.0,0.0,0.0,0.0,0.0,0.0,-4.2291,-4.2021,-4.321,-4.4407,-4.5484,-4.7848,-5.0421,-5.3204,-5.2965,-5.1079,-4.7742,-4.7967,-4.7578,-4.6668,-4.8057,-4.7908,-4.6578,-4.6112,-4.5125,-4.3858,-4.3738,-4.318,-4.2381,0.0,0.0,0.0,0.0,0.0,0.0,0.0,0.0,0.0,0.0,0.0,0.0,-3.4169,-3.4553,-3.5229,-3.4434,-3.56,-3.7375,-3.8661,-4.1594,-4.5035,-4.8476,-4.9853,-5.1229,-5.4012,-5.4281,-5.3683,-5.2755,-5.2606,-5.2606,-5.2606,-5.461,-5.6218,-5.6218,-5.7064,-5.7573,-5.7154,-5.7304,-5.7276,-5.6839,-5.5868,-5.4828,-5.3749,-5.2468,-5.0944,-4.9118,-4.8851,-4.8163,-4.6954,-4.7281,-4.73,-4.6908,-4.7192,-4.7117,-4.6778,-4.6778,-4.7325,-4.8198,-4.7577,-4.7561,-4.8205,-4.8989,-5.0366,-5.2103,-5.302,-5.4483,-5.6293,-5.6293,-5.6745,-5.7424,-5.7252,-5.7046,-5.6866,0.0,0.0,-3.5519,-3.5519,0.0,0.0,0.0,0.0,0.0,0.0,-3.9373,-3.9373,0.0,0.0,0.0,0.0,0.0,0.0,0.0,0.0,-4.2231,-4.1594,-4.2761,-4.4545,-4.707,-4.8761,-4.879,-4.704,-4.8476,-4.7832,-4.5185,-4.7951,-4.9434,-4.9897,-5.1319,-5.1169,-4.9747,-4.8416,-4.6052,-4.326,-4.3838,-4.3269,-4.2081,-4.1482,0.0,0.0,0.0,0.0,0.0,0.0,0.0,0.0,0.0,0.0,-3.5669,-3.5549,-3.513,-3.4773,-3.4713,-3.5672,-3.7015,-3.8482,-4.2402,-4.707,-5.1409,-5.3892,-5.5269,-5.5209,-5.5239,-5.488,-5.3593,-5.3354,-5.3324,-5.3204,-5.488,-5.6158,-5.5978,-5.6496,-5.6885,-5.6825,-5.5552,-5.463,-5.463,-5.322,-5.1656,-5.0108,-4.9871,-4.8911,-4.6989,-4.6547,-4.6103,-4.5658,-4.6351,-4.674,-4.6629,-4.7948,-4.8566,-4.8459,-4.8621,-4.8702,-4.8703,-4.7262,-4.7365,-4.8846,-5.0759,-5.2798,-5.4662,-5.4742,-5.5664,-5.7004,-5.681,-5.6025,-5.5008,-5.5359,-5.4686,-5.3671,0.0,0.0,-3.5519,-3.5519,0.0,0.0,0.0,0.0,0.0,0.0,0.0,0.0,0.0,-3.9373,0.0,0.0,0.0,0.0,0.0,0.0,-4.306,-4.2871,-4.3688,-4.4616,-4.5693,-4.5633,-4.5364,-4.4975,-4.7339,-4.686,-4.3798,-4.701,-4.8027,-4.7206,-4.9075,-4.8895,-4.6997,-4.5143,-4.3688,-4.259,-4.2162,-4.1235,-4.0038,-3.9888,-3.902,0.0,0.0,0.0,0.0,0.0,0.0,0.0,-3.5519,-3.6207,-3.6806,-3.5789,-3.6118,-3.6656,-3.6178,-3.6985,0.0,-4.1526,-4.6531,-5.1259,-5.3294,-5.491,-5.5807,-5.5299,-5.5598,-5.5718,-5.491,-5.476,-5.4401,-5.3354,-5.488,-5.5679,-5.4042,-5.485,-5.5418,-5.491,-5.3532,-5.2693,-5.2693,-5.0381,-4.8516,-4.7695,-4.6495,-4.5598,-4.5171,-4.6071,-4.6543,-4.6439,-4.7162,-4.7083,-4.6075,-4.6944,-4.6857,-4.5848,-4.7346,-4.8094,-4.8096,-4.8709,-4.9442,-5.0297,-5.1415,-5.2444,-5.3444,-5.4053,-5.5164,-5.6213,-5.455,-5.4558,-5.5388,-5.3782,-5.3627,-5.4221,0.0,0.0,0.0,0.0,0.0,0.0,0.0,0.0,0.0,0.0,0.0,0.0,0.0,-3.9373,0.0,0.0,-4.0337,0.0,0.0,0.0,-4.3,-4.329,-4.3958,-4.4197,-4.3938,-4.3868,-4.3539,-4.291,-4.4616,-4.4736,-4.3349,-4.6082,-4.698,-4.6369,-4.8386,-4.7997,-4.5753,-4.4706,-4.318,-4.1452,-4.1384,-4.0397,-3.8931,-3.8931,-3.8123,-3.6896,-3.6237,0.0,0.0,0.0,0.0,0.0,0.0,0.0,-3.6257,-3.5112,-3.5607,-3.6417,-3.6118,0.0,0.0,-4.5035,-4.8985,-5.2067,-5.3414,-5.4251,-5.464,-5.4281,-5.5269,-5.5777,-5.4461,-5.4491,-5.4371,-5.3354,-5.4042,-5.4371,-5.3324,-5.3773,-5.4102,-5.3743,-5.186,-5.0558,-5.0558,-4.8572,-4.7136,-4.6816,-4.6386,-4.6041,-4.5779,-4.6169,-4.6222,-4.5953,-4.6952,-4.7192,-4.6531,-4.7582,-4.7926,-4.7488,-4.8524,-4.9009,-4.8995,-4.9239,-4.9499,-4.9883,-5.1095,-5.2165,-5.3077,-5.3128,-5.3561,-5.4045,-5.2509,-5.2211,-5.2591,-5.1727,-5.1683,-5.2165,0.0,0.0,0.0,0.0,0.0,0.0,0.0,0.0,0.0,0.0,0.0,0.0,0.0,0.0,-3.9373,0.0,0.0,0.0,0.0,-4.1235,-4.2491,-4.315,-4.3688,-4.3509,-4.259,-4.294,-4.2641,-4.1602,-4.2021,-4.2581,-4.3349,-4.5352,-4.6262,-4.6202,-4.7848,-4.7279,-4.5095,-4.4526,-4.2701,-4.0247,-4.0576,-3.9649,-3.8063,-3.8063,-3.7345,-3.6237,-3.5699,-3.5392,-3.5133,-3.4476,0.0,0.0,0.0,0.0,-3.5248,-3.4471,-3.4839,-3.5519,-3.5639,0.0,-4.2192,-4.7622,-5.0002,-5.1379,-5.2576,-5.2935,-5.2935,-5.2725,-5.4251,-5.52,-5.3503,-5.3653,-5.3803,-5.3114,-5.3114,-5.3114,-5.2875,-5.2845,-5.2845,-5.2845,-5.0363,-4.8625,-4.8788,-4.7325,-4.643,-4.643,-4.6998,-4.7136,-4.672,-4.6399,-4.5973,-4.5475,-4.6719,-4.7315,-4.7166,-4.8515,-4.9313,-4.9664,-4.9783,-4.9647,-4.9263,-4.8575,-4.8511,-4.9024,-5.012,-5.136,-5.2585,-5.1799,-5.159,-5.1689,-5.0684,-4.9969,-4.9528,-4.9835,-4.9842,-4.9816,0.0,0.0,0.0,0.0,0.0,0.0,0.0,0.0,0.0,0.0,-3.9373,-3.9373,0.0,0.0,0.0,-3.9373,-4.0008,0.0,-4.0277,0.0,0.0,-4.25,-4.262,-4.2791,-4.314,-4.2731,-4.244,-4.2261,-4.1782,-4.2132,-4.3349,-4.5352,-4.5992,-4.5454,-4.5693,-4.5304,-4.4257,-4.1414,-3.9948,-3.9469,-3.8362,-3.7464,-3.6746,-3.6746,-3.6297,-3.5639,-3.5549,-3.4938,-3.4312,-3.5067,-3.4587,0.0,0.0,0.0,-3.5033,-3.5244,-3.5392,-3.5639,-3.6207,0.0,-4.3648,0.0,-4.8985,-5.0524,-5.1319,-5.1917,-5.2007,-5.0823,-5.2217,-5.3503,-5.3234,-5.3264,-5.3084,-5.2426,-5.2815,-5.2785,-5.1648,-5.1468,-5.1468,-5.1468,-4.9047,-4.7643,-4.8236,-4.65,-4.5344,-4.5344,-4.5413,-4.5431,-4.5348,-4.6425,-4.7014,-4.6928,-4.7724,-4.7861,-4.7213,-4.7997,-4.8147,-4.7623,-4.822,-4.7475,-4.5688,-4.5555,-4.684,-4.9077,-4.868,-4.92,-5.0281,-4.9596,-4.9905,-5.0712,-4.9254,-4.9308,-4.9981,-4.9285,-4.9531,-5.0393,0.0,0.0,0.0,0.0,0.0,0.0,0.0,0.0,0.0,0.0,0.0,-3.9373,0.0,0.0,0.0,0.0,0.0,0.0,-4.0367,-4.0666,0.0,0.0,-4.1841,-4.1773,-4.1683,-4.1414,-4.1085,-4.0726,-4.0786,-4.1504,-4.2821,-4.4077,-4.4635,-4.4706,-4.3988,-4.3269,-4.2491,-3.9918,-3.8631,-3.8212,-3.7255,-3.6507,-3.5938,-3.5938,-3.5759,-3.5519,-3.5519,-3.5228,-3.4739,-3.4075,-3.4209,-3.4416,-3.3374,0.0,0.0,0.0,-3.5067,-3.5968,-3.8093,-4.0157,-4.2581,0.0,-4.7938,-4.8865,-4.9883,-5.0361,-5.0391,-4.9823,-5.0391,-5.1036,-5.1036,-5.1289,-5.1319,-5.0661,-5.1109,-5.1199,-5.0272,-5.0451,-5.0495,-5.0182,-4.8419,-4.7328,-4.7616,-4.6784,-4.6276,-4.6276,-4.6661,-4.6911,-4.6911,-4.7099,-4.7241,-4.7241,-4.6886,-4.6857,-4.7241,-4.6148,-4.5645,-4.5673,-4.5558,-4.5156,-4.452,-4.3743,-4.4671,-4.6813,-4.684,-4.7566,-4.87,-4.8327,-4.8427,-4.8852,-4.7977,-4.8154,-4.8922,-4.885,-4.9665,-5.0946,0.0,0.0,0.0,0.0,0.0,0.0,0.0,0.0,0.0,0.0,0.0,0.0,0.0,0.0,0.0,0.0,0.0,0.0,-3.9619,0.0,0.0,0.0,0.0,-4.0397,-3.9888,-3.9888,-3.9649,-3.917,-3.9828,-4.0995,-4.2611,-4.312,-4.3868,-4.4766,-4.3269,-4.2162,-4.1265,-3.9439,-3.8452,-3.8063,-3.6746,-3.5938,-3.5489,-3.531,-3.525,-3.528,-3.5639,-3.5475,-3.4997,-3.4111,-3.4433,-3.4908,-3.3112,-3.3937,0.0,0.0,0.0,-3.6088,-3.8691,0.0,-4.0965,-4.4436,-4.5933,-4.677,-4.7578,-4.8267,-4.876,-4.8566,-4.882,-4.9,-4.8805,-4.9434,-4.9823,-4.9389,-4.9673,-4.9823,-4.9389,-4.9553,-4.9553,-4.912,-4.7992,-4.7248,-4.7248,-4.7248,-4.7248,-4.7248,-4.7732,-4.7895,-4.76,-4.7081,-4.6682,-4.6344,-4.5389,-4.5343,-4.6299,-4.4442,-4.3664,-4.3977,-4.3392,-4.3257,-4.3413,-4.2395,-4.2808,-4.4353,-4.4898,-4.5866,-4.7028,-4.6829,-4.6924,-4.7198,-4.7126,-4.7456,-4.7983,-4.856,-4.9741,-5.1071,0.0,0.0,0.0,0.0,0.0,0.0,0.0,0.0,0.0,0.0,0.0,0.0,0.0,-3.9373,-3.9373,-3.9373,0.0,0.0,0.0,0.0,0.0,0.0,0.0,0.0,-3.8482,-3.8482,-3.8482,-3.8452,-3.914,-4.0748,-4.326,-4.3359,-4.4407,-4.61,-4.4127,-4.2581,-4.1294,-3.9948,-3.9709,-3.9978,-3.6836,-3.5519,-3.5429,-3.4771,-3.4563,-3.4743,-3.5968,-3.5436,-3.4385,-3.6458,-3.5941,-3.4668,-3.5854,-3.6089,-3.5803,0.0,0.0,0.0,-3.6477,-3.8063,0.0,-3.9768,-4.2162,-4.4317,-4.3738,-4.5603,-4.7219,-4.6621,-4.7459,-4.8147,-4.7519,-4.8446,-4.9359,-4.9329,-4.9329,-4.9359,-4.9299,-4.8745,-4.8386,-4.8356,-4.7744,-4.7312,-4.7312,-4.7312,-4.7312,-4.7312,-4.7326,-4.6829,-4.5627,-4.5508,-4.4978,-4.374,-4.3646,-4.3646,-4.3693,-4.3551,-4.3182,-4.2512,-4.2488,-4.2087,-4.1433,-4.1379,-4.1735,-4.2398,-4.2952,-4.3784,-4.4742,-4.4759,-4.5414,-4.6446,-4.6903,-4.7456,-4.7983,-4.856,-4.949,-5.0469,0.0,0.0,0.0,0.0,0.0,0.0,0.0,0.0,0.0,0.0,0.0,0.0,0.0,-3.9373,-3.9373,-3.9373,-3.92,0.0,0.0,0.0,0.0,0.0,0.0,0.0,0.0,-3.905,-3.905,-3.905,-3.8841,-3.9679,-4.1444,-4.1474,-4.1863,-4.2551,-4.312,-4.2851,-4.1901,-3.9679,-3.8901,-3.8931,-3.6926,-3.5878,-3.5429,-3.4773,-3.4234,-3.3963,-3.4893,-3.4818,-3.4496,-3.5492,-3.5793,-3.5729,-3.5565,-3.6153,-3.6778,-3.6287,-3.5848,-3.5729,-3.6776,0.0,0.0,-3.9619,-4.0935,-4.1863,-4.2043,-4.3778,-4.5185,-4.4485,-4.5454,-4.6441,-4.6621,-4.7399,-4.7997,-4.7997,-4.8356,-4.8506,-4.8057,-4.8177,-4.8117,-4.7698,-4.7459,-4.7309,-4.7309,-4.7309,-4.6975,-4.6166,-4.6844,-4.6388,-4.4303,-4.4978,-4.484,-4.3551,-4.2689,-4.1887,-4.1069,-4.1887,-4.1746,-4.0671,-4.0671,-4.0718,-4.0802,-4.0802,-4.1103,-4.1656,-4.2208,-4.3087,-4.4141,-4.4869,-4.5422,-4.5874,-4.6778,-4.7255,-4.7531,-4.8435,-4.9238,-4.9941,0.0,0.0,0.0,0.0,0.0,0.0,0.0,0.0,0.0,0.0,0.0,0.0,0.0,0.0,-3.932,-3.908,-3.929,-3.902,-3.8123,-3.8901,0.0,0.0,0.0,0.0,0.0,0.0,0.0,0.0,0.0,-3.908,-4.0397,-4.0187,-4.0307,-4.0786,-4.1893,-4.2132,-4.1632,-3.9828,-3.905,-3.8901,-3.7195,-3.6357,-3.6088,-3.5639,-3.519,-3.4921,-3.5818,-3.5848,-3.5514,-3.5742,-3.6123,-3.6376,-3.5712,-3.6064,-3.6686,-3.6267,-3.5848,-3.5699,-3.6537,-3.6626,-3.7015,-3.917,-3.9738,-3.9948,-4.0846,-4.2073,-4.3,-4.3,-4.3868,-4.4915,-4.5813,-4.6352,-4.677,-4.7249,-4.7668,-4.7818,-4.7369,-4.7332,-4.7155,-4.6741,-4.6638,-4.6638,-4.6638,-4.6638,-4.6211,-4.5191,-4.5504,-4.4846,-4.2726,-4.3388,-4.333,-4.2252,-4.1419,-4.0541,-3.9697,-4.0567,-4.0567,-3.9697,-3.9697,-3.9898,-4.0249,-4.0249,-4.0551,-4.1025,-4.1455,-4.2333,-4.3614,-4.4744,-4.5321,-4.5573,-4.6502,-4.7079,-4.7481,-4.8209,-4.8962,-4.964,0.0,0.0,0.0,0.0,0.0,0.0,0.0,0.0,0.0,0.0,0.0,0.0,0.0,0.0,0.0,-3.8542,-3.911,-3.8931,-3.7584,-3.8721,0.0,0.0,0.0,0.0,0.0,0.0,0.0,0.0,0.0,0.0,0.0,-3.9679,-4.0038,-4.1235,-4.0606,-4.0307,-4.0277,-4.0337,-4.0337,-4.0157,-3.7554,-3.6866,-3.7404,-3.7375,-3.7315,-3.7464,-3.8781,-3.8422,-3.7315,-3.7375,-3.6985,-3.6507,-3.6567,-3.6088,-3.5549,-3.5549,-3.5549,-3.5519,0.0,0.0,0.0,-3.8003,-3.8332,-3.8661,-3.9948,-4.0307,-4.0696,-4.1991,-4.2761,-4.3589,-4.4934,-4.5214,-4.5663,-4.6924,-4.7206,-4.7249,-4.7266,-4.6137,-4.5389,-4.5343,-4.5343,-4.5314,-4.536,-4.536,-4.5146,-4.4585,-4.3392,-4.2144,-4.0817,-4.072,-4.0421,-3.9673,-3.9647,-3.9647,-3.9647,-3.9647,-3.9647,-3.9672,-3.9672,-3.9672,-3.9697,-3.9697,-3.9998,-4.0501,-4.0526,-4.1455,-4.3011,-4.4141,-4.4945,-4.5522,-4.6075,-4.6954,-4.7883,-4.7908,-4.8636,-4.959,0.0,0.0,0.0,0.0,0.0,0.0,0.0,0.0,0.0,0.0,0.0,0.0,-4.0068,-4.0965,-4.1302,-4.0606,-4.1175,-4.0995,-3.9649,-3.9918,-3.9828,-3.917,0.0,0.0,0.0,0.0,0.0,0.0,0.0,0.0,0.0,0.0,0.0,-3.8512,-3.8302,-3.8003,-3.7614,-3.8542,-3.923,-3.9559,-3.7823,-3.7255,-3.7315,-3.6387,-3.5429,-3.4681,-3.5549,-3.5609,-3.5429,-3.6417,-3.6926,-3.7315,-3.8302,-3.7494,-3.6297,-3.6746,-3.6567,-3.6118,-3.5639,0.0,0.0,0.0,0.0,0.0,-3.6896,-3.7943,-3.8901,-3.8811,-4.0068,-4.1364,-4.1784,-4.2987,-4.3726,-4.338,-4.4732,-4.5875,-4.5931,-4.5194,-4.451,-4.406,-4.3678,-4.3793,-4.4592,-4.4323,-4.364,-4.2593,-4.3041,-4.2021,-3.893,-3.8759,-3.8688,-3.8467,-3.8467,-3.8467,-3.8467,-3.8467,-3.8693,-3.9094,-3.9094,-3.9295,-3.9697,-3.9697,-3.9772,-3.9973,-4.0752,-4.1326,-4.1907,-4.3413,-4.4367,-4.497,-4.5924,-4.6728,-4.738,-4.7782,-4.8636,-4.9665,0.0,0.0,0.0,0.0,0.0,0.0,0.0,0.0,0.0,0.0,0.0,0.0,-4.0726,-4.1782,-4.2141,-4.1482,-4.1782,-4.1662,-4.0846,-4.0546,-4.0217,-3.9858,0.0,0.0,0.0,0.0,0.0,0.0,0.0,0.0,0.0,0.0,0.0,-3.7404,-3.7404,-3.7075,-3.6537,-3.7285,-3.7973,-3.8482,-3.7434,-3.7345,-3.7734,-3.6985,-3.6207,-3.5579,-3.6001,-3.651,-3.6866,-3.6267,-3.6507,-3.7165,-3.7943,-3.7584,-3.6956,-3.7315,-3.7165,-3.6776,-3.6417,-3.6596,-3.6926,-3.7105,0.0,0.0,-3.6686,-3.6956,-3.7225,-3.7375,-3.802,-3.8767,-3.9411,-4.0079,-4.0562,-4.0693,-4.1625,-4.2707,-4.3743,-4.3294,-4.2666,-4.2073,-4.2367,-4.2786,-4.3217,-4.3411,-4.2893,-4.1456,-4.1518,-4.0475,-3.781,-3.7889,-3.8015,-3.8015,-3.8015,-3.8015,-3.8015,-3.8015,-3.8291,-3.8919,-3.8919,-3.917,-3.9697,-3.9697,-3.9823,-4.0074,-4.0701,-4.1379,-4.2108,-4.3313,-4.4141,-4.4769,-4.6125,-4.6979,-4.7531,-4.8058,-4.8987,-4.9992,0.0,0.0,-3.926,-3.8691,-3.9619,0.0,0.0,0.0,0.0,0.0,0.0,0.0,-4.1534,-4.2291,-4.247,-4.1773,-4.1713,-4.1683,-4.1594,-4.0995,0.0,0.0,0.0,0.0,0.0,0.0,0.0,0.0,0.0,0.0,0.0,0.0,0.0,0.0,-3.7375,-3.7015,-3.6477,-3.6417,-3.6746,-3.7255,-3.6716,-3.7255,-3.8362,-3.8242,-3.8123,-3.8063,-3.8063,-3.8841,-3.9409,-3.6567,-3.5998,-3.6507,-3.6656,-3.7015,-3.7434,-3.7494,-3.7524,-3.7524,-3.7524,-3.7584,-3.7913,-3.902,-3.8093,0.0,-3.7973,-3.6956,-3.6055,-3.685,-3.6435,-3.6209,-3.7232,-3.6936,-3.7032,-3.8392,-3.8282,-3.8848,-4.1276,-4.1026,-4.0425,-3.9923,-4.1213,-4.1993,-4.1789,-4.2543,-4.2348,-4.0847,-3.9535,-3.8293,-3.7182,-3.7684,-3.7985,-3.7909,-3.7985,-3.7985,-3.7909,-3.7985,-3.8289,-3.8768,-3.8768,-3.9094,-3.9697,-3.9697,-3.9998,-4.0526,-4.0576,-4.1505,-4.3037,-4.3639,-4.4217,-4.4869,-4.6502,-4.7456,-4.7983,-4.8636,-4.9565,-5.0519,-3.8332,-3.8841,-3.9559,-3.9948,0.0,0.0,0.0,0.0,0.0,0.0,0.0,-4.2781,-4.2901,-4.4018,-4.4466,-4.3808,-4.3748,-4.3509,-4.2961,-4.2342,0.0,0.0,0.0,0.0,0.0,0.0,0.0,0.0,0.0,0.0,0.0,0.0,0.0,0.0,-3.7135,-3.6596,-3.6447,-3.5908,-3.6058,-3.6656,-3.6537,-3.7255,-3.8272,-3.7255,-3.6537,-3.6058,-3.6058,-3.6237,-3.6447,-3.6327,-3.6387,-3.6656,-3.7704,-3.7734,-3.7524,-3.8033,-3.8182,-3.8182,-3.8182,-3.8601,-3.896,-3.8661,-3.911,0.0,-3.7285,-3.7375,-3.7228,-3.5088,-3.4929,-3.4903,-3.3989,-3.5264,-3.6115,-3.5072,-3.5982,-3.7624,-3.9947,-3.972,-3.9406,-3.9775,-3.9673,-4.0304,-4.2108,-4.1265,-4.0451,-4.0122,-3.8944,-3.7742,-3.6603,-3.75,-3.7828,-3.7293,-3.7802,-3.7828,-3.7293,-3.7828,-3.8114,-3.8191,-3.8191,-3.8718,-3.9697,-3.9697,-3.9998,-4.0551,-4.0924,-4.1856,-4.3062,-4.4041,-4.4794,-4.5447,-4.6652,-4.7456,-4.8033,-4.9063,-5.0142,-5.1172,-3.7554,-3.8242,-3.8901,-3.8901,0.0,0.0,0.0,0.0,0.0,0.0,0.0,-4.3648,-4.3319,-4.4227,-4.4556,-4.3858,-4.3798,-4.3648,-4.3319,-4.2731,0.0,0.0,0.0,0.0,0.0,0.0,0.0,0.0,0.0,0.0,0.0,0.0,0.0,0.0,-3.7375,-3.6956,-3.6896,-3.6267,-3.6537,-3.7345,-3.6387,-3.6567,-3.7345,-3.6357,-3.5789,-3.5519,-3.5519,-3.5166,-3.4978,-3.6305,-3.6746,-3.6805,-3.7105,-3.7979,-3.896,-3.929,-3.9409,-3.9469,-3.9798,-3.9691,-3.945,-3.9384,-3.9217,0.0,0.0,-3.703,-3.6371,-3.5177,-3.3966,-3.2937,-3.247,-3.3001,-3.3433,-3.3089,-3.4058,-3.5399,-3.7103,-3.7723,-3.8043,-3.8043,-3.8559,-3.9267,-4.0196,-3.9786,-3.9554,-3.9885,-3.9316,-3.8738,-3.8179,-3.8354,-3.8104,-3.7219,-3.7721,-3.7458,-3.6302,-3.7149,-3.7759,-3.8015,-3.8015,-3.8592,-3.9697,-3.9697,-4.0149,-4.0899,-4.1175,-4.2283,-4.384,-4.4392,-4.5121,-4.5999,-4.7104,-4.7857,-4.8435,-4.9289,-5.0318,-5.1322,-3.6896,-3.7674,-3.8302,-3.8033,0.0,0.0,0.0,0.0,0.0,0.0,-4.3768,-4.3888,-4.3349,-4.3688,-4.3838,-4.3499,-4.3021,-4.2961,-4.3439,-4.2671,-4.2141,0.0,0.0,-4.1384,0.0,0.0,0.0,0.0,0.0,0.0,0.0,0.0,-3.911,-3.8542,-3.7764,-3.7494,-3.7554,-3.6806,-3.7075,-3.7883,-3.6327,-3.6148,-3.6776,-3.5998,-3.5699,-3.5636,-3.5323,-3.4765,-3.4376,-3.5819,-3.6618,-3.688,-3.6476,-3.8121,-4.0277,-4.0516,-4.0487,-4.0539,-4.1097,-4.0597,-4.0036,-4.0377,-3.9441,-3.8466,0.0,0.0,0.0,-3.5504,-3.3356,-3.1593,-3.1836,-3.1366,-3.121,-3.2064,-3.2692,-3.3395,-3.4274,-3.5561,-3.6437,-3.6349,-3.7504,-3.8224,-3.8117,-3.8378,-3.8858,-3.9664,-3.9719,-3.9775,-3.9885,-3.9305,-3.8464,-3.7474,-3.7659,-3.71,-3.5674,-3.676,-3.7531,-3.8015,-3.8015,-3.8592,-3.9697,-3.9697,-4.03,-4.1275,-4.1275,-4.2479,-4.4468,-4.4593,-4.5296,-4.6401,-4.738,-4.8109,-4.8686,-4.9364,-5.0243,-5.1147,-3.7973,-3.8302,-3.8751,-3.9858,0.0,0.0,0.0,0.0,0.0,0.0,-4.3349,-4.3379,-4.329,-4.288,-4.303,-4.4107,-4.2073,-4.1713,-4.4047,-4.2491,-4.1235,-4.0636,0.0,-4.1482,-3.9679,0.0,0.0,0.0,0.0,0.0,0.0,0.0,-3.9379,-3.926,-3.7973,-3.7734,-3.8212,-3.6985,-3.6567,-3.6686,-3.6477,-3.7105,-3.8033,-3.6836,-3.6387,-3.6197,-3.4714,-3.445,-3.4724,-3.4008,-3.5122,-3.6884,-3.7402,-3.8487,-3.9768,-4.0935,-4.0846,-4.0412,-4.0633,-4.0953,-4.1089,-4.0689,-4.093,-4.0793,-3.9039,0.0,-3.7001,-3.4473,0.0,-3.2372,-3.1625,0.0,0.0,-3.219,-3.2692,-3.3162,-3.3244,-3.3788,-3.4744,-3.6293,-3.6167,-3.6569,-3.8048,-3.7319,-3.7402,-3.8873,-3.9057,-3.9348,-3.9858,-3.9348,-3.8655,-3.7922,-3.7547,-3.699,-3.6192,-3.7366,-3.8013,-3.8015,-3.8015,-3.8592,-3.9697,-3.9697,-4.03,-4.1275,-4.1275,-4.2308,-4.394,-4.4418,-4.5296,-4.6376,-4.6979,-4.7531,-4.8134,-4.9188,-4.9992,-5.067,-3.7165,-3.7584,-3.8003,-3.8571,0.0,0.0,0.0,0.0,0.0,0.0,-4.3419,-4.3898,-4.3898,-4.3988,-4.3988,-4.3808,-4.2761,-4.2402,-4.315,-4.244,-4.2162,-4.2641,-4.2821,-4.2701,-4.2282,0.0,0.0,0.0,-4.0696,0.0,0.0,0.0,-3.92,-3.8781,-3.7823,-3.7554,-3.7793,-3.7255,-3.7255,-3.7584,-3.7584,-3.7913,-3.8212,-3.6537,-3.5908,-3.5776,-3.4864,-3.4313,-3.3952,-3.3284,-3.4395,-3.6084,-3.6029,-3.7426,-3.9373,-4.0556,-4.0289,-3.975,-4.0871,-4.035,-3.9628,-4.0068,-3.9628,-3.8986,-3.8852,-3.7662,-3.6335,-3.5389,0.0,0.0,0.0,0.0,0.0,0.0,-3.3194,-3.3445,-3.3162,-3.2682,-3.3053,-3.4729,-3.4733,-3.4861,-3.5641,-3.5848,-3.6428,-3.7418,-3.9089,-4.0177,-4.0419,-4.0423,-3.9693,-3.8186,-3.8117,-3.7241,-3.5391,-3.681,-3.7707,-3.8015,-3.8015,-3.8592,-3.9697,-3.9697,-4.0124,-4.0824,-4.115,-4.2082,-4.3388,-4.4267,-4.5095,-4.5899,-4.6451,-4.738,-4.846,-4.8937,-4.9665,-5.0494,-3.6746,-3.7255,-3.7674,-3.7674,0.0,0.0,0.0,0.0,-4.253,-4.289,-4.3569,-4.4197,-4.4556,-4.4676,-4.4526,-4.3958,-4.324,-4.2761,-4.2641,-4.25,-4.259,-4.294,-4.3349,-4.3439,-4.324,-4.312,0.0,0.0,0.0,0.0,0.0,0.0,-3.914,-3.8631,-3.7973,-3.7674,-3.7674,-3.7494,-3.7584,-3.7853,-3.7853,-3.7764,-3.743,-3.5941,-3.5532,-3.5654,-3.4848,-3.4453,-3.427,-3.3916,-3.4901,-3.6228,-3.596,-3.7271,-3.9073,-3.9939,-3.9536,-3.9142,-4.0139,-3.942,-3.8474,-3.921,-3.8282,-3.7415,-3.8428,-3.719,-3.5817,-3.6033,-3.4849,0.0,0.0,0.0,-3.3947,-3.3395,0.0,-3.3696,-3.3187,-3.224,-3.2025,-3.3201,-3.3375,-3.3586,-3.4066,-3.4615,-3.542,-3.6614,-3.8367,-3.9653,-4.0281,-4.0141,-3.9413,-3.799,-3.7869,-3.6907,-3.4951,-3.6359,-3.7411,-3.8015,-3.8165,-3.8743,-3.9697,-3.9697,-4.0074,-4.0752,-4.1125,-4.1957,-4.3062,-4.4016,-4.4744,-4.5296,-4.5874,-4.7004,-4.8335,-4.8485,-4.9138,-5.0017,-3.7375,-3.7913,-3.8362,-3.8362,-3.9499,-4.0816,-4.2141,-4.2381,-4.286,-4.4077,-4.3708,-4.3798,-4.5125,-4.4137,-4.3858,-4.5125,-4.291,-4.1983,-4.317,-4.2701,-4.1572,-3.9612,-4.2581,-4.309,-4.0576,-4.1782,-4.241,0.0,0.0,0.0,0.0,0.0,0.0,0.0,-3.8661,-3.8362,-3.8332,-3.7674,-3.7075,-3.6537,-3.6537,-3.6178,-3.5541,-3.5175,-3.5615,-3.6216,-3.4299,-3.4953,-3.6642,-3.6381,-3.7053,-3.8117,-3.8697,-3.8876,-3.8904,-3.9031,-3.8988,-3.869,-3.7704,-3.8126,-3.8774,-3.8285,-3.7676,-3.7343,-3.7985,-3.7217,-3.6204,-3.5629,-3.5479,-3.5257,-3.4801,-3.4655,-3.4525,-3.3972,-3.3897,0.0,0.0,-3.2566,-3.219,-3.2256,-3.2256,-3.2877,-3.4526,-3.3793,-3.4296,-3.6961,-3.6302,-3.673,-3.8933,-3.7547,-3.6847,-3.7343,-3.6231,-3.555,-3.5483,-3.6631,-3.7461,-3.8015,-3.8567,-3.9145,-3.9697,-3.9697,-4.03,-4.125,-4.1275,-4.1957,-4.3011,-4.3589,-4.4141,-4.4719,-4.5296,-4.62,-4.7255,-4.7757,-4.8309,-4.8987,-3.7494,-3.8302,-3.8931,-3.8482,-3.914,-4.0038,-4.0935,-4.2162,-4.315,-4.3559,-4.4575,-4.5442,-4.5933,-4.5963,-4.5783,-4.5334,-4.4077,-4.315,-4.2731,-4.288,-4.2521,-4.1414,-4.3269,-4.3688,-4.2333,-4.2761,-4.2791,-4.241,0.0,0.0,0.0,0.0,0.0,0.0,0.0,-3.8153,-3.7734,-3.7494,-3.7045,-3.6477,-3.6477,-3.6866,-3.731,-3.6382,-3.6212,-3.6432,-3.5913,-3.6168,-3.6736,-3.6409,-3.6552,-3.6909,-3.7166,-3.7254,-3.7391,-3.8176,-3.7862,-3.7345,-3.7727,-3.754,-3.722,-3.7015,-3.6814,-3.6726,-3.6922,-3.6966,-3.6759,-3.6207,-3.6383,-3.6458,-3.5906,-3.5805,-3.5504,-3.46,-3.4449,-3.4248,0.0,-3.3445,-3.3194,-3.2817,-3.2441,-3.2609,-3.3547,-3.2971,-3.2904,-3.3825,-3.4605,-3.5577,-3.6688,-3.7199,-3.745,-3.7325,-3.6817,-3.6391,-3.6081,-3.681,-3.7663,-3.8567,-3.8768,-3.917,-3.9697,-3.9697,-4.0099,-4.0802,-4.1125,-4.1756,-4.259,-4.3815,-4.4468,-4.4719,-4.5673,-4.625,-4.6702,-4.7581,-4.8259,-4.8887,-3.8242,-3.8841,-3.92,-3.8512,-3.914,-4.0068,-4.0965,-4.2372,-4.3559,-4.4246,-4.5472,-4.6459,-4.698,-4.7189,-4.695,-4.6082,-4.5394,-4.4377,-4.2821,-4.3539,-4.3419,-4.2111,-4.3269,-4.3539,-4.2641,-4.288,-4.2791,-4.241,-4.241,-4.2171,0.0,0.0,0.0,0.0,0.0,-3.8601,-3.7764,-3.7764,-3.7375,-3.6806,-3.6806,-3.7315,-3.7973,-3.7375,-3.7464,-3.7779,-3.6852,-3.7026,-3.7732,-3.7672,-3.7569,-3.7419,-3.7252,-3.7119,-3.7031,-3.7123,-3.6836,-3.6496,-3.7031,-3.679,-3.6405,-3.6405,-3.6405,-3.6405,-3.6405,-3.6784,-3.7036,-3.6531,-3.6857,-3.701,-3.6505,-3.6405,-3.6103,-3.5152,-3.4981,-3.4781,0.0,-3.4198,-3.4073,-3.3696,-3.2993,-3.2742,-3.3319,-3.2842,-3.2516,-3.2516,-3.3537,-3.4517,-3.5254,-3.6695,-3.7343,-3.6968,-3.731,-3.7234,-3.6707,-3.7211,-3.7939,-3.8919,-3.9069,-3.9446,-3.9998,-3.9998,-4.04,-4.1128,-4.148,-4.2057,-4.2866,-4.389,-4.4568,-4.4995,-4.5723,-4.6125,-4.6426,-4.7506,-4.841,-4.9113,-3.9529,-3.9439,-3.926,-3.8601,-3.9589,-4.0876,-4.2261,-4.3,-4.4097,-4.604,-4.6309,-4.686,-4.8087,-4.7638,-4.7249,-4.7249,-4.6651,-4.5412,-4.3469,-4.4586,-4.4137,-4.1572,-4.2671,-4.2761,-4.1414,-4.2081,-4.244,-4.241,-4.244,0.0,0.0,0.0,0.0,0.0,-4.0397,-3.9679,-3.8452,-3.8452,-3.8033,-3.7404,-3.7434,-3.7494,-3.7614,-3.8153,-3.923,-4.0077,-3.7229,-3.7563,-3.9529,-4.0157,-4.0038,-3.9522,-3.902,-3.8536,-3.773,-3.6029,-3.5956,-3.6279,-3.5683,-3.5956,-3.6405,-3.6405,-3.6405,-3.6405,-3.6405,-3.6784,-3.7036,-3.6531,-3.6857,-3.701,-3.6505,-3.6405,-3.6182,-3.5583,-3.5508,-3.5307,-3.4801,-3.4776,-3.4801,-3.4731,-3.3847,-3.3395,-3.3847,-3.337,-3.3086,-3.3086,-3.3086,-3.352,-3.4625,-3.5781,-3.6415,-3.6452,-3.75,-3.7831,-3.731,-3.7789,-3.8341,-3.8969,-3.9471,-3.9998,-4.0526,-4.0551,-4.1153,-4.2213,-4.2238,-4.2811,-4.3815,-4.3865,-4.4518,-4.5497,-4.5522,-4.5874,-4.6502,-4.7506,-4.8611,-4.959,-3.9349,-3.9798,-4.0098,-3.9918,-4.0576,-4.1564,-4.288,-4.4047,-4.5155,-4.6202,-4.6741,-4.7189,-4.7519,-4.698,-4.6591,-4.6591,-4.5963,-4.5125,-4.4137,-4.4825,-4.4347,-4.2231,-4.3359,-4.321,-4.1452,-4.2491,-4.2851,-4.241,-4.2851,0.0,-4.306,0.0,0.0,0.0,0.0,-3.9948,-3.914,-3.914,-3.8482,-3.7434,-3.7943,-3.8751,-3.9499,-3.8153,-3.911,-4.0898,-3.9156,-3.8894,-3.9439,-3.9619,-3.9618,-3.9436,-3.8477,-3.8098,-3.7854,-3.6531,-3.6304,-3.638,-3.6182,-3.6304,-3.6405,-3.6405,-3.6405,-3.6405,-3.6405,-3.6784,-3.7036,-3.6531,-3.6857,-3.701,-3.6505,-3.6405,-3.6182,-3.5583,-3.5508,-3.5307,-3.4801,-3.5429,-3.578,-3.5332,-3.5031,-3.4605,-3.3972,-3.3018,-3.2441,-3.2441,-3.2441,-3.2918,-3.4048,-3.4787,-3.5699,-3.6983,-3.7295,-3.7752,-3.8466,-3.8567,-3.8919,-3.9496,-4.0049,-4.0375,-4.0526,-4.0899,-4.1505,-4.2238,-4.264,-4.3162,-4.3865,-4.4719,-4.5221,-4.5522,-4.5949,-4.6637,-4.7489,-4.7767,-4.8611,-4.959,-3.9409,-3.9948,-4.0666,-4.1534,-4.1983,-4.2581,-4.3559,-4.4646,-4.5544,-4.619,-4.6651,-4.677,-4.6471,-4.6352,-4.6202,-4.5903,-4.5514,-4.5005,-4.4347,-4.4646,-4.4227,-4.2851,-4.321,-4.2821,-4.1414,-4.2102,-4.2312,-4.1961,-4.2581,0.0,-4.329,0.0,0.0,0.0,0.0,-4.0876,-4.0277,-4.0277,-3.9828,-3.917,-3.9559,-4.0157,0.0,-3.926,-3.9649,-4.0816,-3.9798,-3.9373,-3.9373,-3.9373,-3.9839,-4.0099,-3.8434,-3.8335,-3.8559,-3.6896,-3.6405,-3.6405,-3.6405,-3.6405,-3.6405,-3.6405,-3.6405,-3.6405,-3.6405,-3.6656,-3.6782,-3.648,-3.6656,-3.6782,-3.6455,-3.6405,-3.638,-3.6282,-3.6411,-3.6461,-3.6207,-3.6684,-3.696,-3.6611,-3.6207,-3.5655,-3.5027,-3.3746,-3.3043,-3.3294,-3.3093,-3.3445,0.0,-3.5372,-3.6233,-3.7184,-3.7919,-3.8528,-3.8919,-3.912,-3.9496,-4.0049,-4.0375,-4.0777,-4.1229,-4.1555,-4.2007,-4.259,-4.3112,-4.3639,-4.4242,-4.5121,-4.5623,-4.5874,-4.6175,-4.697,-4.7882,-4.7882,-4.8597,-4.959,-3.9619,-4.0217,-4.1324,-4.2991,-4.3499,-4.3888,-4.4496,-4.4975,-4.5544,-4.619,-4.619,-4.5963,-4.5364,-4.5753,-4.5813,-4.5214,-4.5155,-4.4915,-4.4347,-4.4317,-4.4047,-4.3439,-4.2851,-4.2171,-4.1422,-4.1512,-4.1512,-4.1422,-4.2081,0.0,0.0,0.0,0.0,0.0,0.0,0.0,-4.1542,-4.1594,-4.1534,-4.1384,-4.1512,-4.1482,-4.1362,-4.0666,-4.0397,-4.0337,-3.9738,-3.9463,-3.9373,-3.9373,-4.0277,-4.1012,-3.8639,-3.8806,-3.9448,-3.7083,-3.6405,-3.6405,-3.6405,-3.6405,-3.6405,-3.6405,-3.6405,-3.6405,-3.6405,-3.6405,-3.6405,-3.6405,-3.6405,-3.6405,-3.6405,-3.6455,-3.6707,-3.7211,-3.7688,-3.8015,-3.8015,-3.8015,-3.8015,-3.8015,-3.7086,0.0,-3.6505,-3.4977,-3.4198,-3.463,-3.4274,-3.4449,-3.5433,0.0,-3.7117,-3.731,-3.8781,-3.9427,-3.9246,-3.9521,-4.0049,-4.0727,-4.0651,-4.1153,-4.2213,-4.2288,-4.259,-4.3011,-4.3639,-4.4192,-4.4669,-4.5321,-4.5874,-4.6301,-4.6301,-4.6939,-4.7888,-4.7888,-4.8644,-4.959,-4.0038,-4.1624,-4.2901,-4.323,-4.4665,-4.5801,-4.592,-4.5574,-4.5544,-4.619,-4.5843,-4.5424,-4.5304,-4.4915,-4.4616,-4.4496,-4.4496,-4.4436,-4.4317,-4.4317,-4.4257,-4.4137,-4.3509,-4.2611,-4.1452,-4.1961,-4.1961,-4.1422,-4.2081,-4.2701,0.0,0.0,0.0,0.0,0.0,0.0,-4.2261,-4.2761,-4.2372,-4.1482,-4.2021,-4.1901,-4.1362,-4.0666,-4.0397,-4.0397,-4.0277,-3.9888,-3.9373,-3.9373,-4.0277,-4.1012,-3.8639,-3.8806,-3.9448,-3.7083,-3.6405,-3.6405,-3.6405,-3.6405,-3.6405,-3.6405,-3.6405,-3.6405,-3.6405,-3.6405,-3.6405,-3.6405,-3.6405,-3.6405,-3.6405,-3.6782,-3.7211,-3.7764,-3.7939,-3.8015,-3.8015,-3.8015,-3.8015,-3.8015,-3.7437,-3.7036,-3.7036,-3.5554,-3.4625,-3.468,-3.4625,-3.4806,-3.5458,0.0,-3.642,0.0,-3.8136,-3.9121,0.0,0.0,-4.0425,-4.1911,-4.1404,-4.153,-4.2213,-4.269,-4.2886,-4.3037,-4.4041,-4.4543,-4.4694,-4.5748,-4.6225,-4.6301,-4.6301,-4.6939,-4.7888,-4.7888,-4.8644,-4.959,-4.1235,-4.2462,-4.3499,-4.4227,-4.5454,-4.6441,-4.677,-4.6262,-4.5813,-4.5783,-4.5214,-4.4646,-4.4317,-4.4287,-4.4167,-4.3798,-4.3768,-4.3768,-4.3768,-4.3768,-4.3768,-4.3768,-4.3469,-4.288,-4.1961,-4.2231,-4.2231,-4.1931,-4.2231,-4.2701,0.0,0.0,0.0,0.0,0.0,-4.288,0.0,0.0,-4.2931,-4.2432,-4.2731,-4.2671,-4.2312,-4.1654,-4.1452,-4.1422,-4.1025,-4.0291,-3.958,-4.0241,-4.044,-4.0236,-3.8838,-3.8667,-3.8604,-3.6896,-3.6405,-3.6405,-3.6405,-3.6405,-3.6405,-3.6405,-3.6405,-3.6405,-3.6405,-3.6405,-3.6405,-3.6405,-3.6405,-3.6505,-3.6782,-3.7236,-3.7789,-3.8366,-3.8693,-3.8894,-3.8894,-3.8894,-3.8768,-3.8492,-3.7965,-3.7487,-3.7211,-3.6207,-3.5579,-3.5579,-3.5303,-3.5332,-3.5931,0.0,-3.6584,0.0,0.0,0.0,-4.0902,0.0,-4.1078,-4.2213,-4.1882,-4.2057,-4.2665,-4.3162,-4.3237,-4.3062,-4.4468,-4.4895,-4.4719,-4.5849,-4.6301,-4.6326,-4.6632,-4.7221,-4.793,-4.823,-4.8888,-4.959,-4.247,-4.321,-4.4097,-4.5304,-4.6082,-4.6711,-4.7219,-4.6741,-4.6082,-4.5394,-4.4736,-4.4037,-4.3349,-4.3768,-4.3858,-4.3349,-4.329,-4.329,-4.329,-4.329,-4.329,-4.329,-4.329,-4.303,-4.241,-4.241,-4.241,-4.241,-4.241,-4.2701,0.0,0.0,0.0,0.0,0.0,0.0,0.0,0.0,-4.329,-4.329,-4.329,-4.329,-4.323,-4.2346,-4.203,-4.1902,-4.1135,-4.0147,-3.9424,-4.0656,-4.035,-3.9329,-3.8723,-3.8343,-3.788,-3.6709,-3.6405,-3.6405,-3.6405,-3.6405,-3.6405,-3.6405,-3.6505,-3.6581,-3.6581,-3.6681,-3.6732,-3.6606,-3.6581,-3.6782,-3.7412,-3.7889,-3.8366,-3.8944,-3.9421,-3.9697,-3.9697,-3.9697,-3.9446,-3.8768,-3.8291,-3.7688,-3.691,-3.6581,-3.6355,-3.6207,-3.5906,-3.5906,-3.638,0.0,0.0,0.0,0.0,-3.9521,-4.0852,0.0,-4.1731,-4.2564,-4.2313,-4.2489,-4.2986,-4.3539,-4.3564,-4.3237,-4.4819,-4.5296,-4.5045,-4.5949,-4.6411,-4.6522,-4.6939,-4.7469,-4.8144,-4.8584,-4.9157,-4.959,-4.312,-4.4257,-4.5334,-4.6082,-4.677,-4.7249,-4.7309,-4.6741,-4.6082,-4.5394,-4.4736,-4.4037,-4.3349,-4.3349,-4.3349,-4.329,-4.329,-4.329,-4.329,-4.329,-4.329,-4.329,-4.329,-4.303,-4.241,-4.241,-4.241,-4.241,-4.241,-4.2701,-4.329,0.0,0.0,0.0,0.0,0.0,0.0,-4.329,-4.329,-4.329,-4.329,-4.329,-4.3121,-4.1412,-4.0787,-4.0637,-3.9522,-3.8672,-3.827,-3.9589,-3.9547,-3.8778,-3.7607,-3.7659,-3.788,-3.6709,-3.6405,-3.6405,-3.6405,-3.6405,-3.6405,-3.6405,-3.6782,-3.7111,-3.7111,-3.7487,-3.7713,-3.7211,-3.7111,-3.7437,-3.8517,-3.8793,-3.8969,-3.9521,-3.9672,-3.9697,-3.9697,-3.9697,-3.9295,-3.8216,-3.804,-3.7387,-3.5809,-3.6107,-3.6157,-3.5608,-3.6031,-3.6355,-3.6405,0.0,0.0,-3.7965,-3.8567,-3.9925,-4.2037,-4.1555,-4.2108,-4.3639,-4.269,-4.2489,-4.2986,-4.3539,-4.3765,-4.379,-4.497,-4.5748,-4.615,-4.6276,-4.6607,-4.7025,-4.705,-4.7777,-4.8704,-4.8786,-4.9157,-4.959,-4.4377,-4.5274,-4.5992,-4.6219,-4.686,-4.7309,-4.7309,-4.707,-4.6681,-4.5992,-4.5334,-4.4796,-4.4526,-4.4496,-4.4496,-4.4496,-4.4137,-4.3888,-4.3888,-4.3499,-4.329,-4.329,-4.329,-4.317,-4.294,-4.3329,-4.3329,-4.294,-4.3748,-4.4047,-4.3888,0.0,0.0,0.0,0.0,-4.329,-4.329,-4.329,-4.329,-4.329,-4.329,-4.329,-4.314,-4.1738,-4.1213,-4.1047,-3.9912,-3.8885,-3.8094,-3.8622,-3.838,-3.7819,-3.7748,-3.7404,-3.6964,-3.6546,-3.6405,-3.6405,-3.6405,-3.6405,-3.648,-3.6832,-3.701,-3.7262,-3.7613,-3.7839,-3.7939,-3.7713,-3.7688,-3.7914,-3.8718,-3.8919,-3.9095,-3.9597,-3.9697,-3.9697,-3.9697,-3.9396,-3.8894,-3.809,-3.7713,-3.7136,-3.6132,-3.6279,-3.6329,-3.6056,-3.6279,-3.6405,-3.6405,0.0,0.0,-3.799,0.0,-4.0099,-4.1656,-4.1781,-4.2333,-4.3288,-4.2861,-4.2936,-4.3489,-4.4041,-4.4669,-4.5321,-4.5431,-4.5808,-4.6326,-4.6632,-4.6914,-4.7161,-4.7863,-4.8396,-4.8838,-4.9149,-4.9386,-4.959,-4.5454,-4.5992,-4.6339,-4.6591,-4.701,-4.7309,-4.7309,-4.7309,-4.713,-4.6681,-4.6172,-4.5723,-4.5334,-4.5304,-4.5304,-4.5304,-4.4855,-4.4616,-4.4616,-4.4167,-4.3798,-4.3589,-4.3589,-4.3589,-4.3589,-4.4077,-4.4167,-4.3858,-4.4855,-4.5065,-4.4616,-4.4616,0.0,0.0,-4.3589,-4.3589,-4.3589,-4.3589,-4.3589,-4.3589,-4.3589,-4.3589,-4.3439,-4.1757,-4.1198,-4.1142,-3.9458,-3.8315,-3.7586,-3.7586,-3.728,-3.6975,-3.7456,-3.7057,-3.6405,-3.6405,-3.6405,-3.6405,-3.6405,-3.6531,-3.6757,-3.7086,-3.7437,-3.7789,-3.8165,-3.8391,-3.8492,-3.8492,-3.8366,-3.8442,-3.9019,-3.917,-3.9245,-3.9622,-3.9697,-3.9647,-3.9471,-3.912,-3.8542,-3.7638,-3.7462,-3.701,-3.5981,-3.638,-3.6531,-3.6132,-3.648,-3.6656,-3.6656,0.0,0.0,0.0,0.0,0.0,-4.1275,-4.2032,-4.264,-4.2986,-4.3137,-4.3413,-4.3815,-4.4543,-4.5397,-4.6276,-4.5883,-4.5933,-4.6326,-4.6854,-4.7161,-4.7434,-4.8406,-4.8888,-4.9067,-4.9475,-4.959,-4.959,-4.6172,-4.6279,-4.6488,-4.7189,-4.7309,-4.7309,-4.7309,-4.7309,-4.7309,-4.7309,-4.7279,-4.677,-4.5424,-4.5304,-4.5304,-4.5304,-4.5274,-4.5274,-4.5274,-4.5274,-4.4975,-4.4317,-4.4317,-4.4317,-4.4317,-4.4317,-4.4616,-4.5274,-4.5274,-4.5304,-4.5274,0.0,-4.4915,-4.4317,-4.4317,-4.4317,-4.4317,-4.4317,-4.4317,-4.4317,-4.4317,-4.4317,-4.3983,-4.1042,-4.0288,-4.0436,-3.7495,-3.6452,-3.6405,-3.6405,-3.6405,-3.6405,-3.6405,-3.6405,-3.6405,-3.6405,-3.6405,-3.6405,-3.6405,-3.6807,-3.7186,-3.7186,-3.8015,-3.8894,-3.8919,-3.927,-3.9672,-3.9672,-3.9245,-3.9019,-3.9572,-3.9697,-3.9697,-3.9697,-3.9697,-3.9496,-3.8969,-3.8868,-3.8266,-3.6634,-3.7362,-3.7136,-3.4951,-3.6207,-3.6734,-3.5583,-3.6558,-3.7186,-3.7186,-3.7186,0.0,-3.8818,-3.9923,0.0,-4.1275,-4.2434,-4.2961,-4.2986,-4.3539,-4.379,-4.384,-4.497,-4.5773,-4.6301,-4.6301,-4.6301,-4.6326,-4.6854,-4.7443,-4.7982,-4.8573,-4.9132,-4.959,-4.959,-4.959,-4.959,-4.686,-4.698,-4.707,-4.7279,-4.7309,-4.7309,-4.7309,-4.7309,-4.7309,-4.7309,-4.7309,-4.713,-4.6711,-4.6651,-4.6651,-4.6651,-4.6262,-4.5992,-4.5992,-4.5544,-4.5185,-4.4975,-4.4975,-4.4975,-4.4975,-4.5454,-4.5544,-4.5304,-4.6232,-4.6441,-4.5992,-4.5992,-4.5633,-4.4975,-4.4496,-4.4556,-4.4945,-4.4496,-4.4556,-4.4945,-4.4496,-4.4033,-4.3456,-4.1287,-4.0314,-3.9834,-3.7709,-3.6983,-3.6908,-3.6531,-3.6405,-3.6405,-3.6405,-3.6405,-3.6405,-3.6405,-3.6405,-3.648,-3.6883,-3.7061,-3.7362,-3.814,-3.8642,-3.902,-3.9346,-3.9572,-3.9597,-3.922,-3.9045,-3.8818,-3.8592,-3.8542,-3.8542,-3.8542,-3.8542,-3.8492,-3.8316,-3.7965,-3.7538,-3.701,-3.7236,-3.7161,-3.6458,-3.6885,-3.7186,-3.7211,-3.7186,-3.7186,-3.7186,0.0,0.0,0.0,-4.0501,0.0,-4.1882,-4.261,-4.2986,-4.2986,-4.3162,-4.3639,-4.4392,-4.5522,-4.615,-4.6301,-4.6301,-4.6301,-4.6326,-4.6854,-4.7403,-4.7956,-4.8565,-4.9132,-4.959,-4.959,-4.959,-4.959,-4.7219,-4.7309,-4.7309,-4.7309,-4.7309,-4.7309,-4.7309,-4.7309,-4.7309,-4.7309,-4.7309,-4.7309,-4.7309,-4.7309,-4.7309,-4.7309,-4.692,-4.6681,-4.6681,-4.6292,-4.5933,-4.5693,-4.5693,-4.5693,-4.5693,-4.6112,-4.6232,-4.6052,-4.689,-4.71,-4.6681,-4.6681,-4.6322,-4.5663,-4.5244,-4.5304,-4.5663,-4.5244,-4.5155,-4.5274,-4.5125,-4.4667,-4.3891,-4.1819,-4.0986,-4.0561,-3.8089,-3.7186,-3.7182,-3.7075,-3.6756,-3.6524,-3.7126,-3.7061,-3.6732,-3.6732,-3.6857,-3.7061,-3.7387,-3.7663,-3.799,-3.8743,-3.9019,-3.927,-3.9622,-3.9697,-3.9597,-3.9245,-3.917,-3.9069,-3.8718,-3.8642,-3.8567,-3.8366,-3.8341,-3.8115,-3.7487,-3.7262,-3.7111,-3.6933,-3.7236,-3.7487,-3.7487,-3.7688,-3.7864,-3.799,-3.7889,-3.7814,0.0,0.0,-3.922,-3.9973,-4.0877,-4.1605,-4.2213,-4.2766,-4.2986,-4.2986,-4.3388,-4.4066,-4.497,-4.5899,-4.6301,-4.6301,-4.6301,-4.6301,-4.6326,-4.6854,-4.7439,-4.792,-4.854,-4.9132,-4.959,-4.959,-4.959,-4.959,-4.7309,-4.7309,-4.7309,-4.7309,-4.7309,-4.7309,-4.7309,-4.7309,-4.7309,-4.7309,-4.7309,-4.7309,-4.7309,-4.7309,-4.7309,-4.7309,-4.7309,-4.7309,-4.7309,-4.7309,-4.704,-4.6369,-4.6339,-4.6339,-4.6339,-4.6339,-4.6681,-4.7309,-4.7309,-4.7309,-4.7309,-4.7309,-4.698,-4.6381,-4.6309,-4.6309,-4.6339,-4.6249,-4.5903,-4.5424,-4.5963,-4.5801,-4.5,-4.2697,-4.2141,-4.2183,-3.8748,-3.7381,-3.7329,-3.7932,-3.7335,-3.6669,-3.8309,-3.8071,-3.7236,-3.7236,-3.7613,-3.8015,-3.8065,-3.8467,-3.8919,-3.8969,-3.932,-3.9697,-3.9697,-3.9697,-3.9697,-3.9647,-3.9647,-3.9622,-3.9597,-3.9572,-3.9396,-3.8894,-3.8793,-3.824,-3.6631,-3.6857,-3.696,-3.6531,-3.7362,-3.8015,-3.8065,-3.8542,-3.8668,-3.8165,-3.8592,0.0,0.0,0.0,-3.9446,-4.0475,-4.1,-4.1605,-4.2213,-4.2766,-4.2986,-4.3062,-4.4116,-4.492,-4.5497,-4.6075,-4.6326,-4.6301,-4.6326,-4.6326,-4.6326,-4.6828,-4.7358,-4.7895,-4.8509,-4.9042,-4.9565,-4.959,-4.959,-4.959,-4.7219,-4.7309,-4.7309,-4.7309,-4.7309,-4.7309,-4.7309,-4.7309,-4.7309,-4.7309,-4.7309,-4.7309,-4.7309,-4.7309,-4.7309,-4.7309,-4.7309,-4.7309,-4.7309,-4.7309,-4.7249,-4.707,-4.707,-4.707,-4.707,-4.707,-4.716,-4.7309,-4.7309,-4.7309,-4.7309,-4.7309,-4.7219,-4.704,-4.6561,-4.6548,-4.701,-4.5963,-4.5753,-4.5992,-4.5125,-4.4702,-4.4487,-4.3398,-4.2528,-4.1758,-4.0958,-3.9428,-3.7834,-3.8017,-3.7335,-3.6553,-3.7369,-3.7705,-3.7814,-3.7814,-3.7914,-3.809,-3.8542,-3.8768,-3.902,-3.9396,-3.9597,-3.9697,-3.9697,-3.9697,-3.9572,-3.9145,-3.9069,-3.8919,-3.8492,-3.8391,-3.8216,-3.7663,-3.7588,-3.7287,-3.6531,-3.6531,-3.6707,-3.7008,-3.7588,-3.8191,-3.8617,-3.8844,-3.8994,-3.927,-3.9019,-3.9095,-3.9471,-3.9898,-4.0249,-4.0501,-4.1,-4.1605,-4.2213,-4.2766,-4.3187,-4.3614,-4.4292,-4.492,-4.5522,-4.6465,-4.6718,-4.6326,-4.6718,-4.6718,-4.6326,-4.6436,-4.6828,-4.7364,-4.788,-4.8496,-4.9042,-4.9475,-4.959,-4.959,-4.7249,-4.7309,-4.7309,-4.7309,-4.7309,-4.7309,-4.7309,-4.7309,-4.7309,-4.7309,-4.7309,-4.7309,-4.7309,-4.7309,-4.7309,-4.7309,-4.7309,-4.7309,-4.7309,-4.7309,-4.7309,-4.7309,-4.7309,-4.7309,-4.7309,-4.7309,-4.7309,-4.7309,-4.7309,-4.7309,-4.7309,-4.7309,-4.7309,-4.7279,-4.692,-4.698,-4.7249,-4.6531,-4.6262,-4.6249,-4.5843,-4.5522,-4.5157,-4.3906,-4.2897,-4.1935,-4.0499,-3.9003,-3.7682,-3.8011,-3.749,-3.6978,-3.8038,-3.843,-3.8442,-3.8693,-3.8768,-3.8843,-3.917,-3.9245,-3.932,-3.9622,-3.9697,-3.9697,-3.9697,-3.9697,-3.9622,-3.932,-3.9245,-3.9145,-3.8843,-3.8768,-3.8517,-3.7688,-3.7563,-3.7186,-3.6132,-3.6433,-3.6883,-3.7161,-3.7914,-3.8617,-3.9195,-3.9471,-3.9647,-3.9697,-3.9647,0.0,-3.9697,-4.0224,-4.0626,-4.0824,-4.143,-4.1982,-4.259,-4.3087,-4.3514,-4.3815,-4.4618,-4.5171,-4.5565,-4.6636,-4.6939,-4.6718,-4.7247,-4.7272,-4.7025,-4.7025,-4.7358,-4.7895,-4.8194,-4.8635,-4.9182,-4.9475,-4.959,-4.959,-4.7279,-4.7309,-4.7309,-4.7309,-4.7309,-4.7309,-4.7309,-4.7309,-4.7309,-4.7309,-4.7309,-4.7309,-4.7309,-4.7309,-4.7309,-4.7309,-4.7309,-4.7309,-4.7309,-4.7309,-4.7309,-4.7309,-4.7309,-4.7309,-4.7309,-4.7309,-4.7309,-4.7309,-4.7309,-4.7309,-4.7309,-4.7309,-4.7309,-4.7309,-4.7309,-4.7309,-4.7309,-4.7189,-4.683,-4.6309,-4.683,-4.6582,-4.5838,-4.4242,-4.3155,-4.2117,-3.9566,-3.8106,-3.743,-3.8095,-3.7903,-3.7581,-3.918,-3.9334,-3.902,-3.9521,-3.9697,-3.9697,-3.9697,-3.9697,-3.9697,-3.9697,-3.9697,-3.9697,-3.9697,-3.9697,-3.9697,-3.9697,-3.9697,-3.9697,-3.9697,-3.9697,-3.9346,-3.8316,-3.8065,-3.7513,-3.606,-3.6659,-3.7236,-3.7412,-3.8291,-3.912,-3.9747,-4.0249,-4.035,-3.9973,-4.0375,-4.0425,-3.9973,-4.0475,-4.0978,-4.1401,-4.1907,-4.2464,-4.2961,-4.3514,-4.384,-4.394,-4.5079,-4.5641,-4.5809,-4.6857,-4.7332,-4.7272,-4.78,-4.7978,-4.7866,-4.7866,-4.8176,-4.8692,-4.8748,-4.9067,-4.9475,-4.959,-4.959,-4.9615,-4.7189,-4.7309,-4.7309,-4.7309,-4.7309,-4.7309,-4.7309,-4.7309,-4.7309,-4.7309,-4.7309,-4.7309,-4.7309,-4.7309,-4.7309,-4.7309,-4.7309,-4.7309,-4.7309,-4.7309,-4.7309,-4.7309,-4.7309,-4.7309,-4.7309,-4.7309,-4.7309,-4.7309,-4.7309,-4.7309,-4.7309,-4.7309,-4.7309,-4.7309,-4.7309,-4.7309,-4.7279,-4.6711,-4.6369,-4.6249,-4.5813,-4.525,-4.4644,-4.4375,-4.2953,-4.1154,-4.1639,-4.0123,-3.8061,-3.9164,-3.8785,-3.8014,-3.8792,-3.8995,-3.902,-3.9521,-3.9697,-3.9697,-3.9697,-3.9697,-3.9697,-3.9697,-3.9697,-3.9697,-3.9697,-3.9697,-3.9697,-3.9697,-3.9697,-3.9697,-3.9697,-3.9697,-3.9496,-3.8843,-3.8316,-3.7914,-3.7663,-3.7362,-3.7538,-3.8542,-3.8818,-3.927,-4.03,-4.0475,-4.0676,-4.1,-4.1125,-4.1125,-4.105,-4.1605,-4.1986,-4.2087,-4.2162,-4.2464,-4.2961,-4.3514,-4.4041,-4.4493,-4.5623,-4.64,-4.6873,-4.8034,-4.8283,-4.7793,-4.8397,-4.8341,-4.7887,-4.7887,-4.7976,-4.805,-4.86,-4.8839,-4.8953,-4.945,-4.959,-4.9665,-4.7249,-4.7309,-4.7309,-4.7309,-4.7309,-4.7309,-4.7309,-4.7309,-4.7309,-4.7309,-4.7309,-4.7309,-4.7309,-4.7309,-4.7309,-4.7309,-4.7309,-4.7309,-4.7309,-4.7309,-4.7309,-4.7309,-4.7309,-4.7309,-4.7309,-4.7309,-4.7309,-4.7309,-4.7309,-4.7309,-4.7309,-4.7309,-4.7309,-4.7309,-4.7309,-4.7309,-4.7279,-4.698,-4.6651,-4.6279,-4.6352,-4.5563,-4.4362,-4.4043,-4.2614,-4.0795,-4.0601,-3.9481,-3.8114,-3.8651,-3.8685,-3.8517,-3.8844,-3.9069,-3.9371,-3.9622,-3.9697,-3.9697,-3.9697,-3.9697,-3.9697,-3.9697,-3.9697,-3.9697,-3.9697,-3.9697,-3.9697,-3.9697,-3.9697,-3.9697,-3.9697,-3.9697,-3.9521,-3.902,-3.8642,-3.8366,-3.804,-3.8065,-3.8291,-3.8869,-3.9145,-3.9622,-4.0425,-4.0724,-4.1025,-4.1275,-4.1605,-4.1656,-4.13,-4.1856,-4.2338,-4.264,-4.2665,-4.2861,-4.3413,-4.3966,-4.4493,-4.5079,-4.6239,-4.6831,-4.7136,-4.8283,-4.8641,-4.8447,-4.896,-4.9042,-4.8814,-4.8814,-4.8814,-4.8864,-4.9466,-4.9481,-4.9346,-5.0177,-5.0318,-5.0117,-4.7309,-4.7309,-4.7309,-4.7309,-4.7309,-4.7309,-4.7309,-4.7309,-4.7309,-4.7309,-4.7309,-4.7309,-4.7309,-4.7309,-4.7309,-4.7309,-4.7309,-4.7309,-4.7309,-4.7309,-4.7309,-4.7309,-4.7309,-4.7309,-4.7309,-4.7309,-4.7309,-4.7309,-4.7309,-4.7309,-4.7309,-4.7309,-4.7309,-4.7309,-4.7309,-4.7309,-4.7309,-4.7309,-4.701,-4.6548,-4.6767,-4.5785,-4.4112,-4.3385,-4.1952,-4.0236,-3.9398,-3.8693,-3.8241,-3.8341,-3.8693,-3.912,-3.912,-3.9346,-3.9697,-3.9697,-3.9697,-3.9697,-3.9697,-3.9697,-3.9697,-3.9697,-3.9697,-3.9697,-3.9697,-3.9697,-3.9697,-3.9697,-3.9697,-3.9697,-3.9697,-3.9697,-3.9546,-3.912,0.0,-3.8768,-3.8442,-3.8793,-3.912,-3.9245,-3.9747,-4.03,-4.0852,-4.1279,-4.158,-4.1706,-4.2108,-4.2208,-4.1877,-4.2308,-4.2841,-4.3338,-4.3363,-4.3564,-4.3991,-4.4543,-4.5079,-4.5716,-4.678,-4.7358,-4.7554,-4.8538,-4.8974,-4.9042,-4.9386,-4.9661,-4.9816,-4.9816,-4.9821,-4.9826,-5.0413,-5.0262,-4.9916,-5.0921,-5.0996,-5.0695,-4.7309,-4.7309,-4.7309,-4.7309,-4.7309,-4.7309,-4.7309,-4.7309,-4.7309,-4.7309,-4.7309,-4.7309,-4.7309,-4.7309,-4.7309,-4.7309,-4.7309,-4.7309,-4.7309,-4.7309,-4.7309,-4.7309,-4.7309,-4.7309,-4.7309,-4.7309,-4.7309,-4.7309,-4.7309,-4.7309,-4.7309,-4.7309,-4.7309,-4.7309,-4.7309,-4.7309,-4.7309,-4.7309,-4.7279,-4.7133,-4.6003,-4.4766,-4.3448,-4.2204,-4.0631,-3.907,-3.9497,-3.927,-3.8894,-3.9396,-3.9597,-3.9647,-3.9647,-3.9672,-3.9697,-3.9697,-3.9697,-3.9697,-3.9697,-3.9697,-3.9697,-3.9697,-3.9697,-3.9697,-3.9697,-3.9697,-3.9697,-3.9697,-3.9697,-3.9697,-3.9697,-3.9697,-3.9672,-3.9647,0.0,0.0,-3.9496,-3.9597,-3.9823,-4.0325,-4.0877,-4.143,-4.2037,-4.2112,-4.2363,-4.2811,-4.2886,-4.3112,-4.3589,-4.3664,-4.394,-4.4493,-4.4493,-4.4518,-4.4568,-4.5121,-4.5733,-4.6239,-4.7308,-4.8111,-4.8696,-4.9292,-4.9554,-4.9565,-4.959,-4.9892,-5.0323,-5.0323,-5.0308,-5.0438,-5.098,-5.0913,-5.0419,-5.1046,-5.1247,-5.1297,-4.7309,-4.7309,-4.7309,-4.7309,-4.7309,-4.7309,-4.7309,-4.7309,-4.7309,-4.7309,-4.7309,-4.7309,-4.7309,-4.7309,-4.7309,-4.7309,-4.7309,-4.7309,-4.7309,-4.7309,-4.7309,-4.7309,-4.7309,-4.7309,-4.7309,-4.7309,-4.7309,-4.7309,-4.7309,-4.7309,-4.7309,-4.7309,-4.7309,-4.7309,-4.7309,-4.7309,-4.7309,-4.7309,-4.707,-4.6582,-4.5768,-4.4401,-4.2791,-4.195,-4.0715,-3.9396,-3.9622,-3.9572,-3.9421,-3.9622,-3.9697,-3.9697,-3.9697,-3.9697,-3.9697,-3.9697,-3.9697,-3.9697,-3.9697,-3.9697,-3.9697,-3.9697,-3.9697,-3.9697,-3.9697,-3.9697,-3.9697,-3.9697,-3.9697,-3.9697,-3.9697,-3.9697,-3.9697,-3.9697,0.0,-3.9572,-4.0124,-4.0199,-4.04,-4.0899,-4.115,-4.1555,-4.2162,-4.2213,-4.2439,-4.2936,-4.3288,-4.3589,-4.379,-4.4794,-4.5447,-4.5673,-4.6326,-4.6345,-4.5649,-4.6197,-4.678,-4.7342,-4.8403,-4.9055,-4.933,-5.0219,-5.0689,-5.0689,-5.0689,-5.0754,-5.0965,-5.0965,-5.0938,-5.1047,-5.159,-5.1456,-5.1071,-5.1975,-5.2076,-5.1875,-4.7309,-4.7309,-4.7309,-4.7309,-4.7309,-4.7309,-4.7309,-4.7309,-4.7309,-4.7309,-4.7309,-4.7309,-4.7309,-4.7309,-4.7309,-4.7309,-4.7309,-4.7309,-4.7309,-4.7309,-4.7309,-4.7309,-4.7309,-4.7309,-4.7309,-4.7309,-4.7309,-4.7309,-4.7309,-4.7309,-4.7309,-4.7309,-4.7309,-4.7309,-4.7309,-4.7309,-4.7309,-4.7309,-4.6794,-4.5975,-4.5125,-4.3771,-4.2147,-4.1311,-4.0465,-3.9697,-3.9697,-3.9697,-3.9697,-3.9697,-3.9697,-3.9697,-3.9697,-3.9697,-3.9697,-3.9697,-3.9697,-3.9697,-3.9697,-3.9697,-3.9697,-3.9697,-3.9697,-3.9697,-3.9697,-3.9697,-3.9697,-3.9697,-3.9823,-3.9898,-3.9722,-3.9848,-3.9898,-3.9722,-3.9848,-4.0074,-4.0475,-4.1147,-4.1607,-4.1609,-4.2109,-4.2446,-4.2439,-4.2464,-4.269,-4.3187,-4.3589,-4.4041,-4.4568,-4.5849,-4.6652,-4.6803,-4.7682,-4.7853,-4.7103,-4.7288,-4.7612,-4.8197,-4.9153,-4.9677,-4.9884,-5.0877,-5.1317,-5.1317,-5.1317,-5.1406,-5.1555,-5.1555,-5.1582,-5.1572,-5.2133,-5.2026,-5.1649,-5.2578,-5.2678,-5.2427,-4.7309,-4.7309,-4.7309,-4.7309,-4.7309,-4.7309,-4.7309,-4.7309,-4.7309,-4.7309,-4.7309,-4.7309,-4.7309,-4.7309,-4.7309,-4.7309,-4.7309,-4.7309,-4.7309,-4.7309,-4.7309,-4.7309,-4.7309,-4.7309,-4.7309,-4.7309,-4.7309,-4.7309,-4.7309,-4.7309,-4.7309,-4.7309,-4.7309,-4.7309,-4.7309,-4.7309,-4.7309,-4.7309,-4.655,-4.5298,-4.4022,-4.2738,-4.1468,-4.016,-3.9697,-3.9697,-3.9697,-3.9749,-3.9749,-3.9749,-3.9749,-3.9749,-3.9749,-3.9749,-3.9749,-3.9749,-3.9697,-3.9697,-3.9697,-3.9697,-3.9697,-3.9697,-3.9697,-3.9697,-3.9697,-3.9697,-3.9697,-3.9697,-4.0149,-4.035,-3.9798,-4.0149,-4.035,-3.9798,-4.0174,-4.0526,-4.0526,-4.2603,-4.3675,-4.2377,-4.3873,-4.4481,-4.3129,-4.2986,-4.3212,-4.3765,-4.3815,-4.4543,-4.6225,-4.6853,-4.738,-4.7908,-4.851,-4.885,-4.8785,-4.823,-4.8233,-4.8842,-4.9377,-4.9888,-5.0425,-5.1014,-5.1319,-5.1319,-5.1319,-5.158,-5.2123,-5.2123,-5.2129,-5.2176,-5.2703,-5.2578,-5.2176,-5.2729,-5.2929,-5.2929,-4.7309,-4.7309,-4.7309,-4.7309,-4.7309,-4.7309,-4.7309,-4.7309,-4.7309,-4.7309,-4.7309,-4.7309,-4.7309,-4.7309,-4.7309,-4.7309,-4.7309,-4.7309,-4.7309,-4.7309,-4.7309,-4.7309,-4.7309,-4.7309,-4.7309,-4.7309,-4.7309,-4.7309,-4.7309,-4.7549,-4.7967,-4.7519,-4.7549,-4.7967,-4.7519,-4.7309,-4.7266,-4.6344,-4.5734,-4.5207,-4.3026,-4.1936,-4.1468,-4.016,-4.0262,-4.1019,-4.1019,-4.1591,-4.235,-4.235,-4.235,-4.235,-4.235,-4.235,-4.2181,-4.1319,-4.1019,-4.0922,-4.0409,-4.0275,-4.0174,-3.9798,-3.9697,-3.9798,-4.0174,-4.0275,-4.0375,-4.0777,-4.0924,-4.1,-4.0824,-4.0924,-4.1,-4.0824,-4.0924,-4.1524,-4.2917,-4.2907,-4.3105,-4.4087,-4.3804,-4.3436,-4.3042,-4.2986,-4.3212,-4.3765,-4.4895,-4.5949,-4.6828,-4.7782,-4.8397,-4.8536,-4.9051,-4.9531,-4.9952,-4.9736,-4.9584,-4.9381,-5.0701,-5.1249,-5.1083,-5.2004,-5.2385,-5.2385,-5.2385,-5.2504,-5.2692,-5.2692,-5.2641,-5.2703,-5.2854,-5.2829,-5.2703,-5.2879,-5.2929,-5.2929,-4.7309,-4.7309,-4.7309,-4.7309,-4.7309,-4.7309,-4.7309,-4.7309,-4.7309,-4.7309,-4.7309,-4.7309,-4.7309,-4.7309,-4.7309,-4.7309,-4.7309,-4.7309,-4.7309,-4.7309,-4.7309,-4.7309,-4.7309,-4.7309,-4.7309,-4.7309,-4.7309,-4.7309,-4.7309,-4.7638,-4.8267,-4.7878,-4.7908,-4.8267,-4.7878,-4.7549,-4.7222,-4.5913,-4.5389,-4.5161,-4.2641,-4.1887,-4.223,-4.0945,-4.1219,-4.235,-4.235,-4.2834,-4.3504,-4.3504,-4.3669,-4.391,-4.391,-4.4076,-4.4028,-4.2728,-4.2327,-4.2104,-4.1096,-4.0852,-4.0752,-4.0425,-4.035,-4.0425,-4.0752,-4.0852,-4.0874,-4.1225,-4.1505,-4.1605,-4.1326,-4.153,-4.1605,-4.1326,-4.153,-4.2081,-4.3222,-4.3372,-4.3521,-4.4129,-4.3962,-4.3602,-4.3017,-4.3162,-4.3714,-4.4719,-4.5949,-4.6979,-4.7732,-4.841,-4.89,-4.914,-4.9453,-4.9794,-5.0049,-5.0559,-5.0481,-4.9901,-5.1379,-5.1793,-5.1319,-5.2385,-5.2929,-5.2929,-5.2929,-5.2929,-5.2929,-5.2929,-5.2929,-5.2929,-5.2929,-5.2929,-5.2929,-5.2929,-5.2929,-5.2929,-4.7309,-4.7309,-4.7309,-4.7309,-4.7309,-4.7309,-4.7309,-4.7309,-4.7309,-4.7309,-4.7309,-4.7309,-4.7309,-4.7309,-4.7309,-4.7309,-4.7309,-4.7309,-4.7309,-4.7309,-4.7309,-4.7309,-4.7309,-4.7309,-4.7309,-4.7309,-4.7309,-4.7309,-4.7309,-4.7668,-4.8386,-4.8327,-4.8356,-4.8446,-4.8327,-4.7967,-4.7282,-4.5943,-4.5389,-4.5207,-4.2738,-4.2447,-4.3361,-4.223,-4.2544,-4.3693,-4.3693,-4.374,-4.3834,-4.389,-4.4327,-4.4849,-4.4905,-4.5247,-4.5398,-4.3972,-4.3461,-4.3074,-4.1755,-4.1401,-4.1451,-4.1501,-4.1551,-4.1551,-4.1401,-4.1351,-4.1376,-4.1426,-4.1882,-4.2137,-4.1656,-4.1932,-4.2108,-4.1652,-4.2007,-4.2418,-4.2503,-4.3868,-4.4479,-4.3295,-4.4206,-4.4396,-4.3204,-4.3639,-4.4669,-4.62,-4.6903,-4.7707,-4.8711,-4.8812,-4.9088,-4.9565,-4.959,-4.9615,-4.968,-5.0737,-5.1004,-5.0401,-5.1575,-5.1885,-5.1437,-5.2454,-5.2929,-5.2929,-5.2929,-5.2929,-5.2929,-5.2929,-5.2929,-5.2929,-5.2929,-5.2929,-5.2929,-5.2929,-5.2929,-5.2929,-4.7309,-4.7309,-4.7309,-4.7309,-4.7309,-4.7309,-4.7309,-4.7309,-4.7309,-4.7309,-4.7309,-4.7309,-4.7309,-4.7309,-4.7309,-4.7309,-4.7309,-4.7309,-4.7309,-4.7309,-4.7309,-4.7309,-4.7309,-4.7309,-4.7309,-4.7309,-4.7309,-4.7309,-4.7309,-4.7908,-4.909,-4.8536,-4.8835,-4.9717,-4.8745,-4.8207,-4.7983,-4.6191,-4.5389,-4.5252,-4.3693,-4.3266,-4.3456,-4.317,-4.3882,-4.4978,-4.4978,-4.5644,-4.6565,-4.7066,-4.7331,-4.7537,-4.8083,-4.7625,-4.6594,-4.5249,-4.4125,-4.3075,-4.2211,-4.2283,-4.2735,-4.3162,-4.3589,-4.3564,-4.2258,-4.1982,-4.2108,-4.2534,-4.271,-4.2886,-4.3212,-4.3011,-4.3037,-4.379,-4.3639,-4.3807,-4.4947,-4.4498,-4.4198,-4.4533,-4.4237,-4.3928,-4.3671,-4.492,-4.5924,-4.6276,-4.7631,-4.851,-4.8761,-4.9188,-4.9464,-4.959,-4.959,-4.9794,-5.0229,-5.0966,-5.0989,-5.0401,-5.2017,-5.247,-5.1911,-5.2598,-5.2929,-5.2929,-5.2929,-5.2929,-5.2929,-5.2929,-5.2929,-5.2929,-5.2929,-5.2929,-5.2929,-5.2929,-5.2929,-5.3316,-4.7309,-4.7309,-4.7309,-4.7309,-4.7309,-4.7309,-4.7309,-4.7309,-4.7309,-4.7309,-4.7309,-4.7309,-4.7309,-4.7309,-4.7309,-4.7309,-4.7309,-4.7309,-4.7309,-4.7309,-4.7309,-4.7309,-4.7309,-4.7309,-4.7309,-4.7608,-4.7608,-4.7309,-4.7608,-4.8297,-4.9299,-4.9224,-4.9583,-5.0166,-4.9523,-4.9045,-4.8671,-4.7007,-4.6505,-4.6605,-4.4753,-4.4509,-4.5252,-4.4627,-4.5207,-4.6358,-4.6651,-4.7451,-4.8297,-4.8626,-4.8955,-4.9164,-4.8866,-4.8475,-4.7766,-4.5751,-4.4861,-4.4279,-4.3224,-4.3338,-4.384,-4.4116,-4.4967,-4.5258,-4.3683,-4.3137,-4.3011,-4.3313,-4.3162,-4.3062,-4.3363,-4.3388,-4.3564,-4.4141,-4.4217,-4.4453,-4.5166,-4.4624,-4.4352,-4.4755,-4.4446,-4.4292,-4.4568,-4.5648,-4.6527,-4.7029,-4.8134,-4.8887,-4.9163,-4.9439,-4.959,-4.959,-4.959,-4.9819,-5.0369,-5.101,-5.1276,-5.1201,-5.2338,-5.2624,-5.2123,-5.2692,-5.2929,-5.2929,-5.2929,-5.2929,-5.2929,-5.2929,-5.2929,-5.2929,-5.2929,-5.2929,-5.2929,-5.2929,-5.3427,-5.4567,-4.7309,-4.7309,-4.7309,-4.7309,-4.7309,-4.7309,-4.7309,-4.7309,-4.7309,-4.7309,-4.7399,-4.7489,-4.7489,-4.7578,-4.7608,-4.7489,-4.7578,-4.7638,-4.7638,-4.7638,-4.7638,-4.7638,-4.7638,-4.7638,-4.7638,-4.8177,-4.8117,-4.7489,-4.8117,-4.8805,-4.9434,-5.0002,-5.0255,-5.0345,-5.0255,-4.9942,-4.9359,-4.8102,-4.7858,-4.8134,-4.5899,-4.5982,-4.7372,-4.6268,-4.6623,-4.7698,-4.8267,-4.885,-4.9329,-4.9449,-4.9793,-5.0011,-4.9008,-4.8816,-4.8531,-4.6165,-4.5574,-4.5412,-4.4257,-4.4342,-4.4827,-4.5092,-4.615,-4.6882,-4.5885,-4.4941,-4.4257,-4.3998,-4.3589,-4.3288,-4.3388,-4.3689,-4.4016,-4.4192,-4.4543,-4.4769,-4.4769,-4.4769,-4.4744,-4.4644,-4.4719,-4.4995,-4.5573,-4.62,-4.6954,-4.7832,-4.8535,-4.9113,-4.9565,-4.959,-4.9615,-4.9705,-4.9705,-5.0024,-5.0574,-5.1096,-5.1655,-5.2123,-5.2623,-5.2692,-5.2241,-5.2717,-5.2929,-5.2929,-5.2929,-5.2929,-5.2929,-5.2929,-5.2929,-5.2929,-5.2929,-5.3042,-5.3359,-5.37,-5.4809,-5.6699,-4.7309,-4.7309,-4.7309,-4.7309,-4.7309,-4.7309,-4.7309,-4.7309,-4.7309,-4.7309,-4.7788,-4.8147,-4.8147,-4.8656,-4.882,-4.8207,-4.8686,-4.906,-4.906,-4.906,-4.906,-4.906,-4.906,-4.906,-4.906,-4.912,-4.885,-4.8147,-4.885,-4.9464,-5.0076,-5.0136,-5.0495,-5.105,-5.0435,-5.0136,-4.9986,-4.8716,-4.8223,-4.8237,-4.7288,-4.7435,-4.8147,-4.794,-4.8343,-4.906,-4.9149,-4.9239,-4.9389,-4.9912,-5.0106,-5.0285,-5.0666,-4.9548,-4.7972,-4.7606,-4.6209,-4.4724,-4.4576,-4.492,-4.5699,-4.6955,-4.7753,-4.8554,-4.9632,-4.8097,-4.6096,-4.4781,-4.4443,-4.4543,-4.507,-4.4794,-4.4819,-4.5824,-4.5623,-4.5372,-4.5372,-4.5372,-4.5171,-4.4694,-4.507,-4.5598,-4.615,-4.7104,-4.7757,-4.7908,-4.8887,-4.9515,-4.959,-4.959,-4.9819,-5.0254,-5.0279,-5.0574,-5.1151,-5.1733,-5.2061,-5.2123,-5.2623,-5.2836,-5.281,-5.2836,-5.2929,-5.2929,-5.2929,-5.2929,-5.2929,-5.2929,-5.2929,-5.2929,-5.2929,-5.381,-5.5247,-5.6726,-5.8355,-5.9904,-4.7309,-4.7309,-4.7309,-4.7309,-4.7309,-4.7309,-4.7309,-4.7309,-4.7309,-4.7309,-4.7878,-4.8297,-4.8297,-4.891,-4.9179,-4.8865,-4.9149,-4.9404,-4.9793,-4.9793,-4.9972,-5.0331,-5.0002,-4.9793,-4.9793,-4.9793,-4.9673,-4.9374,-4.9673,-4.9942,-5.0196,-5.0554,-5.093,-5.1199,-5.0853,-5.0734,-5.0704,-5.0182,-4.9703,-4.9344,-4.9075,-4.8895,-4.888,-4.888,-4.906,-4.9359,-4.9673,-5.0272,-5.096,-5.1229,-5.1035,-5.0554,-5.0062,-4.8649,-4.708,-4.6283,-4.5628,-4.5095,-4.5095,-4.5522,-4.6281,-4.7759,-4.8923,-4.9678,-4.9508,-4.9216,-4.8534,-4.669,-4.5399,-4.4694,-4.497,-4.507,-4.5372,-4.6175,-4.6376,-4.6502,-4.6803,-4.6577,-4.62,-4.5648,-4.6326,-4.6828,-4.6778,-4.7757,-4.8536,-4.88,-4.9316,-4.9909,-5.0484,-5.0254,-5.0344,-5.0895,-5.0911,-5.1147,-5.1708,-5.1979,-5.2241,-5.2573,-5.281,-5.2929,-5.2929,-5.2929,-5.2929,-5.2929,-5.2929,-5.2929,-5.2929,-5.2929,-5.2929,-5.2973,-5.392,-5.5314,-5.7021,-5.8793,-5.9872,-6.06]}]]